Darstellungsparameter: Aktuell verwendete Einstellungen:
Skalierung der Graphiken ... ?
xyx+y,   Skalierungsfaktor:      Skalierung: Modus: x, Faktor: 1
Darstellungszeitraum ... ?
Vom - - bis: - -   Zeitraum: 01.04.2019 - 29.04.2019
Min/Max/Avg-Anzeige ... ?
Zeige MMA aktuell
Zeige MMA Monat
Zeige MMA alles
Zeige --A aktuell
Zeige --A Monat
Zeige --A alles
Keine MMA-Anzeige
MMA:
Average (ber die Originaldaten)
MMA-Basis: 01.04.2019 - 29.04.2019
Quicknavigation für Darstellung... ?
Tage:      1T, 2T, 3T, 5T -1T -2T -3T -5T +1T +2T +3T +5T
Wochen: 1W, 2W, 3W -1W -2W -3W +1W +2W +3W
Monate: 1M, 3M, 6M -1M -3M -6M +1M +3M +6M
Jahre:    1J, 3J, 5J, 10J -1J -3J -5J -10J +1J +3J +5J +10J
Nutze für die Darstellung ... ?
Originaldaten oder Mittelwerte auf ...
Stundenbasis Tagesbasis Wochenbasis
Monatsbasis Jahresbasis      Datenbasis: Original-Daten
Darstellen als:
Statistik (Auto) Statistik J:M      Darstellung:
Zur Graphik,    zurück zur Übersicht aller Sensoren.
 
Tabellarische Datenbersicht: ?
 
Sensor: Nr:Datum:Temp:Feuchte:
Aussen-T/F 1 01-04-2019 00:08:17 5.8 C 44 %
2 01-04-2019 00:20:17 5.7 C 44 %
3 01-04-2019 00:32:17 5.6 C 43 %
4 01-04-2019 00:44:17 5.4 C 42 %
5 01-04-2019 00:56:17 5.2 C 43 %
6 01-04-2019 01:08:18 5.1 C 44 %
7 01-04-2019 01:20:17 4.9 C 45 %
8 01-04-2019 01:32:17 4.7 C 46 %
9 01-04-2019 01:44:18 4.7 C 45 %
10 01-04-2019 01:56:18 4.7 C 46 %
11 01-04-2019 02:08:17 4.7 C 45 %
12 01-04-2019 02:20:17 4.4 C 45 %
13 01-04-2019 02:32:17 4.1 C 46 %
14 01-04-2019 02:44:17 3.8 C 47 %
15 01-04-2019 02:56:17 3.8 C 49 %
16 01-04-2019 03:08:18 3.7 C 49 %
17 01-04-2019 03:20:17 3.8 C 50 %
18 01-04-2019 03:32:17 3.6 C 48 %
19 01-04-2019 03:44:17 3.5 C 48 %
20 01-04-2019 03:56:17 3.2 C 49 %
21 01-04-2019 04:08:17 3.3 C 50 %
22 01-04-2019 04:20:17 3.2 C 50 %
23 01-04-2019 04:32:18 3.4 C 50 %
24 01-04-2019 04:44:18 3.4 C 50 %
25 01-04-2019 04:56:17 3.3 C 49 %
Sensor: Nr:Datum:Temp:Feuchte:
Aussen-T/F 26 01-04-2019 05:08:17 3.2 C 49 %
27 01-04-2019 05:20:17 3.1 C 49 %
28 01-04-2019 05:32:18 2.8 C 50 %
29 01-04-2019 05:44:18 2.7 C 50 %
30 01-04-2019 05:56:17 2.8 C 51 %
31 01-04-2019 06:08:17 2.7 C 51 %
32 01-04-2019 06:20:17 2.5 C 50 %
33 01-04-2019 06:32:17 2.2 C 50 %
34 01-04-2019 06:44:17 2.1 C 51 %
35 01-04-2019 06:57:17 2.2 C 52 %
36 01-04-2019 07:08:17 2.3 C 52 %
37 01-04-2019 07:20:17 2.3 C 51 %
38 01-04-2019 07:32:17 2 C 51 %
39 01-04-2019 07:44:17 2 C 51 %
40 01-04-2019 07:56:18 2 C 52 %
41 01-04-2019 08:08:17 2.1 C 52 %
42 01-04-2019 08:20:17 2.3 C 53 %
43 01-04-2019 08:32:17 2.4 C 53 %
44 01-04-2019 08:44:17 2.5 C 53 %
45 01-04-2019 08:56:18 2.7 C 53 %
46 01-04-2019 09:08:17 3.5 C 51 %
47 01-04-2019 09:20:17 3.7 C 49 %
48 01-04-2019 09:44:17 4.1 C 45 %
49 01-04-2019 09:44:17 4.4 C 41 %
50 01-04-2019 09:56:17 4.7 C 41 %
Sensor: Nr:Datum:Temp:Feuchte:
Aussen-T/F 51 01-04-2019 10:09:17 5.6 C 32 %
52 01-04-2019 10:20:17 6.2 C 29 %
53 01-04-2019 10:32:18 7.2 C 21 %
54 01-04-2019 10:44:18 7.5 C 25 %
55 01-04-2019 10:56:17 9 C 20 %
56 01-04-2019 11:08:18 9.3 C 20 %
57 01-04-2019 11:21:17 10 C 20 %
58 01-04-2019 11:32:18 10.5 C 20 %
59 01-04-2019 11:44:18 10.7 C 20 %
60 01-04-2019 11:56:17 11.3 C 20 %
61 01-04-2019 12:08:18 11.9 C 20 %
62 01-04-2019 12:21:17 12.2 C 20 %
63 01-04-2019 12:32:17 12.6 C 20 %
64 01-04-2019 12:44:17 14.1 C 20 %
65 01-04-2019 12:56:17 12.2 C 20 %
66 01-04-2019 13:09:17 12 C 20 %
67 01-04-2019 13:20:17 12.5 C 20 %
68 01-04-2019 13:44:17 12.8 C 20 %
69 01-04-2019 13:44:18 13.3 C 20 %
70 01-04-2019 13:56:18 13.8 C 20 %
71 01-04-2019 14:09:17 14.2 C 20 %
72 01-04-2019 14:20:17 14.7 C 20 %
73 01-04-2019 14:33:17 14.8 C 20 %
74 01-04-2019 14:45:17 15 C 20 %
75 01-04-2019 14:57:17 15.7 C 20 %
Sensor: Nr:Datum:Temp:Feuchte:
Aussen-T/F 76 01-04-2019 15:08:17 15.7 C 20 %
77 01-04-2019 15:21:17 16.2 C 20 %
78 01-04-2019 15:44:17 16.8 C 20 %
79 01-04-2019 15:44:18 16.8 C 20 %
80 01-04-2019 15:56:18 17.1 C 20 %
81 01-04-2019 16:09:17 17.2 C 20 %
82 01-04-2019 16:20:18 18.1 C 20 %
83 01-04-2019 16:33:17 18.2 C 20 %
84 01-04-2019 16:45:17 18.2 C 20 %
85 01-04-2019 16:56:17 17.9 C 20 %
86 01-04-2019 17:09:17 18 C 20 %
87 01-04-2019 17:21:17 18.3 C 20 %
88 01-04-2019 17:33:17 18.1 C 20 %
89 01-04-2019 17:45:17 18.2 C 20 %
90 01-04-2019 17:56:17 17.9 C 20 %
91 01-04-2019 18:09:17 18.3 C 20 %
92 01-04-2019 18:21:17 18 C 20 %
93 01-04-2019 18:33:17 18.3 C 20 %
94 01-04-2019 18:45:17 18.3 C 20 %
95 01-04-2019 18:57:17 18.8 C 20 %
96 01-04-2019 19:08:17 16.9 C 20 %
97 01-04-2019 19:21:17 15.6 C 20 %
98 01-04-2019 19:33:17 14.2 C 20 %
99 01-04-2019 19:44:18 13.2 C 20 %
100 01-04-2019 19:56:18 12.1 C 20 %
Sensor: Nr:Datum:Temp:Feuchte:
Aussen-T/F 101 01-04-2019 20:09:17 11.6 C 20 %
102 01-04-2019 20:21:17 11.1 C 20 %
103 01-04-2019 20:33:17 10.8 C 20 %
104 01-04-2019 20:45:17 10.3 C 20 %
105 01-04-2019 20:57:18 10 C 20 %
106 01-04-2019 21:09:17 9.8 C 20 %
107 01-04-2019 21:21:17 9.7 C 20 %
108 01-04-2019 21:33:17 9.3 C 21 %
109 01-04-2019 21:45:17 9.2 C 23 %
110 01-04-2019 21:57:17 9 C 25 %
111 01-04-2019 22:09:17 8.6 C 25 %
112 01-04-2019 22:21:17 8.7 C 25 %
113 01-04-2019 22:33:17 8.4 C 25 %
114 01-04-2019 22:45:17 8.4 C 25 %
115 01-04-2019 22:57:17 8.4 C 25 %
116 01-04-2019 23:09:17 8.1 C 25 %
117 01-04-2019 23:21:17 8 C 25 %
118 01-04-2019 23:33:17 7.6 C 26 %
119 01-04-2019 23:45:17 7.4 C 27 %
120 01-04-2019 23:57:17 7.5 C 27 %
121 02-04-2019 00:09:17 7.5 C 27 %
122 02-04-2019 00:21:17 6.9 C 31 %
123 02-04-2019 00:33:17 6.8 C 30 %
124 02-04-2019 00:45:17 6.6 C 31 %
125 02-04-2019 00:57:17 6.2 C 32 %
Sensor: Nr:Datum:Temp:Feuchte:
Aussen-T/F 126 02-04-2019 01:09:17 5.7 C 35 %
127 02-04-2019 01:21:17 5.6 C 36 %
128 02-04-2019 01:33:18 5.5 C 36 %
129 02-04-2019 01:45:17 5.4 C 36 %
130 02-04-2019 01:57:17 5.4 C 37 %
131 02-04-2019 02:09:17 5.3 C 37 %
132 02-04-2019 02:21:17 5.1 C 38 %
133 02-04-2019 02:33:17 5.1 C 38 %
134 02-04-2019 02:45:17 4.8 C 39 %
135 02-04-2019 02:57:17 4.5 C 40 %
136 02-04-2019 03:09:17 4.1 C 40 %
137 02-04-2019 03:21:17 4 C 42 %
138 02-04-2019 03:33:17 3.7 C 44 %
139 02-04-2019 03:45:17 3.5 C 45 %
140 02-04-2019 03:57:17 3.6 C 46 %
141 02-04-2019 04:09:17 3.5 C 47 %
142 02-04-2019 04:21:17 3.3 C 47 %
143 02-04-2019 04:33:17 3.2 C 47 %
144 02-04-2019 04:45:18 3.2 C 48 %
145 02-04-2019 04:57:18 3 C 48 %
146 02-04-2019 05:09:17 3.1 C 49 %
147 02-04-2019 05:21:17 3.1 C 49 %
148 02-04-2019 05:33:17 2.8 C 50 %
149 02-04-2019 05:45:17 2.8 C 50 %
150 02-04-2019 05:57:17 2.7 C 51 %
Sensor: Nr:Datum:Temp:Feuchte:
Aussen-T/F 151 02-04-2019 06:09:17 3.1 C 51 %
152 02-04-2019 06:21:17 3 C 50 %
153 02-04-2019 06:33:17 3 C 50 %
154 02-04-2019 06:45:17 2.9 C 50 %
155 02-04-2019 06:57:17 2.8 C 51 %
156 02-04-2019 07:09:17 2.8 C 51 %
157 02-04-2019 07:21:17 3.1 C 51 %
158 02-04-2019 07:33:17 3.4 C 52 %
159 02-04-2019 07:45:17 3.8 C 52 %
160 02-04-2019 07:57:17 4 C 50 %
161 02-04-2019 08:09:18 4.3 C 49 %
162 02-04-2019 08:21:17 4.9 C 48 %
163 02-04-2019 08:33:17 5.5 C 44 %
164 02-04-2019 08:45:18 5.7 C 38 %
165 02-04-2019 08:57:18 5.9 C 37 %
166 02-04-2019 09:09:17 6.5 C 35 %
167 02-04-2019 09:21:17 7 C 31 %
168 02-04-2019 09:33:17 7.5 C 30 %
169 02-04-2019 09:45:17 7.8 C 29 %
170 02-04-2019 09:57:17 8.1 C 26 %
171 02-04-2019 10:09:17 8.1 C 26 %
172 02-04-2019 10:21:18 9 C 23 %
173 02-04-2019 10:33:17 9.9 C 21 %
174 02-04-2019 10:45:17 10.4 C 20 %
175 02-04-2019 10:57:17 11.4 C 20 %
Sensor: Nr:Datum:Temp:Feuchte:
Aussen-T/F 176 02-04-2019 11:09:18 12.5 C 20 %
177 02-04-2019 11:21:17 13 C 20 %
178 02-04-2019 11:33:18 13.4 C 20 %
179 02-04-2019 11:45:17 14.7 C 20 %
180 02-04-2019 11:57:17 15.4 C 20 %
181 02-04-2019 12:09:18 15.6 C 20 %
182 02-04-2019 12:21:17 16.1 C 20 %
183 02-04-2019 12:33:17 16.6 C 20 %
184 02-04-2019 12:45:17 16.8 C 20 %
185 02-04-2019 12:57:17 17.4 C 20 %
186 02-04-2019 13:09:17 17.4 C 20 %
187 02-04-2019 13:21:17 17.5 C 20 %
188 02-04-2019 13:33:17 17.6 C 20 %
189 02-04-2019 13:45:17 17.7 C 20 %
190 02-04-2019 13:57:17 18.6 C 20 %
191 02-04-2019 14:09:18 18.9 C 20 %
192 02-04-2019 14:21:17 19.1 C 20 %
193 02-04-2019 14:33:17 19 C 20 %
194 02-04-2019 14:45:18 18.2 C 20 %
195 02-04-2019 14:57:18 17.4 C 20 %
196 02-04-2019 15:09:17 14.5 C 20 %
197 02-04-2019 15:21:17 15.4 C 20 %
198 02-04-2019 15:33:17 17.2 C 20 %
199 02-04-2019 15:45:17 18.6 C 20 %
200 02-04-2019 15:57:17 18.5 C 20 %
Sensor: Nr:Datum:Temp:Feuchte:
Aussen-T/F 201 02-04-2019 16:09:17 18.3 C 20 %
202 02-04-2019 16:21:17 18.6 C 20 %
203 02-04-2019 16:33:17 17.6 C 20 %
204 02-04-2019 16:45:17 16.8 C 20 %
205 02-04-2019 16:57:17 14.7 C 20 %
206 02-04-2019 17:09:17 15.9 C 20 %
207 02-04-2019 17:21:17 16.5 C 20 %
208 02-04-2019 17:33:17 16.8 C 20 %
209 02-04-2019 17:45:17 17 C 20 %
210 02-04-2019 17:57:17 16.6 C 20 %
211 02-04-2019 18:09:17 16.3 C 20 %
212 02-04-2019 18:21:17 16.1 C 20 %
213 02-04-2019 18:33:17 16 C 20 %
214 02-04-2019 18:45:17 16 C 20 %
215 02-04-2019 18:57:17 16 C 20 %
216 02-04-2019 19:09:17 15.6 C 20 %
217 02-04-2019 19:21:17 15.1 C 20 %
218 02-04-2019 19:33:17 15.1 C 20 %
219 02-04-2019 19:45:17 14.4 C 20 %
220 02-04-2019 19:57:17 14 C 20 %
221 02-04-2019 20:09:17 13.4 C 20 %
222 02-04-2019 20:21:17 13.3 C 20 %
223 02-04-2019 20:33:17 13.2 C 20 %
224 02-04-2019 20:45:17 13.3 C 20 %
225 02-04-2019 20:57:17 13.1 C 20 %
Sensor: Nr:Datum:Temp:Feuchte:
Aussen-T/F 226 02-04-2019 21:09:17 13.1 C 20 %
227 02-04-2019 21:21:17 13.2 C 20 %
228 02-04-2019 21:33:17 13.2 C 20 %
229 02-04-2019 21:45:17 13 C 20 %
230 02-04-2019 21:57:17 12.8 C 20 %
231 02-04-2019 22:09:17 12.5 C 20 %
232 02-04-2019 22:21:17 12.5 C 20 %
233 02-04-2019 22:33:17 12.1 C 20 %
234 02-04-2019 22:45:17 11.5 C 20 %
235 02-04-2019 22:57:17 11.5 C 20 %
236 02-04-2019 23:09:17 11.1 C 20 %
237 02-04-2019 23:21:17 11 C 20 %
238 02-04-2019 23:33:17 10.8 C 20 %
239 02-04-2019 23:45:17 10.3 C 20 %
240 02-04-2019 23:57:17 9.8 C 26 %
241 03-04-2019 00:09:17 9.8 C 27 %
242 03-04-2019 00:21:17 9.7 C 27 %
243 03-04-2019 00:33:17 9.9 C 27 %
244 03-04-2019 00:45:18 9.9 C 27 %
245 03-04-2019 00:57:18 10 C 26 %
246 03-04-2019 01:09:17 9.8 C 27 %
247 03-04-2019 01:21:18 9.8 C 27 %
248 03-04-2019 01:33:17 9.2 C 29 %
249 03-04-2019 01:45:17 9 C 30 %
250 03-04-2019 01:57:17 9.1 C 31 %
Sensor: Nr:Datum:Temp:Feuchte:
Aussen-T/F 251 03-04-2019 02:09:17 9.1 C 31 %
252 03-04-2019 02:21:17 9.2 C 30 %
253 03-04-2019 02:33:17 9.5 C 30 %
254 03-04-2019 02:45:18 9.3 C 30 %
255 03-04-2019 02:57:18 8.4 C 33 %
256 03-04-2019 03:09:17 8.1 C 35 %
257 03-04-2019 03:21:17 7.9 C 35 %
258 03-04-2019 03:33:17 7.9 C 37 %
259 03-04-2019 03:45:18 8.4 C 36 %
260 03-04-2019 03:57:18 8.4 C 36 %
261 03-04-2019 04:09:17 8.6 C 35 %
262 03-04-2019 04:21:17 8.5 C 35 %
263 03-04-2019 04:33:17 8.2 C 36 %
264 03-04-2019 04:45:17 8 C 36 %
265 03-04-2019 04:57:17 8 C 37 %
266 03-04-2019 05:09:18 8 C 37 %
267 03-04-2019 05:21:17 7.9 C 38 %
268 03-04-2019 05:33:17 7.9 C 39 %
269 03-04-2019 05:45:17 7.6 C 38 %
270 03-04-2019 05:57:17 7.2 C 40 %
271 03-04-2019 06:09:18 7.2 C 41 %
272 03-04-2019 06:21:17 7.4 C 41 %
273 03-04-2019 06:33:17 7.8 C 39 %
274 03-04-2019 06:45:18 8 C 37 %
275 03-04-2019 06:57:18 8 C 36 %
Sensor: Nr:Datum:Temp:Feuchte:
Aussen-T/F 276 03-04-2019 07:09:17 8.1 C 34 %
277 03-04-2019 07:21:17 7.9 C 35 %
278 03-04-2019 07:33:17 8.1 C 34 %
279 03-04-2019 07:45:18 8.2 C 35 %
280 03-04-2019 07:57:18 8.4 C 35 %
281 03-04-2019 08:09:17 8.5 C 34 %
282 03-04-2019 08:21:17 8.5 C 33 %
283 03-04-2019 08:33:18 8.1 C 36 %
284 03-04-2019 08:45:17 7.9 C 41 %
285 03-04-2019 08:57:17 7.5 C 45 %
286 03-04-2019 09:09:18 7.1 C 46 %
287 03-04-2019 09:21:17 6.8 C 47 %
288 03-04-2019 09:33:18 6.8 C 48 %
289 03-04-2019 09:45:17 6.5 C 45 %
290 03-04-2019 09:57:17 6.4 C 45 %
291 03-04-2019 10:09:18 6.5 C 47 %
292 03-04-2019 10:21:17 6.5 C 47 %
293 03-04-2019 10:33:17 6.3 C 44 %
294 03-04-2019 10:45:17 6.2 C 44 %
295 03-04-2019 10:57:17 6.4 C 44 %
296 03-04-2019 11:09:17 6.6 C 46 %
297 03-04-2019 11:21:17 6.9 C 47 %
298 03-04-2019 11:33:18 7.3 C 42 %
299 03-04-2019 11:45:17 7.6 C 42 %
300 03-04-2019 11:57:17 7.5 C 39 %
Sensor: Nr:Datum:Temp:Feuchte:
Aussen-T/F 301 03-04-2019 12:09:18 7.9 C 38 %
302 03-04-2019 12:21:17 8.1 C 35 %
303 03-04-2019 12:33:18 8.6 C 34 %
304 03-04-2019 12:45:17 9.2 C 31 %
305 03-04-2019 12:57:17 10 C 27 %
306 03-04-2019 13:09:18 10.5 C 26 %
307 03-04-2019 13:21:17 10.2 C 25 %
308 03-04-2019 13:33:17 9.8 C 25 %
309 03-04-2019 13:45:17 9.9 C 25 %
310 03-04-2019 13:57:17 9.7 C 25 %
311 03-04-2019 14:09:17 9.5 C 26 %
312 03-04-2019 14:21:18 9.8 C 26 %
313 03-04-2019 14:33:17 9.8 C 25 %
314 03-04-2019 14:45:17 10 C 25 %
315 03-04-2019 14:57:17 10.2 C 21 %
316 03-04-2019 15:09:17 10.4 C 22 %
317 03-04-2019 15:21:17 10.7 C 21 %
318 03-04-2019 15:33:17 10.2 C 20 %
319 03-04-2019 15:45:17 10.3 C 20 %
320 03-04-2019 15:57:17 10.2 C 20 %
321 03-04-2019 16:09:17 10.4 C 20 %
322 03-04-2019 16:21:17 10.2 C 21 %
323 03-04-2019 16:33:17 10.1 C 20 %
324 03-04-2019 16:45:17 10.2 C 22 %
325 03-04-2019 16:57:17 9.7 C 25 %
Sensor: Nr:Datum:Temp:Feuchte:
Aussen-T/F 326 03-04-2019 17:09:18 9.4 C 26 %
327 03-04-2019 17:21:17 9.1 C 27 %
328 03-04-2019 17:33:18 8.4 C 33 %
329 03-04-2019 17:45:17 7.8 C 39 %
330 03-04-2019 17:57:17 7.5 C 46 %
331 03-04-2019 18:09:18 7.4 C 50 %
332 03-04-2019 18:21:17 6.9 C 49 %
333 03-04-2019 18:33:17 6.9 C 51 %
334 03-04-2019 18:45:17 6.7 C 51 %
335 03-04-2019 18:57:17 6.5 C 51 %
336 03-04-2019 19:09:17 6.4 C 51 %
337 03-04-2019 19:21:17 6.4 C 52 %
338 03-04-2019 19:33:17 6.3 C 53 %
339 03-04-2019 19:45:17 6.2 C 53 %
340 03-04-2019 19:57:17 6 C 52 %
341 03-04-2019 20:09:17 5.8 C 53 %
342 03-04-2019 20:21:17 5.7 C 53 %
343 03-04-2019 20:33:17 5.7 C 54 %
344 03-04-2019 20:45:18 5.7 C 54 %
345 03-04-2019 20:57:18 5.7 C 54 %
346 03-04-2019 21:09:17 5.6 C 54 %
347 03-04-2019 21:21:17 5.6 C 54 %
348 03-04-2019 21:33:18 5.6 C 54 %
349 03-04-2019 21:45:17 5.5 C 54 %
350 03-04-2019 21:57:17 5.4 C 54 %
Sensor: Nr:Datum:Temp:Feuchte:
Aussen-T/F 351 03-04-2019 22:09:17 5.3 C 54 %
352 03-04-2019 22:21:18 5.2 C 54 %
353 03-04-2019 22:33:17 5.1 C 55 %
354 03-04-2019 22:45:17 5.1 C 55 %
355 03-04-2019 22:57:17 5 C 56 %
356 03-04-2019 23:09:17 5 C 58 %
357 03-04-2019 23:21:17 5 C 61 %
358 03-04-2019 23:33:18 5 C 63 %
359 03-04-2019 23:45:17 5 C 63 %
360 03-04-2019 23:57:17 5 C 64 %
361 04-04-2019 00:09:18 5 C 65 %
362 04-04-2019 00:21:17 5.1 C 66 %
363 04-04-2019 00:33:18 5 C 65 %
364 04-04-2019 00:45:18 4.9 C 64 %
365 04-04-2019 00:57:18 4.7 C 63 %
366 04-04-2019 01:09:17 4.7 C 63 %
367 04-04-2019 01:21:18 4.7 C 64 %
368 04-04-2019 01:33:17 4.7 C 65 %
369 04-04-2019 01:45:17 4.8 C 66 %
370 04-04-2019 01:57:17 4.7 C 65 %
371 04-04-2019 02:09:17 4.7 C 65 %
372 04-04-2019 02:21:18 4.8 C 64 %
373 04-04-2019 02:33:17 5 C 60 %
374 04-04-2019 02:45:17 5 C 53 %
375 04-04-2019 02:57:17 5.1 C 51 %
Sensor: Nr:Datum:Temp:Feuchte:
Aussen-T/F 376 04-04-2019 03:09:17 5.1 C 51 %
377 04-04-2019 03:21:18 5 C 50 %
378 04-04-2019 03:33:17 5 C 50 %
379 04-04-2019 03:45:17 5 C 50 %
380 04-04-2019 03:57:17 4.9 C 50 %
381 04-04-2019 04:09:18 4.9 C 51 %
382 04-04-2019 04:21:17 5 C 52 %
383 04-04-2019 04:33:18 5 C 52 %
384 04-04-2019 04:45:17 5 C 53 %
385 04-04-2019 04:57:18 5 C 54 %
386 04-04-2019 05:09:17 5.1 C 55 %
387 04-04-2019 05:21:17 5 C 55 %
388 04-04-2019 05:33:17 5 C 54 %
389 04-04-2019 05:45:17 5 C 54 %
390 04-04-2019 05:57:17 5 C 55 %
391 04-04-2019 06:09:18 5 C 55 %
392 04-04-2019 06:21:18 4.9 C 56 %
393 04-04-2019 06:33:17 4.8 C 56 %
394 04-04-2019 06:45:17 4.8 C 57 %
395 04-04-2019 06:57:17 4.8 C 57 %
396 04-04-2019 07:09:17 4.8 C 58 %
397 04-04-2019 07:21:17 4.8 C 59 %
398 04-04-2019 07:33:18 4.8 C 60 %
399 04-04-2019 07:45:17 4.9 C 60 %
400 04-04-2019 07:57:17 5 C 60 %
Sensor: Nr:Datum:Temp:Feuchte:
Aussen-T/F 401 04-04-2019 08:09:18 5 C 62 %
402 04-04-2019 08:21:17 5.1 C 62 %
403 04-04-2019 08:33:17 5.1 C 63 %
404 04-04-2019 08:45:17 5.1 C 63 %
405 04-04-2019 08:57:17 5.2 C 65 %
406 04-04-2019 09:09:17 5.4 C 66 %
407 04-04-2019 09:21:17 5.4 C 65 %
408 04-04-2019 09:33:17 5.5 C 64 %
409 04-04-2019 09:45:18 5.5 C 61 %
410 04-04-2019 09:57:18 5.3 C 59 %
411 04-04-2019 10:09:17 5.4 C 53 %
412 04-04-2019 10:21:17 5.8 C 49 %
413 04-04-2019 10:33:18 5.9 C 45 %
414 04-04-2019 10:45:17 6.1 C 41 %
415 04-04-2019 10:57:17 6.2 C 39 %
416 04-04-2019 11:09:18 6.5 C 36 %
417 04-04-2019 11:21:17 6.7 C 35 %
418 04-04-2019 11:33:17 7.1 C 33 %
419 04-04-2019 11:45:17 7 C 33 %
420 04-04-2019 11:57:17 7.2 C 31 %
421 04-04-2019 12:09:17 7.2 C 30 %
422 04-04-2019 12:21:17 7 C 32 %
423 04-04-2019 12:33:17 6.6 C 34 %
424 04-04-2019 12:45:17 6.4 C 36 %
425 04-04-2019 12:57:18 6.2 C 37 %
Sensor: Nr:Datum:Temp:Feuchte:
Aussen-T/F 426 04-04-2019 13:09:17 6.1 C 39 %
427 04-04-2019 13:21:17 5.9 C 41 %
428 04-04-2019 13:33:17 6.1 C 42 %
429 04-04-2019 13:45:18 6 C 40 %
430 04-04-2019 13:57:18 6 C 41 %
431 04-04-2019 14:09:17 6.1 C 40 %
432 04-04-2019 14:21:17 5.9 C 40 %
433 04-04-2019 14:33:17 6 C 40 %
434 04-04-2019 14:45:17 6 C 40 %
435 04-04-2019 14:57:18 6.3 C 39 %
436 04-04-2019 15:09:17 6.2 C 37 %
437 04-04-2019 15:21:17 6.4 C 39 %
438 04-04-2019 15:33:18 6.3 C 38 %
439 04-04-2019 15:45:18 6.5 C 41 %
440 04-04-2019 15:57:18 6.4 C 41 %
441 04-04-2019 16:09:17 6.6 C 41 %
442 04-04-2019 16:21:17 6.7 C 41 %
443 04-04-2019 16:33:17 6.4 C 40 %
444 04-04-2019 16:45:17 6.4 C 39 %
445 04-04-2019 16:57:17 6.9 C 40 %
446 04-04-2019 17:09:17 7.1 C 36 %
447 04-04-2019 17:21:17 7.2 C 36 %
448 04-04-2019 17:33:17 7.5 C 35 %
449 04-04-2019 17:45:17 8.1 C 32 %
450 04-04-2019 17:57:17 7.8 C 30 %
Sensor: Nr:Datum:Temp:Feuchte:
Aussen-T/F 451 04-04-2019 18:09:17 7.5 C 30 %
452 04-04-2019 18:21:17 7.3 C 31 %
453 04-04-2019 18:33:17 7.3 C 31 %
454 04-04-2019 18:45:17 7.4 C 32 %
455 04-04-2019 18:57:17 7.4 C 32 %
456 04-04-2019 19:09:18 7.3 C 33 %
457 04-04-2019 19:21:17 7.1 C 33 %
458 04-04-2019 19:33:17 6.6 C 37 %
459 04-04-2019 19:45:18 6 C 43 %
460 04-04-2019 19:57:18 5.7 C 45 %
461 04-04-2019 20:09:17 5.4 C 47 %
462 04-04-2019 20:21:17 5.2 C 49 %
463 04-04-2019 20:33:17 5.2 C 50 %
464 04-04-2019 20:45:17 5.1 C 50 %
465 04-04-2019 20:57:17 4.9 C 51 %
466 04-04-2019 21:09:17 4.8 C 51 %
467 04-04-2019 21:21:17 4.7 C 51 %
468 04-04-2019 21:33:17 4.6 C 51 %
469 04-04-2019 21:45:17 4.5 C 51 %
470 04-04-2019 21:57:18 4.5 C 52 %
471 04-04-2019 22:09:17 4.5 C 52 %
472 04-04-2019 22:21:17 4.5 C 52 %
473 04-04-2019 22:33:17 4.5 C 52 %
474 04-04-2019 22:45:17 4.4 C 52 %
475 04-04-2019 22:57:17 4.3 C 53 %
Sensor: Nr:Datum:Temp:Feuchte:
Aussen-T/F 476 04-04-2019 23:09:17 4.1 C 52 %
477 04-04-2019 23:21:18 3.7 C 53 %
478 04-04-2019 23:33:17 3.6 C 54 %
479 04-04-2019 23:45:18 3.3 C 54 %
480 04-04-2019 23:57:18 3.5 C 55 %
481 05-04-2019 00:09:17 3.4 C 55 %
482 05-04-2019 00:21:18 3.1 C 55 %
483 05-04-2019 00:33:17 3 C 55 %
484 05-04-2019 00:45:17 2.8 C 55 %
485 05-04-2019 00:57:17 2.6 C 55 %
486 05-04-2019 01:09:17 2.4 C 55 %
487 05-04-2019 01:21:17 2.4 C 56 %
488 05-04-2019 01:33:18 2.6 C 58 %
489 05-04-2019 01:45:17 2.9 C 61 %
490 05-04-2019 01:57:17 3.1 C 63 %
491 05-04-2019 02:09:17 3.2 C 65 %
492 05-04-2019 02:21:17 3.1 C 64 %
493 05-04-2019 02:33:18 2.9 C 63 %
494 05-04-2019 02:45:17 2.9 C 65 %
495 05-04-2019 02:57:18 3 C 65 %
496 05-04-2019 03:09:17 3.2 C 68 %
497 05-04-2019 03:21:17 3.3 C 68 %
498 05-04-2019 03:33:18 3.4 C 68 %
499 05-04-2019 03:45:18 3.4 C 68 %
500 05-04-2019 03:57:18 3.4 C 68 %
Sensor: Nr:Datum:Temp:Feuchte:
Aussen-T/F 501 05-04-2019 04:09:17 3.4 C 68 %
502 05-04-2019 04:21:17 3.4 C 68 %
503 05-04-2019 04:33:17 3.4 C 68 %
504 05-04-2019 04:45:17 3.4 C 68 %
505 05-04-2019 04:57:17 3.4 C 68 %
506 05-04-2019 05:09:17 3.4 C 67 %
507 05-04-2019 05:21:18 3.3 C 67 %
508 05-04-2019 05:33:17 3.3 C 67 %
509 05-04-2019 05:45:17 3.2 C 66 %
510 05-04-2019 05:57:17 3.4 C 68 %
511 05-04-2019 06:09:18 3.4 C 68 %
512 05-04-2019 06:21:17 3.3 C 68 %
513 05-04-2019 06:33:17 3.3 C 67 %
514 05-04-2019 06:45:17 3.3 C 67 %
515 05-04-2019 06:57:17 3.3 C 68 %
516 05-04-2019 07:09:17 3.4 C 69 %
517 05-04-2019 07:21:17 3.6 C 69 %
518 05-04-2019 07:33:17 3.7 C 70 %
519 05-04-2019 07:45:17 3.8 C 69 %
520 05-04-2019 07:57:17 3.9 C 69 %
521 05-04-2019 08:09:17 4.2 C 68 %
522 05-04-2019 08:21:17 4.3 C 67 %
523 05-04-2019 08:33:17 4.4 C 66 %
524 05-04-2019 08:45:17 4.6 C 63 %
525 05-04-2019 08:57:17 4.6 C 57 %
Sensor: Nr:Datum:Temp:Feuchte:
Aussen-T/F 526 05-04-2019 09:09:18 5 C 51 %
527 05-04-2019 09:21:17 5.1 C 49 %
528 05-04-2019 09:33:18 5.3 C 46 %
529 05-04-2019 09:45:17 5.6 C 45 %
530 05-04-2019 09:57:17 5.8 C 42 %
531 05-04-2019 10:09:17 5.9 C 41 %
532 05-04-2019 10:21:18 6.1 C 39 %
533 05-04-2019 10:33:17 6.7 C 37 %
534 05-04-2019 10:45:18 7.1 C 34 %
535 05-04-2019 10:57:18 7.5 C 32 %
536 05-04-2019 11:09:17 7.7 C 32 %
537 05-04-2019 11:21:17 8 C 30 %
538 05-04-2019 11:33:18 7.8 C 30 %
539 05-04-2019 11:45:17 8.2 C 30 %
540 05-04-2019 11:57:17 8.1 C 29 %
541 05-04-2019 12:09:17 8.4 C 28 %
542 05-04-2019 12:21:17 8.5 C 28 %
543 05-04-2019 12:33:17 8.5 C 28 %
544 05-04-2019 12:45:17 8.2 C 28 %
545 05-04-2019 12:57:17 8.1 C 29 %
546 05-04-2019 13:09:17 8.1 C 30 %
547 05-04-2019 13:21:17 8.1 C 30 %
548 05-04-2019 13:33:17 8.1 C 29 %
549 05-04-2019 13:45:17 8.2 C 29 %
550 05-04-2019 13:57:17 8.4 C 29 %
Sensor: Nr:Datum:Temp:Feuchte:
Aussen-T/F 551 05-04-2019 14:09:17 8.4 C 28 %
552 05-04-2019 14:21:17 8.4 C 29 %
553 05-04-2019 14:33:17 8.4 C 29 %
554 05-04-2019 14:45:17 8.4 C 29 %
555 05-04-2019 14:57:17 8.2 C 29 %
556 05-04-2019 15:09:18 8.3 C 30 %
557 05-04-2019 15:21:17 8.3 C 29 %
558 05-04-2019 15:33:17 8.5 C 30 %
559 05-04-2019 15:45:17 8.4 C 30 %
560 05-04-2019 15:57:17 8.4 C 30 %
561 05-04-2019 16:09:17 8.4 C 30 %
562 05-04-2019 16:21:17 8.4 C 30 %
563 05-04-2019 16:33:17 8.2 C 31 %
564 05-04-2019 16:45:17 8.1 C 31 %
565 05-04-2019 16:57:17 8.1 C 32 %
566 05-04-2019 17:09:17 8.1 C 32 %
567 05-04-2019 17:21:17 8.1 C 33 %
568 05-04-2019 17:33:17 8.1 C 34 %
569 05-04-2019 17:45:18 8 C 35 %
570 05-04-2019 17:57:18 7.9 C 35 %
571 05-04-2019 18:09:17 7.9 C 36 %
572 05-04-2019 18:21:17 7.9 C 36 %
573 05-04-2019 18:33:17 7.9 C 37 %
574 05-04-2019 18:45:17 7.8 C 37 %
575 05-04-2019 18:57:17 7.8 C 38 %
Sensor: Nr:Datum:Temp:Feuchte:
Aussen-T/F 576 05-04-2019 19:09:17 7.8 C 39 %
577 05-04-2019 19:21:17 7.6 C 40 %
578 05-04-2019 19:33:17 7.5 C 41 %
579 05-04-2019 19:45:17 7.4 C 41 %
580 05-04-2019 19:57:17 7.4 C 43 %
581 05-04-2019 20:09:17 7.2 C 44 %
582 05-04-2019 20:21:17 7.1 C 46 %
583 05-04-2019 20:33:18 7.1 C 46 %
584 05-04-2019 20:45:17 7 C 48 %
585 05-04-2019 20:57:17 7.1 C 48 %
586 05-04-2019 21:09:17 7.1 C 48 %
587 05-04-2019 21:21:17 7.1 C 48 %
588 05-04-2019 21:33:17 6.9 C 49 %
589 05-04-2019 21:45:17 6.9 C 49 %
590 05-04-2019 21:57:17 7 C 49 %
591 05-04-2019 22:09:17 6.9 C 50 %
592 05-04-2019 22:21:17 6.9 C 50 %
593 05-04-2019 22:33:18 6.9 C 51 %
594 05-04-2019 22:45:18 6.9 C 51 %
595 05-04-2019 22:57:18 6.9 C 52 %
596 05-04-2019 23:09:17 6.8 C 52 %
597 05-04-2019 23:21:17 6.9 C 53 %
598 05-04-2019 23:33:17 6.8 C 53 %
599 05-04-2019 23:45:17 6.8 C 53 %
600 05-04-2019 23:57:17 6.8 C 53 %
Sensor: Nr:Datum:Temp:Feuchte:
Aussen-T/F 601 06-04-2019 00:09:17 6.7 C 53 %
602 06-04-2019 00:21:17 6.6 C 53 %
603 06-04-2019 00:33:17 6.6 C 53 %
604 06-04-2019 00:45:17 6.7 C 53 %
605 06-04-2019 00:57:17 6.7 C 53 %
606 06-04-2019 01:09:18 6.7 C 53 %
607 06-04-2019 01:21:17 6.8 C 53 %
608 06-04-2019 01:33:17 6.8 C 53 %
609 06-04-2019 01:45:17 6.7 C 53 %
610 06-04-2019 01:57:17 6.7 C 53 %
611 06-04-2019 02:09:17 6.7 C 53 %
612 06-04-2019 02:21:17 6.7 C 53 %
613 06-04-2019 02:33:17 6.3 C 53 %
614 06-04-2019 02:45:17 6.1 C 53 %
615 06-04-2019 02:57:17 6 C 54 %
616 06-04-2019 03:09:17 5.6 C 55 %
617 06-04-2019 03:21:17 5.1 C 55 %
618 06-04-2019 03:33:18 5 C 56 %
619 06-04-2019 03:45:18 4.9 C 59 %
620 06-04-2019 03:57:18 4.6 C 60 %
621 06-04-2019 04:09:17 4.4 C 61 %
622 06-04-2019 04:21:17 4.3 C 63 %
623 06-04-2019 04:33:17 4.1 C 63 %
624 06-04-2019 04:45:17 4 C 64 %
625 06-04-2019 04:57:17 4.1 C 67 %
Sensor: Nr:Datum:Temp:Feuchte:
Aussen-T/F 626 06-04-2019 05:09:17 4.3 C 70 %
627 06-04-2019 05:21:17 4.2 C 70 %
628 06-04-2019 05:33:17 4 C 69 %
629 06-04-2019 05:45:17 4 C 70 %
630 06-04-2019 05:57:17 3.7 C 69 %
631 06-04-2019 06:09:17 3.3 C 67 %
632 06-04-2019 06:21:17 3.3 C 68 %
633 06-04-2019 06:33:17 3.5 C 71 %
634 06-04-2019 06:45:17 3.8 C 72 %
635 06-04-2019 06:57:17 4 C 72 %
636 06-04-2019 07:09:17 4.1 C 72 %
637 06-04-2019 07:21:17 4.5 C 73 %
638 06-04-2019 07:33:17 4.7 C 73 %
639 06-04-2019 07:45:17 5.1 C 73 %
640 06-04-2019 07:57:17 5.1 C 71 %
641 06-04-2019 08:09:17 5.3 C 71 %
642 06-04-2019 08:21:17 5.3 C 70 %
643 06-04-2019 08:33:18 5.5 C 70 %
644 06-04-2019 08:45:18 5.4 C 68 %
645 06-04-2019 08:57:18 5.4 C 67 %
646 06-04-2019 09:09:17 5.5 C 67 %
647 06-04-2019 09:21:17 5.6 C 65 %
648 06-04-2019 09:33:17 5.7 C 62 %
649 06-04-2019 09:45:17 6 C 62 %
650 06-04-2019 09:57:17 6 C 63 %
Sensor: Nr:Datum:Temp:Feuchte:
Aussen-T/F 651 06-04-2019 10:09:17 6.6 C 63 %
652 06-04-2019 10:21:18 6.9 C 62 %
653 06-04-2019 10:33:17 7.4 C 64 %
654 06-04-2019 10:45:17 8.3 C 58 %
655 06-04-2019 10:57:17 9.5 C 56 %
656 06-04-2019 11:09:17 9.8 C 41 %
657 06-04-2019 11:21:17 11.1 C 29 %
658 06-04-2019 11:33:17 12.6 C 21 %
659 06-04-2019 11:45:17 12.8 C 20 %
660 06-04-2019 11:57:17 13.1 C 20 %
661 06-04-2019 12:09:17 13 C 20 %
662 06-04-2019 12:21:17 13.9 C 20 %
663 06-04-2019 12:33:17 13.5 C 20 %
664 06-04-2019 12:45:17 14 C 20 %
665 06-04-2019 12:57:17 13.6 C 20 %
666 06-04-2019 13:09:17 14.1 C 20 %
667 06-04-2019 13:21:18 14.4 C 20 %
668 06-04-2019 13:33:18 15 C 20 %
669 06-04-2019 13:45:17 15.2 C 20 %
670 06-04-2019 13:57:18 15.2 C 20 %
671 06-04-2019 14:09:17 15.8 C 20 %
672 06-04-2019 14:21:17 16.5 C 20 %
673 06-04-2019 14:33:18 17.4 C 20 %
674 06-04-2019 14:45:18 16.7 C 20 %
675 06-04-2019 14:57:18 16.5 C 20 %
Sensor: Nr:Datum:Temp:Feuchte:
Aussen-T/F 676 06-04-2019 15:09:17 16.6 C 20 %
677 06-04-2019 15:21:17 15.9 C 20 %
678 06-04-2019 15:33:17 16 C 20 %
679 06-04-2019 15:45:17 15.8 C 20 %
680 06-04-2019 15:57:17 15.6 C 20 %
681 06-04-2019 16:09:17 15.8 C 20 %
682 06-04-2019 16:21:17 16.2 C 20 %
683 06-04-2019 16:33:18 16.1 C 20 %
684 06-04-2019 16:45:17 16.1 C 20 %
685 06-04-2019 16:57:18 16.4 C 20 %
686 06-04-2019 17:09:17 16.4 C 20 %
687 06-04-2019 17:21:17 16.4 C 20 %
688 06-04-2019 17:33:18 16.6 C 20 %
689 06-04-2019 17:45:17 16.8 C 20 %
690 06-04-2019 17:57:18 17 C 20 %
691 06-04-2019 18:09:18 18.1 C 20 %
692 06-04-2019 18:21:17 18.2 C 20 %
693 06-04-2019 18:33:17 17.5 C 20 %
694 06-04-2019 18:45:17 19.2 C 20 %
695 06-04-2019 18:57:17 19.9 C 20 %
696 06-04-2019 19:09:17 17.1 C 20 %
697 06-04-2019 19:21:17 16 C 20 %
698 06-04-2019 19:33:17 15.3 C 20 %
699 06-04-2019 19:45:17 13.4 C 20 %
700 06-04-2019 19:57:17 12.7 C 21 %
Sensor: Nr:Datum:Temp:Feuchte:
Aussen-T/F 701 06-04-2019 20:09:17 11.9 C 25 %
702 06-04-2019 20:21:17 11.4 C 26 %
703 06-04-2019 20:33:17 11.2 C 27 %
704 06-04-2019 20:45:17 10.7 C 28 %
705 06-04-2019 20:57:17 10.5 C 30 %
706 06-04-2019 21:09:17 10.4 C 30 %
707 06-04-2019 21:21:17 10.1 C 32 %
708 06-04-2019 21:33:17 10.1 C 33 %
709 06-04-2019 21:45:17 9.5 C 34 %
710 06-04-2019 21:57:17 9.1 C 35 %
711 06-04-2019 22:09:17 8.9 C 37 %
712 06-04-2019 22:21:18 9 C 38 %
713 06-04-2019 22:33:17 8.6 C 39 %
714 06-04-2019 22:45:17 8.7 C 41 %
715 06-04-2019 22:57:17 8.7 C 41 %
716 06-04-2019 23:09:17 8.6 C 41 %
717 06-04-2019 23:21:17 8.6 C 42 %
718 06-04-2019 23:33:17 8.5 C 41 %
719 06-04-2019 23:45:17 7.8 C 41 %
720 06-04-2019 23:57:17 7.5 C 43 %
721 07-04-2019 00:09:18 7.4 C 45 %
722 07-04-2019 00:21:17 7.4 C 46 %
723 07-04-2019 00:33:17 7.1 C 46 %
724 07-04-2019 00:45:17 7.2 C 47 %
725 07-04-2019 00:57:17 6.8 C 47 %
Sensor: Nr:Datum:Temp:Feuchte:
Aussen-T/F 726 07-04-2019 01:09:17 6.7 C 47 %
727 07-04-2019 01:21:17 6.6 C 49 %
728 07-04-2019 01:33:17 6.4 C 50 %
729 07-04-2019 01:45:17 6.5 C 50 %
730 07-04-2019 01:57:17 6.4 C 50 %
731 07-04-2019 02:09:17 6.1 C 50 %
732 07-04-2019 02:21:17 6 C 50 %
733 07-04-2019 02:33:17 6 C 51 %
734 07-04-2019 02:45:17 5.9 C 52 %
735 07-04-2019 02:57:17 5.9 C 52 %
736 07-04-2019 03:09:17 5.6 C 52 %
737 07-04-2019 03:21:17 5.6 C 52 %
738 07-04-2019 03:33:18 5.6 C 52 %
739 07-04-2019 03:45:18 5.5 C 52 %
740 07-04-2019 03:57:18 5.2 C 52 %
741 07-04-2019 04:09:17 4.9 C 53 %
742 07-04-2019 04:21:17 4.8 C 53 %
743 07-04-2019 04:33:17 4.8 C 54 %
744 07-04-2019 04:45:17 4.8 C 54 %
745 07-04-2019 04:57:17 4.8 C 54 %
746 07-04-2019 05:09:17 4.6 C 54 %
747 07-04-2019 05:21:17 4.4 C 54 %
748 07-04-2019 05:33:17 4.3 C 55 %
749 07-04-2019 05:45:17 4.4 C 56 %
750 07-04-2019 05:57:17 4.3 C 56 %
Sensor: Nr:Datum:Temp:Feuchte:
Aussen-T/F 751 07-04-2019 06:09:17 4.2 C 56 %
752 07-04-2019 06:21:17 4.3 C 57 %
753 07-04-2019 06:33:18 4.1 C 57 %
754 07-04-2019 06:45:17 4 C 57 %
755 07-04-2019 06:57:17 3.8 C 57 %
756 07-04-2019 07:09:17 3.6 C 59 %
757 07-04-2019 07:21:17 3.6 C 60 %
758 07-04-2019 07:33:17 3.6 C 62 %
759 07-04-2019 07:45:17 3.8 C 63 %
760 07-04-2019 07:57:17 4.2 C 65 %
761 07-04-2019 08:09:17 4.2 C 64 %
762 07-04-2019 08:21:17 4.4 C 64 %
763 07-04-2019 08:33:17 4.6 C 65 %
764 07-04-2019 08:45:17 4.8 C 65 %
765 07-04-2019 08:57:17 5 C 65 %
766 07-04-2019 09:09:17 5.2 C 65 %
767 07-04-2019 09:21:17 5.4 C 66 %
768 07-04-2019 09:33:17 5.6 C 66 %
769 07-04-2019 09:45:17 6 C 67 %
770 07-04-2019 09:57:17 6.4 C 67 %
771 07-04-2019 10:09:17 6.9 C 68 %
772 07-04-2019 10:21:17 7.3 C 68 %
773 07-04-2019 10:33:18 8.6 C 68 %
774 07-04-2019 10:45:17 9.7 C 60 %
775 07-04-2019 10:57:17 11.2 C 45 %
Sensor: Nr:Datum:Temp:Feuchte:
Aussen-T/F 776 07-04-2019 11:09:17 13.2 C 25 %
777 07-04-2019 11:21:17 14 C 20 %
778 07-04-2019 11:33:17 15.3 C 20 %
779 07-04-2019 11:45:17 15.4 C 20 %
780 07-04-2019 11:57:17 16.2 C 20 %
781 07-04-2019 12:09:17 16.8 C 20 %
782 07-04-2019 12:21:17 16.1 C 20 %
783 07-04-2019 12:33:17 16.1 C 20 %
784 07-04-2019 12:45:17 16.3 C 20 %
785 07-04-2019 12:57:17 16.1 C 20 %
786 07-04-2019 13:09:17 16.1 C 20 %
787 07-04-2019 13:21:18 16.4 C 20 %
788 07-04-2019 13:33:18 17 C 20 %
789 07-04-2019 13:45:17 17 C 20 %
790 07-04-2019 13:57:17 17.4 C 20 %
791 07-04-2019 14:09:17 17.7 C 20 %
792 07-04-2019 14:21:17 17.9 C 20 %
793 07-04-2019 14:33:17 18.4 C 20 %
794 07-04-2019 14:45:17 18.4 C 20 %
795 07-04-2019 14:57:17 18.9 C 20 %
796 07-04-2019 15:09:18 18.8 C 20 %
797 07-04-2019 15:21:17 19.1 C 20 %
798 07-04-2019 15:33:18 19.6 C 20 %
799 07-04-2019 15:45:18 19.5 C 20 %
800 07-04-2019 15:57:18 19.8 C 20 %
Sensor: Nr:Datum:Temp:Feuchte:
Aussen-T/F 801 07-04-2019 16:09:17 19.8 C 20 %
802 07-04-2019 16:21:17 20.1 C 20 %
803 07-04-2019 16:33:17 20.3 C 20 %
804 07-04-2019 16:45:17 20.7 C 20 %
805 07-04-2019 16:57:17 20.8 C 20 %
806 07-04-2019 17:09:17 21.1 C 20 %
807 07-04-2019 17:21:17 20.7 C 20 %
808 07-04-2019 17:33:17 21.3 C 20 %
809 07-04-2019 17:45:17 20.4 C 20 %
810 07-04-2019 17:57:17 20.2 C 20 %
811 07-04-2019 18:09:17 19.7 C 20 %
812 07-04-2019 18:21:17 19.1 C 20 %
813 07-04-2019 18:33:17 18.7 C 20 %
814 07-04-2019 18:45:17 18.2 C 20 %
815 07-04-2019 18:57:17 17.6 C 20 %
816 07-04-2019 19:09:18 17.1 C 20 %
817 07-04-2019 19:21:17 16.3 C 20 %
818 07-04-2019 19:33:17 15.7 C 20 %
819 07-04-2019 19:45:17 15.3 C 20 %
820 07-04-2019 19:57:17 14.8 C 20 %
821 07-04-2019 20:09:17 14.7 C 20 %
822 07-04-2019 20:21:17 14.4 C 20 %
823 07-04-2019 20:33:18 14.3 C 20 %
824 07-04-2019 20:45:18 14.2 C 20 %
825 07-04-2019 20:57:18 14.1 C 20 %
Sensor: Nr:Datum:Temp:Feuchte:
Aussen-T/F 826 07-04-2019 21:09:17 14.1 C 20 %
827 07-04-2019 21:21:17 13.8 C 20 %
828 07-04-2019 21:33:17 13.8 C 20 %
829 07-04-2019 21:45:17 13.7 C 20 %
830 07-04-2019 21:57:17 13.4 C 20 %
831 07-04-2019 22:09:18 13.2 C 20 %
832 07-04-2019 22:21:17 13.3 C 20 %
833 07-04-2019 22:33:17 13.4 C 20 %
834 07-04-2019 22:45:17 13.1 C 20 %
835 07-04-2019 22:57:17 12.9 C 20 %
836 07-04-2019 23:09:18 12.7 C 21 %
837 07-04-2019 23:21:17 12.7 C 23 %
838 07-04-2019 23:33:17 12.5 C 25 %
839 07-04-2019 23:45:17 12.5 C 25 %
840 07-04-2019 23:57:18 12.3 C 26 %
841 08-04-2019 00:09:17 12.2 C 26 %
842 08-04-2019 00:21:17 12.2 C 26 %
843 08-04-2019 00:33:17 12.1 C 27 %
844 08-04-2019 00:45:17 12 C 27 %
845 08-04-2019 00:57:17 11.9 C 29 %
846 08-04-2019 01:09:17 11.8 C 30 %
847 08-04-2019 01:21:17 11.7 C 30 %
848 08-04-2019 01:33:17 11.7 C 30 %
849 08-04-2019 01:45:17 11.6 C 30 %
850 08-04-2019 01:57:17 11.4 C 30 %
Sensor: Nr:Datum:Temp:Feuchte:
Aussen-T/F 851 08-04-2019 02:09:17 11.2 C 31 %
852 08-04-2019 02:21:17 11.2 C 31 %
853 08-04-2019 02:33:17 11.2 C 31 %
854 08-04-2019 02:45:17 11.1 C 32 %
855 08-04-2019 02:57:18 11.1 C 31 %
856 08-04-2019 03:09:17 11.2 C 31 %
857 08-04-2019 03:21:17 11 C 31 %
858 08-04-2019 03:33:17 10.8 C 33 %
859 08-04-2019 03:45:17 10.7 C 34 %
860 08-04-2019 03:57:17 10.7 C 34 %
861 08-04-2019 04:09:17 10.7 C 35 %
862 08-04-2019 04:21:18 10.7 C 34 %
863 08-04-2019 04:33:18 10.6 C 35 %
864 08-04-2019 04:45:18 10.6 C 35 %
865 08-04-2019 04:57:18 10.5 C 35 %
866 08-04-2019 05:09:18 10.5 C 36 %
867 08-04-2019 05:21:17 10.5 C 36 %
868 08-04-2019 05:33:17 10.4 C 36 %
869 08-04-2019 05:45:17 10.4 C 36 %
870 08-04-2019 05:57:17 10.4 C 37 %
871 08-04-2019 06:09:18 10.2 C 37 %
872 08-04-2019 06:21:17 10 C 38 %
873 08-04-2019 06:33:18 9.7 C 39 %
874 08-04-2019 06:45:17 9.5 C 40 %
875 08-04-2019 06:57:17 9.2 C 40 %
Sensor: Nr:Datum:Temp:Feuchte:
Aussen-T/F 876 08-04-2019 07:09:17 9 C 41 %
877 08-04-2019 07:21:17 9 C 42 %
878 08-04-2019 07:33:17 9.1 C 43 %
879 08-04-2019 07:45:18 9.4 C 44 %
880 08-04-2019 07:57:18 9.9 C 44 %
881 08-04-2019 08:09:17 9.8 C 43 %
882 08-04-2019 08:21:17 9.9 C 43 %
883 08-04-2019 08:33:17 10.5 C 43 %
884 08-04-2019 08:45:18 11.1 C 40 %
885 08-04-2019 08:57:18 11.4 C 36 %
886 08-04-2019 09:09:17 11.5 C 36 %
887 08-04-2019 09:21:17 11.7 C 32 %
888 08-04-2019 09:33:17 11.6 C 32 %
889 08-04-2019 09:45:17 11.8 C 32 %
890 08-04-2019 09:57:17 12.2 C 30 %
891 08-04-2019 10:09:17 12.8 C 29 %
892 08-04-2019 10:21:17 12.9 C 27 %
893 08-04-2019 10:33:17 13.1 C 26 %
894 08-04-2019 10:45:17 13.2 C 26 %
895 08-04-2019 10:57:17 13.4 C 26 %
896 08-04-2019 11:09:17 13.7 C 26 %
897 08-04-2019 11:21:17 13.6 C 25 %
898 08-04-2019 11:33:17 13.6 C 25 %
899 08-04-2019 11:45:17 13.4 C 25 %
900 08-04-2019 11:57:17 13.3 C 26 %
Sensor: Nr:Datum:Temp:Feuchte:
Aussen-T/F 901 08-04-2019 12:09:17 13 C 26 %
902 08-04-2019 12:21:18 13 C 26 %
903 08-04-2019 12:33:18 13.1 C 27 %
904 08-04-2019 12:45:17 13.2 C 27 %
905 08-04-2019 12:57:17 13.1 C 27 %
906 08-04-2019 13:09:17 13.3 C 27 %
907 08-04-2019 13:21:17 13.4 C 27 %
908 08-04-2019 13:33:17 13.8 C 26 %
909 08-04-2019 13:45:17 14.4 C 25 %
910 08-04-2019 13:57:17 15 C 21 %
911 08-04-2019 14:09:17 15.6 C 21 %
912 08-04-2019 14:21:17 16 C 20 %
913 08-04-2019 14:33:17 16.7 C 20 %
914 08-04-2019 14:45:17 17 C 20 %
915 08-04-2019 14:57:17 16.5 C 20 %
916 08-04-2019 15:09:17 17.1 C 20 %
917 08-04-2019 15:21:17 17.4 C 20 %
918 08-04-2019 15:33:18 17.7 C 20 %
919 08-04-2019 15:45:18 18.7 C 20 %
920 08-04-2019 15:57:18 17.7 C 20 %
921 08-04-2019 16:09:17 17.8 C 20 %
922 08-04-2019 16:21:17 17.5 C 20 %
923 08-04-2019 16:33:17 17.1 C 20 %
924 08-04-2019 16:45:17 16.3 C 20 %
925 08-04-2019 16:57:17 15.5 C 20 %
Sensor: Nr:Datum:Temp:Feuchte:
Aussen-T/F 926 08-04-2019 17:09:17 13.7 C 30 %
927 08-04-2019 17:21:17 13.6 C 36 %
928 08-04-2019 17:33:18 13.4 C 40 %
929 08-04-2019 17:45:17 13.4 C 40 %
930 08-04-2019 17:57:17 13.6 C 40 %
931 08-04-2019 18:09:17 13.7 C 40 %
932 08-04-2019 18:21:17 13.8 C 33 %
933 08-04-2019 18:33:17 13.8 C 35 %
934 08-04-2019 18:45:17 14 C 35 %
935 08-04-2019 18:57:17 13.8 C 35 %
936 08-04-2019 19:09:18 13.5 C 35 %
937 08-04-2019 19:21:17 13.2 C 35 %
938 08-04-2019 19:33:17 12.7 C 36 %
939 08-04-2019 19:45:17 12.5 C 40 %
940 08-04-2019 19:57:17 12.4 C 40 %
941 08-04-2019 20:09:17 12.2 C 41 %
942 08-04-2019 20:21:17 12.5 C 40 %
943 08-04-2019 20:33:17 12.1 C 40 %
944 08-04-2019 20:45:17 12 C 41 %
945 08-04-2019 20:57:17 11.4 C 46 %
946 08-04-2019 21:09:17 11 C 48 %
947 08-04-2019 21:21:17 10.7 C 50 %
948 08-04-2019 21:33:18 10.5 C 51 %
949 08-04-2019 21:45:18 10.6 C 51 %
950 08-04-2019 21:57:18 10.5 C 51 %
Sensor: Nr:Datum:Temp:Feuchte:
Aussen-T/F 951 08-04-2019 22:09:18 10.4 C 51 %
952 08-04-2019 22:21:17 10.4 C 51 %
953 08-04-2019 22:33:17 10.4 C 51 %
954 08-04-2019 22:45:17 10.5 C 51 %
955 08-04-2019 22:57:17 10.4 C 50 %
956 08-04-2019 23:09:17 10.4 C 51 %
957 08-04-2019 23:21:17 10.4 C 51 %
958 08-04-2019 23:33:17 10.4 C 50 %
959 08-04-2019 23:45:17 10.1 C 50 %
960 08-04-2019 23:57:17 9.8 C 50 %
961 09-04-2019 00:09:17 9.5 C 50 %
962 09-04-2019 00:21:17 9.5 C 50 %
963 09-04-2019 00:33:17 9.3 C 51 %
964 09-04-2019 00:45:18 9 C 51 %
965 09-04-2019 00:57:18 9 C 51 %
966 09-04-2019 01:09:18 9.3 C 53 %
967 09-04-2019 01:21:17 9.5 C 55 %
968 09-04-2019 01:33:17 9.6 C 56 %
969 09-04-2019 01:45:17 9.8 C 58 %
970 09-04-2019 01:57:17 9.7 C 58 %
971 09-04-2019 02:09:17 9.7 C 59 %
972 09-04-2019 02:21:17 9.9 C 61 %
973 09-04-2019 02:33:17 9.9 C 62 %
974 09-04-2019 02:45:17 9.8 C 60 %
975 09-04-2019 02:57:17 9.7 C 60 %
Sensor: Nr:Datum:Temp:Feuchte:
Aussen-T/F 976 09-04-2019 03:09:17 9.6 C 59 %
977 09-04-2019 03:21:17 9.5 C 58 %
978 09-04-2019 03:33:17 9.2 C 56 %
979 09-04-2019 03:45:17 9 C 57 %
980 09-04-2019 03:57:17 9.1 C 61 %
981 09-04-2019 04:09:18 9.3 C 64 %
982 09-04-2019 04:21:17 9.2 C 62 %
983 09-04-2019 04:33:17 8.6 C 58 %
984 09-04-2019 04:45:17 8.4 C 58 %
985 09-04-2019 04:57:17 8.3 C 58 %
986 09-04-2019 05:09:17 8.1 C 60 %
987 09-04-2019 05:21:17 7.9 C 61 %
988 09-04-2019 05:33:18 7.9 C 63 %
989 09-04-2019 05:45:18 8.1 C 65 %
990 09-04-2019 05:57:18 8.1 C 66 %
991 09-04-2019 06:09:18 8.1 C 66 %
992 09-04-2019 06:21:18 8.2 C 67 %
993 09-04-2019 06:33:18 8.2 C 67 %
994 09-04-2019 06:45:18 8.4 C 68 %
995 09-04-2019 06:57:18 8.5 C 69 %
996 09-04-2019 07:09:17 8.6 C 68 %
997 09-04-2019 07:21:17 8.8 C 69 %
998 09-04-2019 07:33:18 9 C 68 %
999 09-04-2019 07:45:18 9.2 C 68 %
1000 09-04-2019 07:57:18 9.3 C 67 %
Sensor: Nr:Datum:Temp:Feuchte:
Aussen-T/F 1001 09-04-2019 08:09:17 9.2 C 65 %
1002 09-04-2019 08:21:17 9.5 C 65 %
1003 09-04-2019 08:33:17 9.7 C 64 %
1004 09-04-2019 08:45:17 10 C 64 %
1005 09-04-2019 08:57:17 10.1 C 58 %
1006 09-04-2019 09:09:17 10.5 C 54 %
1007 09-04-2019 09:21:17 10.3 C 49 %
1008 09-04-2019 09:33:17 10.5 C 47 %
1009 09-04-2019 09:45:17 10.7 C 45 %
1010 09-04-2019 09:57:17 11.1 C 43 %
1011 09-04-2019 10:09:17 11.4 C 42 %
1012 09-04-2019 10:21:17 11.6 C 40 %
1013 09-04-2019 10:33:17 11.9 C 39 %
1014 09-04-2019 10:45:17 11.7 C 36 %
1015 09-04-2019 10:57:17 11.7 C 36 %
1016 09-04-2019 11:09:17 12 C 37 %
1017 09-04-2019 11:21:17 12.2 C 36 %
1018 09-04-2019 11:33:18 12.3 C 36 %
1019 09-04-2019 11:45:17 12.5 C 36 %
1020 09-04-2019 11:57:17 12.5 C 36 %
1021 09-04-2019 12:09:17 13 C 34 %
1022 09-04-2019 12:21:17 13.2 C 34 %
1023 09-04-2019 12:33:17 14.1 C 30 %
1024 09-04-2019 12:45:17 14.4 C 30 %
1025 09-04-2019 12:57:17 15 C 27 %
Sensor: Nr:Datum:Temp:Feuchte:
Aussen-T/F 1026 09-04-2019 13:09:17 15.1 C 26 %
1027 09-04-2019 13:21:17 15 C 26 %
1028 09-04-2019 13:33:17 15.2 C 27 %
1029 09-04-2019 13:45:17 16 C 25 %
1030 09-04-2019 13:57:17 16.5 C 24 %
1031 09-04-2019 14:09:17 16.5 C 22 %
1032 09-04-2019 14:21:17 16.8 C 22 %
1033 09-04-2019 14:33:17 17 C 20 %
1034 09-04-2019 14:45:17 17.7 C 20 %
1035 09-04-2019 14:57:17 17.4 C 20 %
1036 09-04-2019 15:09:17 16.8 C 20 %
1037 09-04-2019 15:21:18 16.4 C 20 %
1038 09-04-2019 15:33:17 16.6 C 21 %
1039 09-04-2019 15:45:17 16.4 C 20 %
1040 09-04-2019 15:57:17 16.4 C 21 %
1041 09-04-2019 16:09:17 16.2 C 22 %
1042 09-04-2019 16:21:17 16 C 23 %
1043 09-04-2019 16:33:17 16.1 C 22 %
1044 09-04-2019 16:45:17 16.3 C 22 %
1045 09-04-2019 16:57:17 15.9 C 22 %
1046 09-04-2019 17:09:17 15.8 C 24 %
1047 09-04-2019 17:21:17 15.7 C 25 %
1048 09-04-2019 17:33:17 15.4 C 25 %
1049 09-04-2019 17:45:17 15.2 C 25 %
1050 09-04-2019 17:57:18 14.9 C 28 %
Sensor: Nr:Datum:Temp:Feuchte:
Aussen-T/F 1051 09-04-2019 18:09:17 14.8 C 30 %
1052 09-04-2019 18:21:17 14.8 C 31 %
1053 09-04-2019 18:33:17 14.8 C 31 %
1054 09-04-2019 18:45:17 14.7 C 31 %
1055 09-04-2019 18:57:17 14.5 C 31 %
1056 09-04-2019 19:09:17 14.2 C 30 %
1057 09-04-2019 19:21:17 14 C 30 %
1058 09-04-2019 19:33:18 13.8 C 30 %
1059 09-04-2019 19:45:17 14 C 27 %
1060 09-04-2019 19:57:17 13.6 C 27 %
1061 09-04-2019 20:09:17 13.6 C 27 %
1062 09-04-2019 20:21:17 13.1 C 30 %
1063 09-04-2019 20:33:17 12.8 C 31 %
1064 09-04-2019 20:45:17 12.6 C 32 %
1065 09-04-2019 20:57:17 12.3 C 33 %
1066 09-04-2019 21:09:17 12.1 C 34 %
1067 09-04-2019 21:21:17 11.9 C 33 %
1068 09-04-2019 21:33:17 11.7 C 31 %
1069 09-04-2019 21:45:17 11.7 C 30 %
1070 09-04-2019 21:57:17 11.8 C 32 %
1071 09-04-2019 22:09:17 12 C 24 %
1072 09-04-2019 22:21:18 12.3 C 20 %
1073 09-04-2019 22:33:18 12.3 C 20 %
1074 09-04-2019 22:45:18 12.2 C 20 %
1075 09-04-2019 22:57:18 12 C 20 %
Sensor: Nr:Datum:Temp:Feuchte:
Aussen-T/F 1076 09-04-2019 23:09:18 12.1 C 20 %
1077 09-04-2019 23:21:17 11.9 C 20 %
1078 09-04-2019 23:33:17 11.8 C 20 %
1079 09-04-2019 23:45:17 11.7 C 20 %
1080 09-04-2019 23:57:17 11.1 C 20 %
1081 10-04-2019 00:09:17 10.7 C 26 %
1082 10-04-2019 00:21:17 10.1 C 30 %
1083 10-04-2019 00:33:18 9.8 C 31 %
1084 10-04-2019 00:45:17 10 C 28 %
1085 10-04-2019 00:57:17 9.9 C 28 %
1086 10-04-2019 01:09:17 10.2 C 25 %
1087 10-04-2019 01:21:17 10.2 C 25 %
1088 10-04-2019 01:33:17 10.2 C 22 %
1089 10-04-2019 01:45:17 10.1 C 25 %
1090 10-04-2019 01:57:17 9.7 C 28 %
1091 10-04-2019 02:09:17 9.4 C 29 %
1092 10-04-2019 02:21:17 9.5 C 28 %
1093 10-04-2019 02:33:18 9.5 C 29 %
1094 10-04-2019 02:45:17 9.5 C 27 %
1095 10-04-2019 02:57:17 9.5 C 27 %
1096 10-04-2019 03:09:17 9.6 C 26 %
1097 10-04-2019 03:21:17 9.5 C 25 %
1098 10-04-2019 03:33:17 9.4 C 25 %
1099 10-04-2019 03:45:17 9.1 C 27 %
1100 10-04-2019 03:57:17 8.8 C 27 %
Sensor: Nr:Datum:Temp:Feuchte:
Aussen-T/F 1101 10-04-2019 04:09:17 8.3 C 30 %
1102 10-04-2019 04:21:17 7.9 C 31 %
1103 10-04-2019 04:33:17 7.5 C 34 %
1104 10-04-2019 04:45:17 7.3 C 35 %
1105 10-04-2019 04:57:17 7.1 C 36 %
1106 10-04-2019 05:09:17 7.1 C 35 %
1107 10-04-2019 05:21:17 6.9 C 35 %
1108 10-04-2019 05:33:17 6.4 C 36 %
1109 10-04-2019 05:45:17 6.1 C 37 %
1110 10-04-2019 05:57:17 5.8 C 39 %
1111 10-04-2019 06:09:18 5.9 C 40 %
1112 10-04-2019 06:21:17 5.8 C 40 %
1113 10-04-2019 06:33:17 5.8 C 38 %
1114 10-04-2019 06:45:17 5.9 C 36 %
1115 10-04-2019 06:57:17 5.8 C 36 %
1116 10-04-2019 07:09:17 5.9 C 35 %
1117 10-04-2019 07:21:17 6.1 C 34 %
1118 10-04-2019 07:33:17 6.2 C 33 %
1119 10-04-2019 07:45:17 6.4 C 34 %
1120 10-04-2019 07:57:17 6.8 C 29 %
1121 10-04-2019 08:09:17 7.2 C 25 %
1122 10-04-2019 08:21:17 7.6 C 20 %
1123 10-04-2019 08:33:18 7.9 C 20 %
1124 10-04-2019 08:45:17 8 C 20 %
1125 10-04-2019 08:57:18 8.1 C 20 %
Sensor: Nr:Datum:Temp:Feuchte:
Aussen-T/F 1126 10-04-2019 09:09:18 8.2 C 20 %
1127 10-04-2019 09:21:17 8.3 C 20 %
1128 10-04-2019 09:33:17 8.4 C 20 %
1129 10-04-2019 09:45:17 8.7 C 20 %
1130 10-04-2019 09:57:17 8.9 C 20 %
1131 10-04-2019 10:09:17 9.4 C 20 %
1132 10-04-2019 10:21:17 9.4 C 20 %
1133 10-04-2019 10:33:17 9.6 C 20 %
1134 10-04-2019 10:45:17 10.2 C 20 %
1135 10-04-2019 10:57:17 10.8 C 20 %
1136 10-04-2019 11:09:17 11.4 C 20 %
1137 10-04-2019 11:21:17 11.5 C 20 %
1138 10-04-2019 11:33:18 12.2 C 20 %
1139 10-04-2019 11:45:18 12.3 C 20 %
1140 10-04-2019 11:57:18 12.5 C 20 %
1141 10-04-2019 12:09:17 12.4 C 20 %
1142 10-04-2019 12:21:17 12.5 C 20 %
1143 10-04-2019 12:33:17 12.8 C 20 %
1144 10-04-2019 12:45:17 13 C 20 %
1145 10-04-2019 12:57:17 13.2 C 20 %
1146 10-04-2019 13:09:17 13.5 C 20 %
1147 10-04-2019 13:21:17 13.6 C 20 %
1148 10-04-2019 13:33:18 14.1 C 20 %
1149 10-04-2019 13:45:17 14.1 C 20 %
1150 10-04-2019 13:57:17 14.1 C 20 %
Sensor: Nr:Datum:Temp:Feuchte:
Aussen-T/F 1151 10-04-2019 14:09:17 13.8 C 20 %
1152 10-04-2019 14:21:17 14 C 20 %
1153 10-04-2019 14:33:17 14.4 C 20 %
1154 10-04-2019 14:45:17 14.8 C 20 %
1155 10-04-2019 14:57:17 15 C 20 %
1156 10-04-2019 15:09:17 15.2 C 20 %
1157 10-04-2019 15:21:17 15.4 C 20 %
1158 10-04-2019 15:33:17 15.4 C 20 %
1159 10-04-2019 15:45:17 15.8 C 20 %
1160 10-04-2019 15:57:17 15.8 C 20 %
1161 10-04-2019 16:09:17 16.6 C 20 %
1162 10-04-2019 16:21:17 16.3 C 20 %
1163 10-04-2019 16:33:17 16.4 C 20 %
1164 10-04-2019 16:45:17 16.5 C 20 %
1165 10-04-2019 16:57:17 16.3 C 20 %
1166 10-04-2019 17:09:18 17.1 C 20 %
1167 10-04-2019 17:21:17 17.1 C 20 %
1168 10-04-2019 17:33:17 17.2 C 20 %
1169 10-04-2019 17:45:17 16.3 C 20 %
1170 10-04-2019 17:57:17 16.8 C 20 %
1171 10-04-2019 18:09:17 16.7 C 20 %
1172 10-04-2019 18:21:17 17 C 20 %
1173 10-04-2019 18:33:17 16.7 C 20 %
1174 10-04-2019 18:45:17 16.4 C 20 %
1175 10-04-2019 18:57:18 16.3 C 20 %
Sensor: Nr:Datum:Temp:Feuchte:
Aussen-T/F 1176 10-04-2019 19:09:17 14.8 C 20 %
1177 10-04-2019 19:21:17 14.2 C 20 %
1178 10-04-2019 19:33:17 13.8 C 20 %
1179 10-04-2019 19:45:17 13.5 C 20 %
1180 10-04-2019 19:57:17 12.9 C 20 %
1181 10-04-2019 20:09:17 11.8 C 20 %
1182 10-04-2019 20:21:17 11.3 C 20 %
1183 10-04-2019 20:33:17 10.1 C 20 %
1184 10-04-2019 20:45:17 9.6 C 20 %
1185 10-04-2019 20:57:17 9.3 C 20 %
1186 10-04-2019 21:09:17 8.6 C 20 %
1187 10-04-2019 21:21:18 8.2 C 20 %
1188 10-04-2019 21:33:17 7.7 C 20 %
1189 10-04-2019 21:45:17 7.4 C 20 %
1190 10-04-2019 21:57:17 7.3 C 20 %
1191 10-04-2019 22:09:17 7.1 C 20 %
1192 10-04-2019 22:21:17 6.6 C 20 %
1193 10-04-2019 22:33:18 6.3 C 20 %
1194 10-04-2019 22:45:17 6.3 C 21 %
1195 10-04-2019 22:57:17 6.1 C 21 %
1196 10-04-2019 23:09:17 5.8 C 23 %
1197 10-04-2019 23:21:18 5.8 C 21 %
1198 10-04-2019 23:33:18 5.8 C 21 %
1199 10-04-2019 23:45:17 5.6 C 23 %
1200 10-04-2019 23:57:17 5.4 C 25 %
Sensor: Nr:Datum:Temp:Feuchte:
Aussen-T/F 1201 11-04-2019 00:09:17 5.2 C 25 %
1202 11-04-2019 00:21:17 5 C 25 %
1203 11-04-2019 00:33:17 4.7 C 27 %
1204 11-04-2019 00:45:17 5 C 23 %
1205 11-04-2019 00:57:18 4.6 C 26 %
1206 11-04-2019 01:09:18 4.3 C 26 %
1207 11-04-2019 01:21:17 4.3 C 27 %
1208 11-04-2019 01:33:17 4.3 C 27 %
1209 11-04-2019 01:45:17 3.9 C 28 %
1210 11-04-2019 01:57:17 3.9 C 27 %
1211 11-04-2019 02:09:17 3.7 C 28 %
1212 11-04-2019 02:21:17 3.5 C 30 %
1213 11-04-2019 02:33:17 3.5 C 30 %
1214 11-04-2019 02:45:17 3.4 C 29 %
1215 11-04-2019 02:57:17 3.2 C 30 %
1216 11-04-2019 03:09:17 3.2 C 28 %
1217 11-04-2019 03:21:17 3.1 C 28 %
1218 11-04-2019 03:33:17 3 C 28 %
1219 11-04-2019 03:45:17 2.7 C 30 %
1220 11-04-2019 03:57:17 2.5 C 30 %
1221 11-04-2019 04:09:17 2.1 C 31 %
1222 11-04-2019 04:21:17 1.7 C 33 %
1223 11-04-2019 04:33:17 1.5 C 35 %
1224 11-04-2019 04:45:17 1.4 C 35 %
1225 11-04-2019 04:57:17 1.3 C 36 %
Sensor: Nr:Datum:Temp:Feuchte:
Aussen-T/F 1226 11-04-2019 05:09:18 1.1 C 37 %
1227 11-04-2019 05:21:17 1.3 C 37 %
1228 11-04-2019 05:33:17 1.3 C 36 %
1229 11-04-2019 05:45:18 1.1 C 36 %
1230 11-04-2019 05:57:18 0.9 C 37 %
1231 11-04-2019 06:09:17 0.8 C 38 %
1232 11-04-2019 06:21:17 0.6 C 38 %
1233 11-04-2019 06:33:17 0.6 C 40 %
1234 11-04-2019 06:45:17 0.6 C 40 %
1235 11-04-2019 06:57:17 0.3 C 39 %
1236 11-04-2019 07:09:17 0.3 C 40 %
1237 11-04-2019 07:21:17 0.2 C 41 %
1238 11-04-2019 07:33:17 0.2 C 42 %
1239 11-04-2019 07:45:17 0.4 C 42 %
1240 11-04-2019 07:57:17 0.8 C 41 %
1241 11-04-2019 08:09:17 1 C 39 %
1242 11-04-2019 08:21:18 1.1 C 38 %
1243 11-04-2019 08:33:18 1.3 C 38 %
1244 11-04-2019 08:45:18 1.5 C 38 %
1245 11-04-2019 08:57:18 2 C 36 %
1246 11-04-2019 09:09:17 2.4 C 32 %
1247 11-04-2019 09:21:17 4 C 20 %
1248 11-04-2019 09:33:17 4.4 C 20 %
1249 11-04-2019 09:45:17 5 C 20 %
1250 11-04-2019 09:57:17 5.4 C 20 %
Sensor: Nr:Datum:Temp:Feuchte:
Aussen-T/F 1251 11-04-2019 10:09:17 6.1 C 20 %
1252 11-04-2019 10:21:17 7.2 C 20 %
1253 11-04-2019 10:33:17 6.9 C 20 %
1254 11-04-2019 10:45:17 7.3 C 20 %
1255 11-04-2019 10:57:17 7.5 C 20 %
1256 11-04-2019 11:09:17 8.7 C 20 %
1257 11-04-2019 11:21:17 8 C 20 %
1258 11-04-2019 11:33:17 8.8 C 20 %
1259 11-04-2019 11:45:17 8.7 C 20 %
1260 11-04-2019 11:57:17 9 C 20 %
1261 11-04-2019 12:09:17 9.1 C 20 %
1262 11-04-2019 12:21:17 9 C 20 %
1263 11-04-2019 12:33:17 9 C 20 %
1264 11-04-2019 12:45:17 8.9 C 20 %
1265 11-04-2019 12:57:17 9.2 C 20 %
1266 11-04-2019 13:09:17 9.4 C 20 %
1267 11-04-2019 13:21:18 9.6 C 20 %
1268 11-04-2019 13:33:18 9.7 C 20 %
1269 11-04-2019 13:45:18 9.9 C 20 %
1270 11-04-2019 13:57:18 10.1 C 20 %
1271 11-04-2019 14:09:18 10.7 C 20 %
1272 11-04-2019 14:21:17 10.4 C 20 %
1273 11-04-2019 14:33:17 11.1 C 20 %
1274 11-04-2019 14:45:17 11.3 C 20 %
1275 11-04-2019 14:57:17 11.8 C 20 %
Sensor: Nr:Datum:Temp:Feuchte:
Aussen-T/F 1276 11-04-2019 15:09:17 12.2 C 20 %
1277 11-04-2019 15:21:17 12 C 20 %
1278 11-04-2019 15:33:17 12.7 C 20 %
1279 11-04-2019 15:45:17 12.1 C 20 %
1280 11-04-2019 15:57:17 12.5 C 20 %
1281 11-04-2019 16:09:17 12.9 C 20 %
1282 11-04-2019 16:21:18 12.7 C 20 %
1283 11-04-2019 16:33:18 13.1 C 20 %
1284 11-04-2019 16:45:18 13 C 20 %
1285 11-04-2019 16:57:18 12.8 C 20 %
1286 11-04-2019 17:09:17 13 C 20 %
1287 11-04-2019 17:21:17 13.1 C 20 %
1288 11-04-2019 17:33:18 13.7 C 20 %
1289 11-04-2019 17:45:17 13 C 20 %
1290 11-04-2019 17:57:18 13.9 C 20 %
1291 11-04-2019 18:09:17 13.3 C 20 %
1292 11-04-2019 18:21:17 13.3 C 20 %
1293 11-04-2019 18:33:17 14.1 C 20 %
1294 11-04-2019 18:45:17 15.7 C 20 %
1295 11-04-2019 18:57:17 14.4 C 20 %
1296 11-04-2019 19:09:17 12.5 C 20 %
1297 11-04-2019 19:21:17 11.8 C 20 %
1298 11-04-2019 19:33:17 11.2 C 20 %
1299 11-04-2019 19:45:17 10.7 C 20 %
1300 11-04-2019 19:57:17 10.2 C 20 %
Sensor: Nr:Datum:Temp:Feuchte:
Aussen-T/F 1301 11-04-2019 20:09:18 9.4 C 20 %
1302 11-04-2019 20:21:17 8.4 C 20 %
1303 11-04-2019 20:33:17 7.2 C 20 %
1304 11-04-2019 20:45:17 6.7 C 20 %
1305 11-04-2019 20:57:17 6.2 C 20 %
1306 11-04-2019 21:09:17 6 C 20 %
1307 11-04-2019 21:21:17 5.6 C 20 %
1308 11-04-2019 21:33:18 5.4 C 20 %
1309 11-04-2019 21:45:17 5.1 C 20 %
1310 11-04-2019 21:57:18 5 C 20 %
1311 11-04-2019 22:09:18 4.8 C 20 %
1312 11-04-2019 22:21:17 4.6 C 20 %
1313 11-04-2019 22:33:17 4.5 C 20 %
1314 11-04-2019 22:45:17 4.3 C 20 %
1315 11-04-2019 22:57:17 5.6 C 20 %
1316 11-04-2019 23:09:17 5.2 C 20 %
1317 11-04-2019 23:21:17 5.8 C 20 %
1318 11-04-2019 23:33:17 4.5 C 20 %
1319 11-04-2019 23:45:17 4.2 C 20 %
1320 11-04-2019 23:57:17 4.1 C 20 %
1321 12-04-2019 00:09:17 3.6 C 20 %
1322 12-04-2019 00:21:17 3.8 C 20 %
1323 12-04-2019 00:33:17 4 C 20 %
1324 12-04-2019 00:45:17 3.8 C 20 %
1325 12-04-2019 00:57:17 3.6 C 20 %
Sensor: Nr:Datum:Temp:Feuchte:
Aussen-T/F 1326 12-04-2019 01:09:17 3.4 C 20 %
1327 12-04-2019 01:21:17 2.5 C 20 %
1328 12-04-2019 01:33:18 1.9 C 20 %
1329 12-04-2019 01:45:17 2.4 C 20 %
1330 12-04-2019 01:57:17 1.8 C 20 %
1331 12-04-2019 02:09:17 1.5 C 20 %
1332 12-04-2019 02:21:17 1.4 C 20 %
1333 12-04-2019 02:33:18 1.1 C 20 %
1334 12-04-2019 02:45:17 0.9 C 20 %
1335 12-04-2019 02:57:18 0.8 C 20 %
1336 12-04-2019 03:09:18 0.9 C 20 %
1337 12-04-2019 03:21:17 0.8 C 20 %
1338 12-04-2019 03:33:17 0.9 C 20 %
1339 12-04-2019 03:45:17 0.9 C 20 %
1340 12-04-2019 03:57:17 0.8 C 20 %
1341 12-04-2019 04:09:17 1.3 C 20 %
1342 12-04-2019 04:21:17 1.4 C 20 %
1343 12-04-2019 04:33:17 1.9 C 20 %
1344 12-04-2019 04:45:18 2 C 20 %
1345 12-04-2019 04:57:18 2.1 C 20 %
1346 12-04-2019 05:09:17 2.2 C 20 %
1347 12-04-2019 05:21:17 2.2 C 20 %
1348 12-04-2019 05:33:17 2.2 C 20 %
1349 12-04-2019 05:45:17 2.3 C 20 %
1350 12-04-2019 05:57:17 2.3 C 20 %
Sensor: Nr:Datum:Temp:Feuchte:
Aussen-T/F 1351 12-04-2019 06:09:18 2.4 C 20 %
1352 12-04-2019 06:21:17 2.4 C 20 %
1353 12-04-2019 06:33:18 2.5 C 20 %
1354 12-04-2019 06:45:17 2.5 C 20 %
1355 12-04-2019 06:57:17 2.4 C 20 %
1356 12-04-2019 07:09:17 2.5 C 20 %
1357 12-04-2019 07:21:17 2.9 C 20 %
1358 12-04-2019 07:33:17 3.3 C 20 %
1359 12-04-2019 07:45:17 3.8 C 20 %
1360 12-04-2019 07:57:17 4 C 20 %
1361 12-04-2019 08:09:17 4.1 C 20 %
1362 12-04-2019 08:21:18 4.2 C 20 %
1363 12-04-2019 08:33:18 4.4 C 20 %
1364 12-04-2019 08:45:17 4.5 C 20 %
1365 12-04-2019 08:57:17 4.6 C 20 %
1366 12-04-2019 09:09:17 4.6 C 20 %
1367 12-04-2019 09:21:17 4.7 C 20 %
1368 12-04-2019 09:33:18 4.7 C 20 %
1369 12-04-2019 09:45:17 5 C 20 %
1370 12-04-2019 09:57:17 5 C 20 %
1371 12-04-2019 10:09:17 5.2 C 20 %
1372 12-04-2019 10:21:17 5.3 C 20 %
1373 12-04-2019 10:33:17 5.6 C 20 %
1374 12-04-2019 10:45:17 5.5 C 20 %
1375 12-04-2019 10:57:17 5.5 C 20 %
Sensor: Nr:Datum:Temp:Feuchte:
Aussen-T/F 1376 12-04-2019 11:09:17 5.7 C 20 %
1377 12-04-2019 11:21:17 6 C 20 %
1378 12-04-2019 11:33:18 6.1 C 20 %
1379 12-04-2019 11:45:17 6.2 C 20 %
1380 12-04-2019 11:57:17 6.7 C 20 %
1381 12-04-2019 12:09:17 7.6 C 20 %
1382 12-04-2019 12:21:17 6.9 C 20 %
1383 12-04-2019 12:33:17 7.4 C 20 %
1384 12-04-2019 12:45:17 7.4 C 20 %
1385 12-04-2019 12:57:17 7.6 C 20 %
1386 12-04-2019 13:09:17 7.5 C 20 %
1387 12-04-2019 13:21:17 7.8 C 20 %
1388 12-04-2019 13:33:18 7.2 C 20 %
1389 12-04-2019 13:45:18 7.4 C 20 %
1390 12-04-2019 13:57:18 7.4 C 20 %
1391 12-04-2019 14:09:17 7.6 C 20 %
1392 12-04-2019 14:21:17 7.6 C 20 %
1393 12-04-2019 14:33:17 7.6 C 20 %
1394 12-04-2019 14:45:17 7.5 C 20 %
1395 12-04-2019 14:57:17 8 C 20 %
1396 12-04-2019 15:09:17 7.9 C 20 %
1397 12-04-2019 15:21:17 7.8 C 20 %
1398 12-04-2019 15:33:18 8.1 C 20 %
1399 12-04-2019 15:45:18 7.5 C 20 %
1400 12-04-2019 15:57:18 7.5 C 20 %
Sensor: Nr:Datum:Temp:Feuchte:
Aussen-T/F 1401 12-04-2019 16:09:17 7.5 C 20 %
1402 12-04-2019 16:21:17 7.4 C 20 %
1403 12-04-2019 16:33:17 7.1 C 20 %
1404 12-04-2019 16:45:17 6.9 C 20 %
1405 12-04-2019 16:57:17 7 C 20 %
1406 12-04-2019 17:09:17 7 C 20 %
1407 12-04-2019 17:21:18 7 C 20 %
1408 12-04-2019 17:33:17 6.9 C 20 %
1409 12-04-2019 17:45:17 6.9 C 20 %
1410 12-04-2019 17:57:17 6.9 C 20 %
1411 12-04-2019 18:09:17 6.6 C 20 %
1412 12-04-2019 18:21:17 6.5 C 20 %
1413 12-04-2019 18:33:17 6.5 C 20 %
1414 12-04-2019 18:45:17 6.5 C 20 %
1415 12-04-2019 18:57:17 6.5 C 20 %
1416 12-04-2019 19:09:17 6.4 C 20 %
1417 12-04-2019 19:21:17 6.2 C 20 %
1418 12-04-2019 19:33:18 6.1 C 20 %
1419 12-04-2019 19:45:17 6 C 20 %
1420 12-04-2019 19:57:17 5.9 C 20 %
1421 12-04-2019 20:09:17 5.8 C 20 %
1422 12-04-2019 20:21:17 5.8 C 20 %
1423 12-04-2019 20:33:17 5.5 C 20 %
1424 12-04-2019 20:45:17 5.5 C 20 %
1425 12-04-2019 20:57:17 5.3 C 20 %
Sensor: Nr:Datum:Temp:Feuchte:
Aussen-T/F 1426 12-04-2019 21:09:18 5.3 C 20 %
1427 12-04-2019 21:21:17 5.1 C 20 %
1428 12-04-2019 21:33:17 5.1 C 20 %
1429 12-04-2019 21:45:17 4.9 C 20 %
1430 12-04-2019 21:57:17 4.3 C 20 %
1431 12-04-2019 22:09:17 3.8 C 20 %
1432 12-04-2019 22:21:17 3.6 C 20 %
1433 12-04-2019 22:33:18 3.5 C 20 %
1434 12-04-2019 22:45:17 3.1 C 20 %
1435 12-04-2019 22:57:18 3.1 C 20 %
1436 12-04-2019 23:09:18 2.9 C 20 %
1437 12-04-2019 23:21:17 3.2 C 20 %
1438 12-04-2019 23:33:17 3 C 20 %
1439 12-04-2019 23:45:17 2.6 C 20 %
1440 12-04-2019 23:57:17 2.3 C 20 %
1441 13-04-2019 00:09:17 2.2 C 20 %
1442 13-04-2019 00:21:17 2.2 C 20 %
1443 13-04-2019 00:33:18 2.2 C 20 %
1444 13-04-2019 00:45:18 2.2 C 20 %
1445 13-04-2019 00:57:18 2.4 C 20 %
1446 13-04-2019 01:09:18 2.5 C 20 %
1447 13-04-2019 01:21:17 2.2 C 20 %
1448 13-04-2019 01:33:17 2.1 C 20 %
1449 13-04-2019 01:45:17 2.2 C 20 %
1450 13-04-2019 01:57:17 2.2 C 20 %
Sensor: Nr:Datum:Temp:Feuchte:
Aussen-T/F 1451 13-04-2019 02:09:17 2 C 20 %
1452 13-04-2019 02:21:18 2.1 C 20 %
1453 13-04-2019 02:33:17 2.1 C 20 %
1454 13-04-2019 02:45:17 1.5 C 20 %
1455 13-04-2019 02:57:17 1.5 C 23 %
1456 13-04-2019 03:09:17 1.6 C 21 %
1457 13-04-2019 03:21:17 1.6 C 20 %
1458 13-04-2019 03:33:17 1.7 C 21 %
1459 13-04-2019 03:45:17 1.8 C 20 %
1460 13-04-2019 03:57:17 1.7 C 21 %
1461 13-04-2019 04:09:17 2.2 C 20 %
1462 13-04-2019 04:21:17 2.2 C 20 %
1463 13-04-2019 04:33:17 2.1 C 20 %
1464 13-04-2019 04:45:17 2.3 C 20 %
1465 13-04-2019 04:57:17 2.6 C 20 %
1466 13-04-2019 05:09:18 2.1 C 20 %
1467 13-04-2019 05:21:17 2 C 20 %
1468 13-04-2019 05:33:17 1.7 C 21 %
1469 13-04-2019 05:45:17 1.6 C 23 %
1470 13-04-2019 05:57:17 1.5 C 25 %
1471 13-04-2019 06:09:17 1.8 C 23 %
1472 13-04-2019 06:21:18 1.8 C 25 %
1473 13-04-2019 06:33:18 1.6 C 28 %
1474 13-04-2019 06:45:17 1.6 C 28 %
1475 13-04-2019 06:57:17 2 C 21 %
Sensor: Nr:Datum:Temp:Feuchte:
Aussen-T/F 1476 13-04-2019 07:09:17 1.8 C 25 %
1477 13-04-2019 07:21:17 2 C 23 %
1478 13-04-2019 07:33:17 2.2 C 20 %
1479 13-04-2019 07:45:17 2.4 C 20 %
1480 13-04-2019 07:57:17 2.5 C 20 %
1481 13-04-2019 08:09:17 2.7 C 20 %
1482 13-04-2019 08:21:17 3 C 20 %
1483 13-04-2019 08:33:17 3 C 20 %
1484 13-04-2019 08:45:17 3 C 20 %
1485 13-04-2019 08:57:17 3.3 C 20 %
1486 13-04-2019 09:09:17 3.3 C 20 %
1487 13-04-2019 09:21:17 3.4 C 20 %
1488 13-04-2019 09:33:17 3.5 C 20 %
1489 13-04-2019 09:45:18 3.3 C 20 %
1490 13-04-2019 09:57:18 3.6 C 20 %
1491 13-04-2019 10:09:17 4.2 C 20 %
1492 13-04-2019 10:21:17 5.2 C 20 %
1493 13-04-2019 10:33:17 5.2 C 20 %
1494 13-04-2019 10:45:17 5.1 C 20 %
1495 13-04-2019 10:57:17 5.2 C 20 %
1496 13-04-2019 11:09:17 5.3 C 20 %
1497 13-04-2019 11:21:17 5.1 C 20 %
1498 13-04-2019 11:33:18 5.3 C 20 %
1499 13-04-2019 11:45:18 6 C 20 %
1500 13-04-2019 11:57:18 5.7 C 20 %
Sensor: Nr:Datum:Temp:Feuchte:
Aussen-T/F 1501 13-04-2019 12:09:18 5.5 C 20 %
1502 13-04-2019 12:21:17 6.4 C 20 %
1503 13-04-2019 12:33:17 7.3 C 20 %
1504 13-04-2019 12:45:17 6.4 C 20 %
1505 13-04-2019 12:57:17 6.4 C 20 %
1506 13-04-2019 13:09:17 5.5 C 20 %
1507 13-04-2019 13:21:17 6.6 C 20 %
1508 13-04-2019 13:33:17 6.4 C 20 %
1509 13-04-2019 13:45:17 5.6 C 20 %
1510 13-04-2019 13:57:17 5.8 C 20 %
1511 13-04-2019 14:09:17 6.3 C 20 %
1512 13-04-2019 14:21:17 6 C 20 %
1513 13-04-2019 14:33:18 3.7 C 25 %
1514 13-04-2019 14:45:17 4.3 C 26 %
1515 13-04-2019 14:57:17 4.8 C 20 %
1516 13-04-2019 15:09:17 4.8 C 20 %
1517 13-04-2019 15:21:17 6.4 C 20 %
1518 13-04-2019 15:33:17 8.2 C 20 %
1519 13-04-2019 15:45:17 6.9 C 20 %
1520 13-04-2019 15:57:17 7.1 C 20 %
1521 13-04-2019 16:09:17 7.3 C 20 %
1522 13-04-2019 16:21:17 7.3 C 20 %
1523 13-04-2019 16:33:18 6.7 C 20 %
1524 13-04-2019 16:45:18 6.4 C 20 %
1525 13-04-2019 16:57:18 4.1 C 26 %
Sensor: Nr:Datum:Temp:Feuchte:
Aussen-T/F 1526 13-04-2019 17:09:18 3.5 C 36 %
1527 13-04-2019 17:21:17 3.8 C 36 %
1528 13-04-2019 17:33:17 4.5 C 32 %
1529 13-04-2019 17:45:17 6 C 25 %
1530 13-04-2019 17:57:17 6.8 C 20 %
1531 13-04-2019 18:09:18 8.8 C 20 %
1532 13-04-2019 18:21:17 7.4 C 20 %
1533 13-04-2019 18:33:17 4.7 C 26 %
1534 13-04-2019 18:45:17 4.6 C 29 %
1535 13-04-2019 18:57:17 5.1 C 20 %
1536 13-04-2019 19:09:17 5.6 C 20 %
1537 13-04-2019 19:21:17 5.1 C 20 %
1538 13-04-2019 19:33:17 5.1 C 23 %
1539 13-04-2019 19:45:17 4.8 C 26 %
1540 13-04-2019 19:57:17 4.5 C 28 %
1541 13-04-2019 20:09:17 4.1 C 30 %
1542 13-04-2019 20:21:17 4.2 C 26 %
1543 13-04-2019 20:33:17 3.9 C 26 %
1544 13-04-2019 20:45:17 3.7 C 29 %
1545 13-04-2019 20:57:17 3.5 C 30 %
1546 13-04-2019 21:09:17 2.8 C 32 %
1547 13-04-2019 21:21:17 2.5 C 35 %
1548 13-04-2019 21:33:17 2.2 C 35 %
1549 13-04-2019 21:45:17 1.7 C 37 %
1550 13-04-2019 21:57:17 1.2 C 39 %
Sensor: Nr:Datum:Temp:Feuchte:
Aussen-T/F 1551 13-04-2019 22:09:17 0.9 C 42 %
1552 13-04-2019 22:21:17 0.6 C 45 %
1553 13-04-2019 22:33:17 0.5 C 45 %
1554 13-04-2019 22:45:17 0.5 C 46 %
1555 13-04-2019 22:57:17 0.3 C 47 %
1556 13-04-2019 23:09:17 0.5 C 48 %
1557 13-04-2019 23:21:17 0.3 C 47 %
1558 13-04-2019 23:33:17 0 C 47 %
1559 13-04-2019 23:45:17 0.1 C 49 %
1560 13-04-2019 23:57:17 -0.2 C 49 %
1561 14-04-2019 00:09:18 -0.3 C 49 %
1562 14-04-2019 00:21:17 -0.5 C 49 %
1563 14-04-2019 00:33:17 -0.6 C 50 %
1564 14-04-2019 00:45:17 -0.6 C 51 %
1565 14-04-2019 00:57:17 -0.6 C 51 %
1566 14-04-2019 01:09:17 -0.5 C 52 %
1567 14-04-2019 01:21:17 -0.2 C 52 %
1568 14-04-2019 01:33:17 0.1 C 53 %
1569 14-04-2019 01:45:17 0.5 C 53 %
1570 14-04-2019 01:57:17 0.6 C 52 %
1571 14-04-2019 02:09:18 0.9 C 51 %
1572 14-04-2019 02:21:17 1 C 49 %
1573 14-04-2019 02:33:17 1.1 C 48 %
1574 14-04-2019 02:45:17 1.1 C 47 %
1575 14-04-2019 02:57:17 1.1 C 46 %
Sensor: Nr:Datum:Temp:Feuchte:
Aussen-T/F 1576 14-04-2019 03:09:18 1.2 C 46 %
1577 14-04-2019 03:22:17 1.2 C 45 %
1578 14-04-2019 03:33:17 1 C 45 %
1579 14-04-2019 03:45:17 1 C 47 %
1580 14-04-2019 03:57:17 1 C 48 %
1581 14-04-2019 04:09:17 1 C 48 %
1582 14-04-2019 04:21:17 1 C 48 %
1583 14-04-2019 04:33:17 1 C 49 %
1584 14-04-2019 04:45:17 1.1 C 50 %
1585 14-04-2019 04:57:17 1.2 C 50 %
1586 14-04-2019 05:09:17 1.2 C 50 %
1587 14-04-2019 05:21:17 1 C 50 %
1588 14-04-2019 05:33:17 0.7 C 50 %
1589 14-04-2019 05:45:17 0.4 C 51 %
1590 14-04-2019 05:57:17 0.3 C 51 %
1591 14-04-2019 06:09:18 0.4 C 52 %
1592 14-04-2019 06:21:17 0.4 C 53 %
1593 14-04-2019 06:33:18 0.3 C 53 %
1594 14-04-2019 06:45:18 0.3 C 53 %
1595 14-04-2019 06:57:18 0.2 C 54 %
1596 14-04-2019 07:09:18 0.3 C 54 %
1597 14-04-2019 07:22:17 0.2 C 54 %
1598 14-04-2019 07:34:17 0.3 C 55 %
1599 14-04-2019 07:46:17 0.4 C 55 %
1600 14-04-2019 07:58:17 0.5 C 55 %
Sensor: Nr:Datum:Temp:Feuchte:
Aussen-T/F 1601 14-04-2019 08:09:17 0.5 C 55 %
1602 14-04-2019 08:21:17 0.7 C 55 %
1603 14-04-2019 08:33:18 0.9 C 55 %
1604 14-04-2019 08:46:17 1.1 C 54 %
1605 14-04-2019 08:58:17 1.7 C 54 %
1606 14-04-2019 09:10:17 2 C 50 %
1607 14-04-2019 09:22:17 2.3 C 49 %
1608 14-04-2019 09:33:17 2.3 C 48 %
1609 14-04-2019 09:46:17 2.5 C 48 %
1610 14-04-2019 09:57:17 3.4 C 49 %
1611 14-04-2019 10:09:17 3.6 C 49 %
1612 14-04-2019 10:21:17 4.1 C 48 %
1613 14-04-2019 10:34:17 4.6 C 39 %
1614 14-04-2019 10:46:17 5.4 C 31 %
1615 14-04-2019 10:58:17 5.9 C 30 %
1616 14-04-2019 11:10:17 7.5 C 27 %
1617 14-04-2019 11:22:17 6.3 C 26 %
1618 14-04-2019 11:34:17 6.3 C 21 %
1619 14-04-2019 11:46:17 7 C 20 %
1620 14-04-2019 11:58:17 7.1 C 20 %
1621 14-04-2019 12:10:17 7.3 C 20 %
1622 14-04-2019 12:22:17 8.4 C 20 %
1623 14-04-2019 12:34:17 8.2 C 20 %
1624 14-04-2019 12:46:17 8.5 C 20 %
1625 14-04-2019 12:58:17 8.4 C 20 %
Sensor: Nr:Datum:Temp:Feuchte:
Aussen-T/F 1626 14-04-2019 13:09:17 8.7 C 20 %
1627 14-04-2019 13:22:17 8.5 C 20 %
1628 14-04-2019 13:34:17 9.2 C 20 %
1629 14-04-2019 13:46:17 9.7 C 20 %
1630 14-04-2019 13:58:17 9.7 C 20 %
1631 14-04-2019 14:10:17 10.3 C 20 %
1632 14-04-2019 14:21:18 10.6 C 20 %
1633 14-04-2019 14:33:18 10.6 C 20 %
1634 14-04-2019 14:46:17 10.9 C 20 %
1635 14-04-2019 14:58:17 11.1 C 20 %
1636 14-04-2019 15:10:17 11.8 C 20 %
1637 14-04-2019 15:21:17 11.7 C 20 %
1638 14-04-2019 15:33:18 11.8 C 20 %
1639 14-04-2019 15:45:18 12.1 C 20 %
1640 14-04-2019 15:57:18 11.5 C 20 %
1641 14-04-2019 16:09:18 12.5 C 20 %
1642 14-04-2019 16:22:17 11.4 C 20 %
1643 14-04-2019 16:34:17 11.9 C 20 %
1644 14-04-2019 16:46:17 12.9 C 20 %
1645 14-04-2019 16:58:17 12 C 20 %
1646 14-04-2019 17:10:17 13.1 C 20 %
1647 14-04-2019 17:22:17 12.4 C 20 %
1648 14-04-2019 17:34:17 13.2 C 20 %
1649 14-04-2019 17:46:17 12.5 C 20 %
1650 14-04-2019 17:58:17 11.6 C 20 %
Sensor: Nr:Datum:Temp:Feuchte:
Aussen-T/F 1651 14-04-2019 18:10:18 13.2 C 20 %
1652 14-04-2019 18:22:17 12.5 C 20 %
1653 14-04-2019 18:34:17 13.1 C 20 %
1654 14-04-2019 18:46:17 12.4 C 20 %
1655 14-04-2019 18:58:17 13.2 C 20 %
1656 14-04-2019 19:10:17 11.4 C 20 %
1657 14-04-2019 19:22:17 10.6 C 20 %
1658 14-04-2019 19:34:17 10 C 20 %
1659 14-04-2019 19:46:17 9.7 C 20 %
1660 14-04-2019 19:58:17 9.2 C 20 %
1661 14-04-2019 20:10:17 8.5 C 20 %
1662 14-04-2019 20:22:18 7.3 C 20 %
1663 14-04-2019 20:34:18 6.7 C 20 %
1664 14-04-2019 20:46:17 6.2 C 20 %
1665 14-04-2019 20:58:18 6.3 C 20 %
1666 14-04-2019 21:10:17 5.9 C 20 %
1667 14-04-2019 21:22:17 5.2 C 20 %
1668 14-04-2019 21:34:17 5 C 21 %
1669 14-04-2019 21:46:17 4.4 C 26 %
1670 14-04-2019 21:58:17 4.3 C 27 %
1671 14-04-2019 22:10:17 4.1 C 28 %
1672 14-04-2019 22:22:17 4 C 29 %
1673 14-04-2019 22:34:17 3.7 C 31 %
1674 14-04-2019 22:46:17 3.4 C 31 %
1675 14-04-2019 22:58:17 3.4 C 31 %
Sensor: Nr:Datum:Temp:Feuchte:
Aussen-T/F 1676 14-04-2019 23:10:17 3.4 C 32 %
1677 14-04-2019 23:22:17 3.2 C 32 %
1678 14-04-2019 23:34:17 3.2 C 33 %
1679 14-04-2019 23:46:17 3.4 C 34 %
1680 14-04-2019 23:58:17 3.3 C 33 %
1681 15-04-2019 00:10:17 3.3 C 33 %
1682 15-04-2019 00:22:17 3.5 C 33 %
1683 15-04-2019 00:34:17 3.3 C 34 %
1684 15-04-2019 00:46:17 3.6 C 35 %
1685 15-04-2019 00:58:17 4.1 C 35 %
1686 15-04-2019 01:10:17 4.2 C 35 %
1687 15-04-2019 01:22:17 4.7 C 32 %
1688 15-04-2019 01:34:17 4.9 C 31 %
1689 15-04-2019 01:46:17 5 C 31 %
1690 15-04-2019 01:58:17 5.2 C 30 %
1691 15-04-2019 02:10:17 5.3 C 27 %
1692 15-04-2019 02:22:17 5.2 C 29 %
1693 15-04-2019 02:34:18 5.1 C 30 %
1694 15-04-2019 02:46:18 5 C 30 %
1695 15-04-2019 02:58:18 4.3 C 31 %
1696 15-04-2019 03:10:17 4 C 32 %
1697 15-04-2019 03:22:17 3.9 C 35 %
1698 15-04-2019 03:34:17 4.1 C 35 %
1699 15-04-2019 03:46:17 4.1 C 35 %
1700 15-04-2019 03:58:17 4.2 C 35 %
Sensor: Nr:Datum:Temp:Feuchte:
Aussen-T/F 1701 15-04-2019 04:10:17 4.2 C 35 %
1702 15-04-2019 04:22:17 4.3 C 35 %
1703 15-04-2019 04:34:17 4.2 C 35 %
1704 15-04-2019 04:46:17 4 C 35 %
1705 15-04-2019 04:58:17 3.8 C 36 %
1706 15-04-2019 05:10:17 3.7 C 38 %
1707 15-04-2019 05:22:17 3.5 C 38 %
1708 15-04-2019 05:34:17 3.6 C 40 %
1709 15-04-2019 05:46:17 3.5 C 39 %
1710 15-04-2019 05:58:17 3.7 C 41 %
1711 15-04-2019 06:10:17 4 C 40 %
1712 15-04-2019 06:22:17 4.2 C 39 %
1713 15-04-2019 06:34:17 4.3 C 39 %
1714 15-04-2019 06:46:17 4.4 C 39 %
1715 15-04-2019 06:58:17 4.5 C 40 %
1716 15-04-2019 07:10:17 4.7 C 40 %
1717 15-04-2019 07:22:17 4.9 C 40 %
1718 15-04-2019 07:34:17 5 C 38 %
1719 15-04-2019 07:46:17 5.2 C 36 %
1720 15-04-2019 07:58:17 5.3 C 35 %
1721 15-04-2019 08:10:18 5.6 C 34 %
1722 15-04-2019 08:22:17 5.8 C 33 %
1723 15-04-2019 08:34:17 6.3 C 31 %
1724 15-04-2019 08:46:17 6.5 C 30 %
1725 15-04-2019 08:58:17 7 C 29 %
Sensor: Nr:Datum:Temp:Feuchte:
Aussen-T/F 1726 15-04-2019 09:10:17 7.4 C 27 %
1727 15-04-2019 09:22:17 7.3 C 27 %
1728 15-04-2019 09:34:18 7.5 C 26 %
1729 15-04-2019 09:46:17 7.3 C 26 %
1730 15-04-2019 09:58:17 8.3 C 25 %
1731 15-04-2019 10:10:17 7.9 C 21 %
1732 15-04-2019 10:22:17 8.6 C 20 %
1733 15-04-2019 10:34:17 8.6 C 21 %
1734 15-04-2019 10:46:17 9 C 20 %
1735 15-04-2019 10:58:17 9.7 C 20 %
1736 15-04-2019 11:10:17 11.4 C 20 %
1737 15-04-2019 11:22:17 12.2 C 20 %
1738 15-04-2019 11:34:17 11.7 C 20 %
1739 15-04-2019 11:46:17 11.7 C 20 %
1740 15-04-2019 11:58:17 12 C 20 %
1741 15-04-2019 12:10:17 13 C 20 %
1742 15-04-2019 12:22:17 13.2 C 20 %
1743 15-04-2019 12:34:17 13.5 C 20 %
1744 15-04-2019 12:46:17 13.6 C 20 %
1745 15-04-2019 12:58:17 13.7 C 20 %
1746 15-04-2019 13:10:17 13.8 C 20 %
1747 15-04-2019 13:22:17 13.8 C 20 %
1748 15-04-2019 13:34:18 14.2 C 20 %
1749 15-04-2019 13:46:17 14.7 C 20 %
1750 15-04-2019 13:58:17 15.1 C 20 %
Sensor: Nr:Datum:Temp:Feuchte:
Aussen-T/F 1751 15-04-2019 14:10:17 15.7 C 20 %
1752 15-04-2019 14:22:18 16.1 C 20 %
1753 15-04-2019 14:34:18 16.6 C 20 %
1754 15-04-2019 14:46:17 16.8 C 20 %
1755 15-04-2019 14:58:18 17.2 C 20 %
1756 15-04-2019 15:10:17 17.6 C 20 %
1757 15-04-2019 15:22:17 18 C 20 %
1758 15-04-2019 15:34:17 17.7 C 20 %
1759 15-04-2019 15:46:17 18.1 C 20 %
1760 15-04-2019 15:58:17 18.6 C 20 %
1761 15-04-2019 16:10:17 18.3 C 20 %
1762 15-04-2019 16:22:17 18.4 C 20 %
1763 15-04-2019 16:34:18 18.3 C 20 %
1764 15-04-2019 16:46:17 18.1 C 20 %
1765 15-04-2019 16:58:18 18.4 C 20 %
1766 15-04-2019 17:10:18 18.8 C 20 %
1767 15-04-2019 17:22:17 19.3 C 20 %
1768 15-04-2019 17:34:17 19.7 C 20 %
1769 15-04-2019 17:46:17 19.5 C 20 %
1770 15-04-2019 17:58:17 19.8 C 20 %
1771 15-04-2019 18:10:17 19.6 C 20 %
1772 15-04-2019 18:22:17 20.4 C 20 %
1773 15-04-2019 18:34:17 20.6 C 20 %
1774 15-04-2019 18:46:17 20.3 C 20 %
1775 15-04-2019 18:58:17 20.7 C 20 %
Sensor: Nr:Datum:Temp:Feuchte:
Aussen-T/F 1776 15-04-2019 19:10:17 18.8 C 20 %
1777 15-04-2019 19:22:17 17.6 C 20 %
1778 15-04-2019 19:34:18 17.5 C 20 %
1779 15-04-2019 19:46:18 16.8 C 20 %
1780 15-04-2019 19:58:18 16.5 C 20 %
1781 15-04-2019 20:10:17 13.5 C 20 %
1782 15-04-2019 20:22:17 12.7 C 20 %
1783 15-04-2019 20:34:17 12.1 C 20 %
1784 15-04-2019 20:46:17 11.8 C 20 %
1785 15-04-2019 20:58:17 11.7 C 20 %
1786 15-04-2019 21:10:17 11.3 C 20 %
1787 15-04-2019 21:22:17 10.9 C 20 %
1788 15-04-2019 21:34:17 10.4 C 20 %
1789 15-04-2019 21:46:17 10.1 C 20 %
1790 15-04-2019 21:58:17 10.1 C 20 %
1791 15-04-2019 22:10:17 9.6 C 20 %
1792 15-04-2019 22:22:17 9.2 C 20 %
1793 15-04-2019 22:34:17 9.2 C 20 %
1794 15-04-2019 22:46:17 9.2 C 20 %
1795 15-04-2019 22:58:17 8.7 C 20 %
1796 15-04-2019 23:10:17 8.9 C 20 %
1797 15-04-2019 23:22:17 8.8 C 20 %
1798 15-04-2019 23:34:17 8.4 C 20 %
1799 15-04-2019 23:46:17 8.2 C 20 %
1800 15-04-2019 23:58:17 8 C 20 %
Sensor: Nr:Datum:Temp:Feuchte:
Aussen-T/F 1801 16-04-2019 00:10:17 7.6 C 20 %
1802 16-04-2019 00:22:17 7.4 C 20 %
1803 16-04-2019 00:34:17 6.9 C 20 %
1804 16-04-2019 00:46:17 6.9 C 20 %
1805 16-04-2019 00:58:17 6.6 C 20 %
1806 16-04-2019 01:10:17 6.4 C 20 %
1807 16-04-2019 01:22:17 6.3 C 20 %
1808 16-04-2019 01:34:18 6 C 20 %
1809 16-04-2019 01:46:17 5.9 C 20 %
1810 16-04-2019 01:58:18 5.7 C 20 %
1811 16-04-2019 02:10:18 5.6 C 21 %
1812 16-04-2019 02:22:17 5.5 C 23 %
1813 16-04-2019 02:34:17 5.5 C 23 %
1814 16-04-2019 02:46:17 5.4 C 23 %
1815 16-04-2019 02:58:17 5.3 C 23 %
1816 16-04-2019 03:10:17 5.3 C 25 %
1817 16-04-2019 03:22:17 5.4 C 20 %
1818 16-04-2019 03:34:17 5 C 23 %
1819 16-04-2019 03:46:17 4.9 C 25 %
1820 16-04-2019 03:58:17 5 C 20 %
1821 16-04-2019 04:10:17 5 C 20 %
1822 16-04-2019 04:22:17 5 C 21 %
1823 16-04-2019 04:34:18 4.6 C 25 %
1824 16-04-2019 04:46:17 4.6 C 25 %
1825 16-04-2019 04:58:17 4.8 C 21 %
Sensor: Nr:Datum:Temp:Feuchte:
Aussen-T/F 1826 16-04-2019 05:10:17 4.5 C 23 %
1827 16-04-2019 05:22:17 4.6 C 23 %
1828 16-04-2019 05:34:17 4.3 C 23 %
1829 16-04-2019 05:46:17 4.3 C 25 %
1830 16-04-2019 05:58:17 5.4 C 20 %
1831 16-04-2019 06:10:17 4.8 C 20 %
1832 16-04-2019 06:22:17 3.7 C 28 %
1833 16-04-2019 06:34:17 3.3 C 30 %
1834 16-04-2019 06:46:17 2.8 C 33 %
1835 16-04-2019 06:58:17 2.8 C 34 %
1836 16-04-2019 07:10:17 2.8 C 35 %
1837 16-04-2019 07:22:17 2.8 C 36 %
1838 16-04-2019 07:34:18 2.8 C 36 %
1839 16-04-2019 07:46:17 3.3 C 35 %
1840 16-04-2019 07:58:17 3.3 C 34 %
1841 16-04-2019 08:10:17 3.3 C 36 %
1842 16-04-2019 08:22:17 3.4 C 36 %
1843 16-04-2019 08:34:17 3.9 C 35 %
1844 16-04-2019 08:46:17 4.1 C 34 %
1845 16-04-2019 08:58:17 4.6 C 32 %
1846 16-04-2019 09:10:17 5 C 30 %
1847 16-04-2019 09:22:17 5.8 C 29 %
1848 16-04-2019 09:34:17 6.2 C 28 %
1849 16-04-2019 09:46:17 7.5 C 20 %
1850 16-04-2019 09:58:17 9 C 20 %
Sensor: Nr:Datum:Temp:Feuchte:
Aussen-T/F 1851 16-04-2019 10:10:17 10.2 C 20 %
1852 16-04-2019 10:22:17 10.9 C 20 %
1853 16-04-2019 10:34:17 11.6 C 20 %
1854 16-04-2019 10:46:17 11.6 C 20 %
1855 16-04-2019 10:58:17 13.3 C 20 %
1856 16-04-2019 11:10:17 16.8 C 20 %
1857 16-04-2019 11:22:17 17.1 C 20 %
1858 16-04-2019 11:34:17 15.1 C 20 %
1859 16-04-2019 11:46:17 15.4 C 20 %
1860 16-04-2019 11:58:18 15.5 C 20 %
1861 16-04-2019 12:10:18 16 C 20 %
1862 16-04-2019 12:22:17 16.6 C 20 %
1863 16-04-2019 12:34:17 16.8 C 20 %
1864 16-04-2019 12:46:17 16.5 C 20 %
1865 16-04-2019 12:58:17 16.1 C 20 %
1866 16-04-2019 13:10:17 16.3 C 20 %
1867 16-04-2019 13:22:17 16.9 C 20 %
1868 16-04-2019 13:34:17 17.5 C 20 %
1869 16-04-2019 13:46:17 17.3 C 20 %
1870 16-04-2019 13:58:17 17.9 C 20 %
1871 16-04-2019 14:10:18 18.1 C 20 %
1872 16-04-2019 14:22:17 18.4 C 20 %
1873 16-04-2019 14:34:17 18.8 C 20 %
1874 16-04-2019 14:46:18 19 C 20 %
1875 16-04-2019 14:58:18 19.1 C 20 %
Sensor: Nr:Datum:Temp:Feuchte:
Aussen-T/F 1876 16-04-2019 15:10:17 20 C 20 %
1877 16-04-2019 15:22:17 19.8 C 20 %
1878 16-04-2019 15:34:17 19.5 C 20 %
1879 16-04-2019 15:46:17 19.1 C 20 %
1880 16-04-2019 15:58:18 18.9 C 20 %
1881 16-04-2019 16:10:17 18.5 C 20 %
1882 16-04-2019 16:22:17 18.9 C 20 %
1883 16-04-2019 16:34:17 18.9 C 20 %
1884 16-04-2019 16:46:17 20.3 C 20 %
1885 16-04-2019 16:58:17 20.3 C 20 %
1886 16-04-2019 17:10:18 20.3 C 20 %
1887 16-04-2019 17:22:17 17.9 C 20 %
1888 16-04-2019 17:34:17 17.9 C 20 %
1889 16-04-2019 17:46:17 17.1 C 20 %
1890 16-04-2019 17:58:17 16.8 C 20 %
1891 16-04-2019 18:10:17 15.7 C 20 %
1892 16-04-2019 18:22:17 15.6 C 20 %
1893 16-04-2019 18:34:17 15.4 C 20 %
1894 16-04-2019 18:46:17 15.2 C 20 %
1895 16-04-2019 18:58:17 14.9 C 20 %
1896 16-04-2019 19:10:17 14.8 C 20 %
1897 16-04-2019 19:22:17 14.6 C 20 %
1898 16-04-2019 19:34:17 14.2 C 20 %
1899 16-04-2019 19:46:17 13.6 C 20 %
1900 16-04-2019 19:58:17 13.2 C 20 %
Sensor: Nr:Datum:Temp:Feuchte:
Aussen-T/F 1901 16-04-2019 20:10:17 12.9 C 20 %
1902 16-04-2019 20:22:17 12.5 C 20 %
1903 16-04-2019 20:34:17 12.3 C 20 %
1904 16-04-2019 20:46:17 12.1 C 20 %
1905 16-04-2019 20:58:17 12 C 20 %
1906 16-04-2019 21:10:17 11.8 C 22 %
1907 16-04-2019 21:22:17 11.8 C 23 %
1908 16-04-2019 21:34:17 11.6 C 24 %
1909 16-04-2019 21:46:17 11.7 C 25 %
1910 16-04-2019 21:58:17 11.4 C 26 %
1911 16-04-2019 22:10:17 11.1 C 28 %
1912 16-04-2019 22:22:17 10.8 C 30 %
1913 16-04-2019 22:34:17 11 C 29 %
1914 16-04-2019 22:46:17 11.1 C 27 %
1915 16-04-2019 22:58:17 11.1 C 27 %
1916 16-04-2019 23:10:17 10.7 C 30 %
1917 16-04-2019 23:22:17 10.7 C 30 %
1918 16-04-2019 23:34:17 10.7 C 30 %
1919 16-04-2019 23:46:17 10.7 C 30 %
1920 16-04-2019 23:58:17 10.5 C 30 %
1921 17-04-2019 00:10:18 10.4 C 31 %
1922 17-04-2019 00:22:17 10.5 C 31 %
1923 17-04-2019 00:34:17 10.5 C 31 %
1924 17-04-2019 00:46:17 10.5 C 31 %
1925 17-04-2019 00:58:17 10 C 36 %
Sensor: Nr:Datum:Temp:Feuchte:
Aussen-T/F 1926 17-04-2019 01:10:18 9.8 C 42 %
1927 17-04-2019 01:22:17 9.8 C 44 %
1928 17-04-2019 01:34:17 9.8 C 44 %
1929 17-04-2019 01:46:17 9.6 C 46 %
1930 17-04-2019 01:58:17 9.5 C 47 %
1931 17-04-2019 02:10:17 9.5 C 48 %
1932 17-04-2019 02:22:17 9.5 C 48 %
1933 17-04-2019 02:34:17 9.4 C 49 %
1934 17-04-2019 02:46:17 9.4 C 50 %
1935 17-04-2019 02:58:17 9.3 C 50 %
1936 17-04-2019 03:10:17 9.2 C 49 %
1937 17-04-2019 03:22:17 9.2 C 50 %
1938 17-04-2019 03:34:17 9.2 C 50 %
1939 17-04-2019 03:46:17 9.2 C 50 %
1940 17-04-2019 03:58:17 9.1 C 51 %
1941 17-04-2019 04:10:17 9.1 C 50 %
1942 17-04-2019 04:22:17 9 C 50 %
1943 17-04-2019 04:34:17 9 C 50 %
1944 17-04-2019 04:46:17 9.1 C 51 %
1945 17-04-2019 04:58:17 9 C 51 %
1946 17-04-2019 05:10:17 9 C 51 %
1947 17-04-2019 05:22:17 9 C 51 %
1948 17-04-2019 05:34:17 9 C 52 %
1949 17-04-2019 05:46:17 9 C 52 %
1950 17-04-2019 05:58:17 9 C 52 %
Sensor: Nr:Datum:Temp:Feuchte:
Aussen-T/F 1951 17-04-2019 06:10:17 9 C 52 %
1952 17-04-2019 06:22:17 9.1 C 54 %
1953 17-04-2019 06:34:18 9.2 C 54 %
1954 17-04-2019 06:46:17 9.3 C 54 %
1955 17-04-2019 06:58:17 9.3 C 55 %
1956 17-04-2019 07:10:17 9.3 C 56 %
1957 17-04-2019 07:22:17 9.4 C 58 %
1958 17-04-2019 07:34:18 9.6 C 59 %
1959 17-04-2019 07:46:17 9.7 C 60 %
1960 17-04-2019 07:58:17 10 C 60 %
1961 17-04-2019 08:10:17 10.1 C 58 %
1962 17-04-2019 08:22:18 10.2 C 56 %
1963 17-04-2019 08:34:17 10.4 C 51 %
1964 17-04-2019 08:46:17 10.5 C 48 %
1965 17-04-2019 08:58:17 10.6 C 47 %
1966 17-04-2019 09:10:17 11 C 45 %
1967 17-04-2019 09:22:17 11.3 C 42 %
1968 17-04-2019 09:34:17 11.4 C 39 %
1969 17-04-2019 09:46:17 11.9 C 39 %
1970 17-04-2019 09:58:17 12.1 C 36 %
1971 17-04-2019 10:10:18 12.3 C 36 %
1972 17-04-2019 10:22:17 12.7 C 34 %
1973 17-04-2019 10:34:17 12.9 C 32 %
1974 17-04-2019 10:46:17 12.5 C 33 %
1975 17-04-2019 10:58:17 12.8 C 34 %
Sensor: Nr:Datum:Temp:Feuchte:
Aussen-T/F 1976 17-04-2019 11:10:17 13.2 C 31 %
1977 17-04-2019 11:22:17 13.5 C 32 %
1978 17-04-2019 11:34:17 13.3 C 31 %
1979 17-04-2019 11:46:17 13.2 C 31 %
1980 17-04-2019 11:58:17 14.2 C 29 %
1981 17-04-2019 12:10:17 14.1 C 29 %
1982 17-04-2019 12:22:18 14 C 29 %
1983 17-04-2019 12:34:17 13.8 C 30 %
1984 17-04-2019 12:46:17 13.7 C 30 %
1985 17-04-2019 12:58:17 14 C 30 %
1986 17-04-2019 13:10:17 15 C 26 %
1987 17-04-2019 13:22:17 16 C 25 %
1988 17-04-2019 13:34:17 16.3 C 22 %
1989 17-04-2019 13:46:17 16.2 C 22 %
1990 17-04-2019 13:58:17 16.2 C 21 %
1991 17-04-2019 14:10:18 16.4 C 20 %
1992 17-04-2019 14:22:17 17.3 C 20 %
1993 17-04-2019 14:34:17 17 C 20 %
1994 17-04-2019 14:46:17 16.8 C 20 %
1995 17-04-2019 14:58:17 16.6 C 20 %
1996 17-04-2019 15:10:17 16.6 C 20 %
1997 17-04-2019 15:22:17 17.4 C 20 %
1998 17-04-2019 15:34:18 18.9 C 20 %
1999 17-04-2019 15:46:17 18.2 C 20 %
2000 17-04-2019 15:58:17 19.1 C 20 %
Sensor: Nr:Datum:Temp:Feuchte:
Aussen-T/F 2001 17-04-2019 16:10:17 18.8 C 20 %
2002 17-04-2019 16:22:17 17.9 C 20 %
2003 17-04-2019 16:34:17 18.2 C 20 %
2004 17-04-2019 16:46:17 17.7 C 20 %
2005 17-04-2019 16:58:17 19.1 C 20 %
2006 17-04-2019 17:10:17 18.8 C 20 %
2007 17-04-2019 17:22:17 18.1 C 20 %
2008 17-04-2019 17:34:17 18.1 C 20 %
2009 17-04-2019 17:46:17 18.3 C 20 %
2010 17-04-2019 17:58:17 19 C 20 %
2011 17-04-2019 18:10:17 18.1 C 20 %
2012 17-04-2019 18:22:17 17.9 C 20 %
2013 17-04-2019 18:34:17 18.1 C 20 %
2014 17-04-2019 18:46:17 17.3 C 20 %
2015 17-04-2019 18:58:17 16 C 20 %
2016 17-04-2019 19:10:18 15.7 C 21 %
2017 17-04-2019 19:22:17 15.8 C 20 %
2018 17-04-2019 19:34:18 15.4 C 21 %
2019 17-04-2019 19:46:17 14.5 C 24 %
2020 17-04-2019 19:58:17 14 C 25 %
2021 17-04-2019 20:10:17 13.5 C 25 %
2022 17-04-2019 20:22:17 12.8 C 27 %
2023 17-04-2019 20:34:17 12.3 C 27 %
2024 17-04-2019 20:46:17 11.8 C 29 %
2025 17-04-2019 20:58:17 11.6 C 28 %
Sensor: Nr:Datum:Temp:Feuchte:
Aussen-T/F 2026 17-04-2019 21:10:17 11.2 C 28 %
2027 17-04-2019 21:22:17 10.8 C 30 %
2028 17-04-2019 21:34:17 10.4 C 31 %
2029 17-04-2019 21:46:17 10.2 C 31 %
2030 17-04-2019 21:58:17 10.1 C 31 %
2031 17-04-2019 22:10:17 9.2 C 35 %
2032 17-04-2019 22:22:17 8.9 C 37 %
2033 17-04-2019 22:34:17 8.7 C 38 %
2034 17-04-2019 22:46:17 8.6 C 40 %
2035 17-04-2019 22:58:17 8.5 C 39 %
2036 17-04-2019 23:10:18 8.5 C 38 %
2037 17-04-2019 23:22:17 8.3 C 37 %
2038 17-04-2019 23:34:17 8.4 C 38 %
2039 17-04-2019 23:46:17 8.2 C 37 %
2040 17-04-2019 23:58:17 8 C 38 %
2041 18-04-2019 00:10:17 8 C 39 %
2042 18-04-2019 00:22:17 8 C 40 %
2043 18-04-2019 00:34:17 8.2 C 40 %
2044 18-04-2019 00:46:17 8.3 C 40 %
2045 18-04-2019 00:58:17 8 C 39 %
2046 18-04-2019 01:10:17 8.1 C 40 %
2047 18-04-2019 01:22:17 8.2 C 39 %
2048 18-04-2019 01:34:17 8 C 39 %
2049 18-04-2019 01:46:17 8.1 C 40 %
2050 18-04-2019 01:58:17 8 C 39 %
Sensor: Nr:Datum:Temp:Feuchte:
Aussen-T/F 2051 18-04-2019 02:10:17 7.9 C 40 %
2052 18-04-2019 02:22:17 7.7 C 40 %
2053 18-04-2019 02:34:17 7.6 C 40 %
2054 18-04-2019 02:46:17 7.5 C 41 %
2055 18-04-2019 02:58:17 7.5 C 41 %
2056 18-04-2019 03:10:17 7.5 C 40 %
2057 18-04-2019 03:22:17 7.1 C 39 %
2058 18-04-2019 03:34:18 6.7 C 40 %
2059 18-04-2019 03:46:17 6.3 C 41 %
2060 18-04-2019 03:58:17 6.1 C 42 %
2061 18-04-2019 04:10:17 5.9 C 43 %
2062 18-04-2019 04:22:17 5.8 C 44 %
2063 18-04-2019 04:34:17 6 C 43 %
2064 18-04-2019 04:46:17 6 C 43 %
2065 18-04-2019 04:58:18 6.2 C 44 %
2066 18-04-2019 05:10:17 6.3 C 43 %
2067 18-04-2019 05:22:17 6.1 C 42 %
2068 18-04-2019 05:34:17 6 C 43 %
2069 18-04-2019 05:46:18 5.9 C 45 %
2070 18-04-2019 05:58:18 5.8 C 46 %
2071 18-04-2019 06:10:17 5.8 C 47 %
2072 18-04-2019 06:22:17 5.9 C 48 %
2073 18-04-2019 06:34:18 6 C 47 %
2074 18-04-2019 06:46:17 6 C 45 %
2075 18-04-2019 06:58:17 6 C 45 %
Sensor: Nr:Datum:Temp:Feuchte:
Aussen-T/F 2076 18-04-2019 07:10:17 6.1 C 45 %
2077 18-04-2019 07:22:18 6.5 C 44 %
2078 18-04-2019 07:34:17 6.9 C 42 %
2079 18-04-2019 07:46:17 7.3 C 40 %
2080 18-04-2019 07:58:17 7.4 C 39 %
2081 18-04-2019 08:10:17 7.6 C 38 %
2082 18-04-2019 08:22:17 7.6 C 40 %
2083 18-04-2019 08:34:17 7.8 C 40 %
2084 18-04-2019 08:46:17 7.9 C 40 %
2085 18-04-2019 08:58:17 8.2 C 39 %
2086 18-04-2019 09:10:18 8.8 C 35 %
2087 18-04-2019 09:22:17 9.5 C 30 %
2088 18-04-2019 09:34:17 9.8 C 30 %
2089 18-04-2019 09:46:17 10.5 C 28 %
2090 18-04-2019 09:58:17 10.9 C 25 %
2091 18-04-2019 10:10:17 11.6 C 22 %
2092 18-04-2019 10:22:17 12.2 C 22 %
2093 18-04-2019 10:34:17 13.4 C 20 %
2094 18-04-2019 10:46:17 14 C 20 %
2095 18-04-2019 10:58:17 15.9 C 20 %
2096 18-04-2019 11:10:18 19.5 C 20 %
2097 18-04-2019 11:22:17 20.3 C 20 %
2098 18-04-2019 11:34:18 17.4 C 20 %
2099 18-04-2019 11:46:17 17.5 C 20 %
2100 18-04-2019 11:58:17 17.3 C 20 %
Sensor: Nr:Datum:Temp:Feuchte:
Aussen-T/F 2101 18-04-2019 12:10:17 17.7 C 20 %
2102 18-04-2019 12:22:17 18.1 C 20 %
2103 18-04-2019 12:34:17 18.3 C 20 %
2104 18-04-2019 12:46:17 18 C 20 %
2105 18-04-2019 12:58:17 18.3 C 20 %
2106 18-04-2019 13:10:17 18.4 C 20 %
2107 18-04-2019 13:22:17 18.5 C 20 %
2108 18-04-2019 13:34:17 18.5 C 20 %
2109 18-04-2019 13:46:17 18.8 C 20 %
2110 18-04-2019 13:58:17 19.3 C 20 %
2111 18-04-2019 14:10:17 19.3 C 20 %
2112 18-04-2019 14:22:17 19.9 C 20 %
2113 18-04-2019 14:34:17 20.4 C 20 %
2114 18-04-2019 14:46:17 20.8 C 20 %
2115 18-04-2019 14:58:17 21 C 20 %
2116 18-04-2019 15:10:18 21.5 C 20 %
2117 18-04-2019 15:22:17 21.6 C 20 %
2118 18-04-2019 15:34:17 21.9 C 20 %
2119 18-04-2019 15:46:18 22.1 C 20 %
2120 18-04-2019 15:58:18 22.1 C 20 %
2121 18-04-2019 16:10:17 22.4 C 20 %
2122 18-04-2019 16:22:17 22.3 C 20 %
2123 18-04-2019 16:34:18 22.3 C 20 %
2124 18-04-2019 16:46:17 23.1 C 20 %
2125 18-04-2019 16:58:17 22.9 C 20 %
Sensor: Nr:Datum:Temp:Feuchte:
Aussen-T/F 2126 18-04-2019 17:10:17 23.7 C 20 %
2127 18-04-2019 17:22:17 23.5 C 20 %
2128 18-04-2019 17:34:17 23.4 C 20 %
2129 18-04-2019 17:46:17 23.6 C 20 %
2130 18-04-2019 17:58:17 23.8 C 20 %
2131 18-04-2019 18:10:17 24.2 C 20 %
2132 18-04-2019 18:22:17 24.3 C 20 %
2133 18-04-2019 18:34:17 24.4 C 20 %
2134 18-04-2019 18:46:17 23.8 C 20 %
2135 18-04-2019 18:58:18 24.3 C 20 %
2136 18-04-2019 19:10:17 23.1 C 20 %
2137 18-04-2019 19:22:17 21.9 C 20 %
2138 18-04-2019 19:34:17 21.5 C 20 %
2139 18-04-2019 19:46:17 21 C 20 %
2140 18-04-2019 19:58:17 19.1 C 20 %
2141 18-04-2019 20:10:17 17.8 C 20 %
2142 18-04-2019 20:22:17 16.4 C 20 %
2143 18-04-2019 20:34:17 15.8 C 20 %
2144 18-04-2019 20:46:18 15.4 C 20 %
2145 18-04-2019 20:58:18 15.2 C 20 %
2146 18-04-2019 21:10:17 14.9 C 20 %
2147 18-04-2019 21:22:17 14.7 C 20 %
2148 18-04-2019 21:34:18 14.4 C 20 %
2149 18-04-2019 21:46:17 14 C 20 %
2150 18-04-2019 21:58:17 13.7 C 20 %
Sensor: Nr:Datum:Temp:Feuchte:
Aussen-T/F 2151 18-04-2019 22:10:17 13.4 C 20 %
2152 18-04-2019 22:22:17 13.2 C 20 %
2153 18-04-2019 22:34:17 13 C 20 %
2154 18-04-2019 22:46:17 12.7 C 20 %
2155 18-04-2019 22:58:17 12.5 C 20 %
2156 18-04-2019 23:10:18 12.2 C 20 %
2157 18-04-2019 23:22:17 12.1 C 20 %
2158 18-04-2019 23:34:17 11.3 C 20 %
2159 18-04-2019 23:46:17 11.2 C 20 %
2160 18-04-2019 23:58:17 10.7 C 20 %
2161 19-04-2019 00:10:17 10.8 C 20 %
2162 19-04-2019 00:22:18 10.5 C 20 %
2163 19-04-2019 00:34:17 10.6 C 20 %
2164 19-04-2019 00:46:17 10 C 25 %
2165 19-04-2019 00:58:17 10 C 25 %
2166 19-04-2019 01:10:18 9.8 C 26 %
2167 19-04-2019 01:22:17 9.6 C 26 %
2168 19-04-2019 01:34:17 9.6 C 26 %
2169 19-04-2019 01:46:17 9.7 C 25 %
2170 19-04-2019 01:58:17 9.8 C 23 %
2171 19-04-2019 02:10:18 10.2 C 20 %
2172 19-04-2019 02:22:17 10.2 C 20 %
2173 19-04-2019 02:34:17 10 C 20 %
2174 19-04-2019 02:46:17 10 C 20 %
2175 19-04-2019 02:58:17 9.4 C 23 %
Sensor: Nr:Datum:Temp:Feuchte:
Aussen-T/F 2176 19-04-2019 03:10:18 9.2 C 25 %
2177 19-04-2019 03:22:17 9.1 C 25 %
2178 19-04-2019 03:34:17 9.1 C 25 %
2179 19-04-2019 03:46:17 9.1 C 23 %
2180 19-04-2019 03:58:17 8.9 C 26 %
2181 19-04-2019 04:10:17 8.9 C 26 %
2182 19-04-2019 04:22:17 8.5 C 27 %
2183 19-04-2019 04:34:17 8.4 C 27 %
2184 19-04-2019 04:46:17 8.1 C 28 %
2185 19-04-2019 04:58:17 8 C 29 %
2186 19-04-2019 05:10:17 7.1 C 32 %
2187 19-04-2019 05:22:17 7 C 33 %
2188 19-04-2019 05:34:17 7 C 34 %
2189 19-04-2019 05:46:18 7 C 34 %
2190 19-04-2019 05:58:18 6.3 C 36 %
2191 19-04-2019 06:10:18 6 C 36 %
2192 19-04-2019 06:22:17 5.9 C 37 %
2193 19-04-2019 06:34:17 5.8 C 38 %
2194 19-04-2019 06:46:17 5.8 C 38 %
2195 19-04-2019 06:58:17 5.6 C 39 %
2196 19-04-2019 07:10:18 5.6 C 40 %
2197 19-04-2019 07:22:17 5.7 C 41 %
2198 19-04-2019 07:34:17 5.7 C 41 %
2199 19-04-2019 07:46:18 5.9 C 42 %
2200 19-04-2019 07:58:18 5.8 C 42 %
Sensor: Nr:Datum:Temp:Feuchte:
Aussen-T/F 2201 19-04-2019 08:10:17 5.9 C 42 %
2202 19-04-2019 08:22:17 6 C 41 %
2203 19-04-2019 08:34:18 6.3 C 42 %
2204 19-04-2019 08:46:18 6.9 C 42 %
2205 19-04-2019 08:58:18 7.4 C 41 %
2206 19-04-2019 09:10:17 7.8 C 39 %
2207 19-04-2019 09:22:17 8.4 C 37 %
2208 19-04-2019 09:34:17 9.2 C 32 %
2209 19-04-2019 09:46:17 10 C 30 %
2210 19-04-2019 09:58:17 10.7 C 26 %
2211 19-04-2019 10:10:17 10.7 C 26 %
2212 19-04-2019 10:22:17 13.2 C 20 %
2213 19-04-2019 10:34:18 14.5 C 20 %
2214 19-04-2019 10:46:17 16.2 C 20 %
2215 19-04-2019 10:58:17 18.4 C 20 %
2216 19-04-2019 11:10:17 19.7 C 20 %
2217 19-04-2019 11:22:18 20.2 C 20 %
2218 19-04-2019 11:34:17 18.7 C 20 %
2219 19-04-2019 11:46:17 19.4 C 20 %
2220 19-04-2019 11:58:17 19.4 C 20 %
2221 19-04-2019 12:10:17 19.4 C 20 %
2222 19-04-2019 12:22:17 20 C 20 %
2223 19-04-2019 12:34:17 20.2 C 20 %
2224 19-04-2019 12:46:17 20.4 C 20 %
2225 19-04-2019 12:58:17 20.3 C 20 %
Sensor: Nr:Datum:Temp:Feuchte:
Aussen-T/F 2226 19-04-2019 13:10:17 21 C 20 %
2227 19-04-2019 13:22:17 20.9 C 20 %
2228 19-04-2019 13:34:17 21.3 C 20 %
2229 19-04-2019 13:46:17 21.6 C 20 %
2230 19-04-2019 13:58:17 21.8 C 20 %
2231 19-04-2019 14:10:17 22.1 C 20 %
2232 19-04-2019 14:22:17 22.4 C 20 %
2233 19-04-2019 14:34:17 22.8 C 20 %
2234 19-04-2019 14:46:17 23.5 C 20 %
2235 19-04-2019 14:58:17 23.8 C 20 %
2236 19-04-2019 15:10:17 23.9 C 20 %
2237 19-04-2019 15:22:17 24.1 C 20 %
2238 19-04-2019 15:34:18 24.4 C 20 %
2239 19-04-2019 15:46:17 24.3 C 20 %
2240 19-04-2019 15:58:17 24.6 C 20 %
2241 19-04-2019 16:10:17 24.7 C 20 %
2242 19-04-2019 16:22:18 24.8 C 20 %
2243 19-04-2019 16:34:17 25.5 C 20 %
2244 19-04-2019 16:46:17 25 C 20 %
2245 19-04-2019 16:58:17 25.5 C 20 %
2246 19-04-2019 17:10:17 25.5 C 20 %
2247 19-04-2019 17:22:17 24.9 C 20 %
2248 19-04-2019 17:34:17 25.1 C 20 %
2249 19-04-2019 17:46:17 25.4 C 20 %
2250 19-04-2019 17:58:17 26.5 C 20 %
Sensor: Nr:Datum:Temp:Feuchte:
Aussen-T/F 2251 19-04-2019 18:10:17 26.8 C 20 %
2252 19-04-2019 18:22:17 26.4 C 20 %
2253 19-04-2019 18:34:17 27.4 C 20 %
2254 19-04-2019 18:46:17 27.5 C 20 %
2255 19-04-2019 18:58:17 28.1 C 20 %
2256 19-04-2019 19:10:17 25.2 C 20 %
2257 19-04-2019 19:22:17 24 C 20 %
2258 19-04-2019 19:34:17 23.4 C 20 %
2259 19-04-2019 19:46:17 22.7 C 20 %
2260 19-04-2019 19:58:17 20.7 C 20 %
2261 19-04-2019 20:10:17 18.9 C 20 %
2262 19-04-2019 20:22:17 17.2 C 20 %
2263 19-04-2019 20:34:17 16.8 C 20 %
2264 19-04-2019 20:46:17 16.6 C 20 %
2265 19-04-2019 20:58:17 15.8 C 20 %
2266 19-04-2019 21:10:17 15.2 C 20 %
2267 19-04-2019 21:22:17 14.8 C 20 %
2268 19-04-2019 21:34:17 14 C 20 %
2269 19-04-2019 21:46:17 13.2 C 20 %
2270 19-04-2019 21:58:17 12.9 C 20 %
2271 19-04-2019 22:10:17 12.2 C 20 %
2272 19-04-2019 22:22:17 11.9 C 20 %
2273 19-04-2019 22:34:17 11.6 C 20 %
2274 19-04-2019 22:46:17 12.4 C 20 %
2275 19-04-2019 22:58:17 11.1 C 20 %
Sensor: Nr:Datum:Temp:Feuchte:
Aussen-T/F 2276 19-04-2019 23:10:18 11.3 C 20 %
2277 19-04-2019 23:22:17 11.1 C 20 %
2278 19-04-2019 23:34:17 10.2 C 20 %
2279 19-04-2019 23:46:17 10.4 C 20 %
2280 19-04-2019 23:58:17 9.7 C 20 %
2281 20-04-2019 00:10:17 9.6 C 20 %
2282 20-04-2019 00:22:17 9.5 C 20 %
2283 20-04-2019 00:34:17 9.4 C 20 %
2284 20-04-2019 00:46:17 9.2 C 20 %
2285 20-04-2019 00:58:18 9 C 21 %
2286 20-04-2019 01:10:17 9 C 23 %
2287 20-04-2019 01:22:17 8.7 C 25 %
2288 20-04-2019 01:34:17 8.4 C 27 %
2289 20-04-2019 01:46:17 8.3 C 27 %
2290 20-04-2019 01:58:17 8.1 C 29 %
2291 20-04-2019 02:10:17 8.1 C 29 %
2292 20-04-2019 02:22:17 7.7 C 31 %
2293 20-04-2019 02:34:17 7.6 C 32 %
2294 20-04-2019 02:46:18 7.5 C 33 %
2295 20-04-2019 02:58:18 7.3 C 32 %
2296 20-04-2019 03:10:17 7.1 C 35 %
2297 20-04-2019 03:22:17 6.8 C 35 %
2298 20-04-2019 03:34:17 6.8 C 36 %
2299 20-04-2019 03:46:17 6.6 C 37 %
2300 20-04-2019 03:58:17 6.3 C 38 %
Sensor: Nr:Datum:Temp:Feuchte:
Aussen-T/F 2301 20-04-2019 04:10:17 6.2 C 39 %
2302 20-04-2019 04:22:17 6.1 C 40 %
2303 20-04-2019 04:34:17 5.8 C 41 %
2304 20-04-2019 04:46:17 5.7 C 41 %
2305 20-04-2019 04:58:17 5.7 C 42 %
2306 20-04-2019 05:10:17 5.5 C 43 %
2307 20-04-2019 05:22:17 5.4 C 44 %
2308 20-04-2019 05:34:17 5.3 C 44 %
2309 20-04-2019 05:46:17 5.3 C 45 %
2310 20-04-2019 05:58:17 5.1 C 45 %
2311 20-04-2019 06:10:17 5 C 45 %
2312 20-04-2019 06:22:18 5 C 45 %
2313 20-04-2019 06:34:17 4.8 C 46 %
2314 20-04-2019 06:46:17 4.8 C 47 %
2315 20-04-2019 06:58:17 5 C 47 %
2316 20-04-2019 07:10:17 5.2 C 47 %
2317 20-04-2019 07:22:17 5.3 C 47 %
2318 20-04-2019 07:34:17 5.4 C 46 %
2319 20-04-2019 07:46:17 5.4 C 46 %
2320 20-04-2019 07:58:17 5.7 C 46 %
2321 20-04-2019 08:10:17 5.8 C 46 %
2322 20-04-2019 08:22:18 6 C 45 %
2323 20-04-2019 08:34:17 6.2 C 45 %
2324 20-04-2019 08:46:17 6.6 C 45 %
2325 20-04-2019 08:58:17 6.9 C 45 %
Sensor: Nr:Datum:Temp:Feuchte:
Aussen-T/F 2326 20-04-2019 09:10:17 7.3 C 44 %
2327 20-04-2019 09:22:17 7.4 C 44 %
2328 20-04-2019 09:34:17 8.4 C 41 %
2329 20-04-2019 09:46:17 9.2 C 38 %
2330 20-04-2019 09:58:17 9.9 C 35 %
2331 20-04-2019 10:10:17 10.7 C 31 %
2332 20-04-2019 10:22:17 11.6 C 27 %
2333 20-04-2019 10:34:17 12.6 C 25 %
2334 20-04-2019 10:46:17 13.4 C 23 %
2335 20-04-2019 10:58:17 16.4 C 20 %
2336 20-04-2019 11:10:18 21.6 C 20 %
2337 20-04-2019 11:22:17 21.6 C 20 %
2338 20-04-2019 11:34:17 19.1 C 20 %
2339 20-04-2019 11:46:17 19.5 C 20 %
2340 20-04-2019 11:58:17 19.4 C 20 %
2341 20-04-2019 12:10:18 19.5 C 20 %
2342 20-04-2019 12:22:17 19.5 C 20 %
2343 20-04-2019 12:34:17 20.7 C 20 %
2344 20-04-2019 12:46:17 20.9 C 20 %
2345 20-04-2019 12:58:17 20.9 C 20 %
2346 20-04-2019 13:10:18 20.9 C 20 %
2347 20-04-2019 13:22:17 21.7 C 20 %
2348 20-04-2019 13:34:17 21.8 C 20 %
2349 20-04-2019 13:46:17 22.3 C 20 %
2350 20-04-2019 13:58:17 22.8 C 20 %
Sensor: Nr:Datum:Temp:Feuchte:
Aussen-T/F 2351 20-04-2019 14:10:18 22.7 C 20 %
2352 20-04-2019 14:22:17 23.2 C 20 %
2353 20-04-2019 14:34:17 23.8 C 20 %
2354 20-04-2019 14:46:17 24.1 C 20 %
2355 20-04-2019 14:58:17 24.4 C 20 %
2356 20-04-2019 15:10:18 24.3 C 20 %
2357 20-04-2019 15:22:17 24.7 C 20 %
2358 20-04-2019 15:34:17 24.9 C 20 %
2359 20-04-2019 15:46:17 24.9 C 20 %
2360 20-04-2019 15:58:17 24.9 C 20 %
2361 20-04-2019 16:10:17 25.4 C 20 %
2362 20-04-2019 16:22:17 25.7 C 20 %
2363 20-04-2019 16:34:18 25.3 C 20 %
2364 20-04-2019 16:46:18 25.2 C 20 %
2365 20-04-2019 16:58:18 25.5 C 20 %
2366 20-04-2019 17:10:17 25.8 C 20 %
2367 20-04-2019 17:22:17 25.5 C 20 %
2368 20-04-2019 17:34:17 25.5 C 20 %
2369 20-04-2019 17:46:17 25.5 C 20 %
2370 20-04-2019 17:58:17 25.7 C 20 %
2371 20-04-2019 18:10:18 26.4 C 20 %
2372 20-04-2019 18:22:17 25.6 C 20 %
2373 20-04-2019 18:34:17 27.1 C 20 %
2374 20-04-2019 18:46:17 26.6 C 20 %
2375 20-04-2019 18:58:17 27.7 C 20 %
Sensor: Nr:Datum:Temp:Feuchte:
Aussen-T/F 2376 20-04-2019 19:10:18 26 C 20 %
2377 20-04-2019 19:22:17 24.4 C 20 %
2378 20-04-2019 19:34:17 23.6 C 20 %
2379 20-04-2019 19:46:17 22.9 C 20 %
2380 20-04-2019 19:58:17 21 C 20 %
2381 20-04-2019 20:10:17 19.2 C 20 %
2382 20-04-2019 20:22:17 18.1 C 20 %
2383 20-04-2019 20:34:17 17.5 C 20 %
2384 20-04-2019 20:46:18 17.1 C 20 %
2385 20-04-2019 20:58:18 16.9 C 20 %
2386 20-04-2019 21:10:17 15.8 C 20 %
2387 20-04-2019 21:22:17 14.8 C 20 %
2388 20-04-2019 21:34:17 14.5 C 20 %
2389 20-04-2019 21:46:17 14 C 20 %
2390 20-04-2019 21:58:17 13.6 C 20 %
2391 20-04-2019 22:10:18 13.2 C 20 %
2392 20-04-2019 22:22:17 12.8 C 20 %
2393 20-04-2019 22:34:17 12.5 C 20 %
2394 20-04-2019 22:46:17 12.4 C 20 %
2395 20-04-2019 22:58:17 12.2 C 20 %
2396 20-04-2019 23:10:18 12 C 20 %
2397 20-04-2019 23:22:17 11.9 C 20 %
2398 20-04-2019 23:34:17 12 C 20 %
2399 20-04-2019 23:46:17 12 C 20 %
2400 20-04-2019 23:58:17 12.1 C 20 %
Sensor: Nr:Datum:Temp:Feuchte:
Aussen-T/F 2401 21-04-2019 00:10:18 11.9 C 20 %
2402 21-04-2019 00:22:17 12 C 20 %
2403 21-04-2019 00:34:18 11.8 C 20 %
2404 21-04-2019 00:46:17 11.8 C 20 %
2405 21-04-2019 00:58:17 11.5 C 20 %
2406 21-04-2019 01:10:17 12 C 20 %
2407 21-04-2019 01:22:17 11.8 C 20 %
2408 21-04-2019 01:34:18 11.2 C 20 %
2409 21-04-2019 01:46:17 10.8 C 20 %
2410 21-04-2019 01:58:17 10.7 C 20 %
2411 21-04-2019 02:10:17 10.5 C 20 %
2412 21-04-2019 02:22:17 10 C 20 %
2413 21-04-2019 02:34:17 9.9 C 20 %
2414 21-04-2019 02:46:17 10 C 20 %
2415 21-04-2019 02:58:17 10.1 C 20 %
2416 21-04-2019 03:10:17 9.9 C 20 %
2417 21-04-2019 03:22:17 9.6 C 21 %
2418 21-04-2019 03:34:17 9.3 C 23 %
2419 21-04-2019 03:46:17 9.3 C 23 %
2420 21-04-2019 03:58:17 9.1 C 21 %
2421 21-04-2019 04:10:17 8.7 C 25 %
2422 21-04-2019 04:22:17 8.5 C 26 %
2423 21-04-2019 04:34:17 7.8 C 29 %
2424 21-04-2019 04:46:17 7.4 C 30 %
2425 21-04-2019 04:58:17 6.9 C 34 %
Sensor: Nr:Datum:Temp:Feuchte:
Aussen-T/F 2426 21-04-2019 05:10:17 6.7 C 36 %
2427 21-04-2019 05:22:17 6.5 C 37 %
2428 21-04-2019 05:34:17 6.3 C 38 %
2429 21-04-2019 05:46:18 6 C 39 %
2430 21-04-2019 05:58:18 5.8 C 40 %
2431 21-04-2019 06:10:18 5.7 C 40 %
2432 21-04-2019 06:22:17 5.7 C 41 %
2433 21-04-2019 06:34:17 5.8 C 41 %
2434 21-04-2019 06:46:17 5.8 C 41 %
2435 21-04-2019 06:58:17 5.7 C 42 %
2436 21-04-2019 07:10:17 5.7 C 43 %
2437 21-04-2019 07:22:17 6.3 C 42 %
2438 21-04-2019 07:34:17 6.3 C 41 %
2439 21-04-2019 07:46:17 6.3 C 41 %
2440 21-04-2019 07:58:17 6.4 C 41 %
2441 21-04-2019 08:10:17 6.5 C 41 %
2442 21-04-2019 08:22:17 6.6 C 41 %
2443 21-04-2019 08:34:17 6.9 C 42 %
2444 21-04-2019 08:46:17 7 C 41 %
2445 21-04-2019 08:58:17 7.1 C 40 %
2446 21-04-2019 09:10:17 7.7 C 41 %
2447 21-04-2019 09:22:17 8.1 C 41 %
2448 21-04-2019 09:34:17 9 C 38 %
2449 21-04-2019 09:46:17 9.5 C 35 %
2450 21-04-2019 09:58:17 10.2 C 31 %
Sensor: Nr:Datum:Temp:Feuchte:
Aussen-T/F 2451 21-04-2019 10:10:17 11.2 C 27 %
2452 21-04-2019 10:22:17 12.3 C 24 %
2453 21-04-2019 10:34:18 13.1 C 20 %
2454 21-04-2019 10:46:18 13.1 C 20 %
2455 21-04-2019 10:58:18 16.6 C 20 %
2456 21-04-2019 11:10:17 19.2 C 20 %
2457 21-04-2019 11:22:17 21 C 20 %
2458 21-04-2019 11:34:17 18.4 C 20 %
2459 21-04-2019 11:46:18 18.4 C 20 %
2460 21-04-2019 11:58:18 18.7 C 20 %
2461 21-04-2019 12:10:17 19 C 20 %
2462 21-04-2019 12:22:17 19.5 C 20 %
2463 21-04-2019 12:34:17 20.3 C 20 %
2464 21-04-2019 12:46:17 20.3 C 20 %
2465 21-04-2019 12:58:17 20.9 C 20 %
2466 21-04-2019 13:10:17 21 C 20 %
2467 21-04-2019 13:22:17 21.3 C 20 %
2468 21-04-2019 13:34:17 21.2 C 20 %
2469 21-04-2019 13:46:17 21.2 C 20 %
2470 21-04-2019 13:58:17 22 C 20 %
2471 21-04-2019 14:10:18 22.5 C 20 %
2472 21-04-2019 14:22:17 22.9 C 20 %
2473 21-04-2019 14:34:17 23.4 C 20 %
2474 21-04-2019 14:46:17 24.1 C 20 %
2475 21-04-2019 14:58:18 24.5 C 20 %
Sensor: Nr:Datum:Temp:Feuchte:
Aussen-T/F 2476 21-04-2019 15:10:17 24.5 C 20 %
2477 21-04-2019 15:22:17 25.1 C 20 %
2478 21-04-2019 15:34:17 25.4 C 20 %
2479 21-04-2019 15:46:17 26 C 20 %
2480 21-04-2019 15:58:17 25.7 C 20 %
2481 21-04-2019 16:10:17 25.9 C 20 %
2482 21-04-2019 16:22:17 25.6 C 20 %
2483 21-04-2019 16:34:17 26.1 C 20 %
2484 21-04-2019 16:46:17 26.2 C 20 %
2485 21-04-2019 16:58:17 25.9 C 20 %
2486 21-04-2019 17:10:17 26.1 C 20 %
2487 21-04-2019 17:22:17 25.6 C 20 %
2488 21-04-2019 17:34:17 26 C 20 %
2489 21-04-2019 17:46:17 26.4 C 20 %
2490 21-04-2019 17:58:17 26.5 C 20 %
2491 21-04-2019 18:10:17 26.9 C 20 %
2492 21-04-2019 18:22:17 27.1 C 20 %
2493 21-04-2019 18:34:17 27.7 C 20 %
2494 21-04-2019 18:46:17 27.6 C 20 %
2495 21-04-2019 18:58:17 28.1 C 20 %
2496 21-04-2019 19:10:18 27.1 C 20 %
2497 21-04-2019 19:22:17 24.2 C 20 %
2498 21-04-2019 19:34:18 23.7 C 20 %
2499 21-04-2019 19:46:17 22.2 C 20 %
2500 21-04-2019 19:58:17 20.5 C 20 %
Sensor: Nr:Datum:Temp:Feuchte:
Aussen-T/F 2501 21-04-2019 20:10:17 19 C 20 %
2502 21-04-2019 20:22:17 17.9 C 20 %
2503 21-04-2019 20:34:17 17.5 C 20 %
2504 21-04-2019 20:46:17 17.5 C 20 %
2505 21-04-2019 20:58:17 16.4 C 20 %
2506 21-04-2019 21:10:17 16 C 20 %
2507 21-04-2019 21:22:17 15.6 C 20 %
2508 21-04-2019 21:34:17 15.1 C 20 %
2509 21-04-2019 21:46:17 14.2 C 20 %
2510 21-04-2019 21:58:17 13.5 C 20 %
2511 21-04-2019 22:10:17 13 C 20 %
2512 21-04-2019 22:22:17 12.7 C 20 %
2513 21-04-2019 22:34:17 12.3 C 20 %
2514 21-04-2019 22:46:17 12.1 C 20 %
2515 21-04-2019 22:58:17 12.1 C 20 %
2516 21-04-2019 23:10:18 11.4 C 20 %
2517 21-04-2019 23:22:17 11.1 C 20 %
2518 21-04-2019 23:34:17 10.7 C 20 %
2519 21-04-2019 23:46:17 10.6 C 20 %
2520 21-04-2019 23:58:17 10.2 C 20 %
2521 22-04-2019 00:10:17 9.9 C 20 %
2522 22-04-2019 00:22:17 9.6 C 20 %
2523 22-04-2019 00:34:17 9.5 C 20 %
2524 22-04-2019 00:46:17 9.2 C 20 %
2525 22-04-2019 00:58:17 9.2 C 20 %
Sensor: Nr:Datum:Temp:Feuchte:
Aussen-T/F 2526 22-04-2019 01:10:18 8.7 C 25 %
2527 22-04-2019 01:22:17 8.4 C 27 %
2528 22-04-2019 01:34:17 8.2 C 29 %
2529 22-04-2019 01:46:17 8 C 29 %
2530 22-04-2019 01:58:17 7.9 C 30 %
2531 22-04-2019 02:10:18 7.8 C 31 %
2532 22-04-2019 02:22:17 7.6 C 31 %
2533 22-04-2019 02:34:17 7.3 C 33 %
2534 22-04-2019 02:46:17 7.3 C 35 %
2535 22-04-2019 02:58:17 7.2 C 35 %
2536 22-04-2019 03:10:18 7.2 C 35 %
2537 22-04-2019 03:22:17 6.9 C 35 %
2538 22-04-2019 03:34:17 6.7 C 36 %
2539 22-04-2019 03:46:17 6.4 C 38 %
2540 22-04-2019 03:58:17 6.3 C 39 %
2541 22-04-2019 04:10:17 6 C 39 %
2542 22-04-2019 04:22:17 5.8 C 41 %
2543 22-04-2019 04:34:17 5.8 C 42 %
2544 22-04-2019 04:46:17 5.4 C 43 %
2545 22-04-2019 04:58:17 5.3 C 44 %
2546 22-04-2019 05:10:17 5.2 C 44 %
2547 22-04-2019 05:22:17 5.1 C 45 %
2548 22-04-2019 05:34:17 5 C 46 %
2549 22-04-2019 05:46:17 5 C 46 %
2550 22-04-2019 05:58:17 4.9 C 47 %
Sensor: Nr:Datum:Temp:Feuchte:
Aussen-T/F 2551 22-04-2019 06:10:17 4.9 C 47 %
2552 22-04-2019 06:22:17 4.8 C 47 %
2553 22-04-2019 06:34:18 4.7 C 47 %
2554 22-04-2019 06:46:17 4.8 C 48 %
2555 22-04-2019 06:58:17 5.1 C 47 %
2556 22-04-2019 07:10:17 5.2 C 47 %
2557 22-04-2019 07:22:17 5.3 C 46 %
2558 22-04-2019 07:34:18 5.5 C 46 %
2559 22-04-2019 07:46:17 5.8 C 46 %
2560 22-04-2019 07:58:17 5.8 C 46 %
2561 22-04-2019 08:10:17 6 C 45 %
2562 22-04-2019 08:22:17 6.3 C 45 %
2563 22-04-2019 08:34:17 6.5 C 45 %
2564 22-04-2019 08:46:17 6.8 C 45 %
2565 22-04-2019 08:58:17 7.1 C 43 %
2566 22-04-2019 09:10:17 7.5 C 42 %
2567 22-04-2019 09:22:17 8.2 C 40 %
2568 22-04-2019 09:34:17 8.8 C 38 %
2569 22-04-2019 09:46:17 9.7 C 34 %
2570 22-04-2019 09:58:17 10.7 C 30 %
2571 22-04-2019 10:10:17 11.2 C 27 %
2572 22-04-2019 10:22:17 12.3 C 22 %
2573 22-04-2019 10:34:17 13.4 C 20 %
2574 22-04-2019 10:46:17 14.6 C 20 %
2575 22-04-2019 10:58:17 17.2 C 20 %
Sensor: Nr:Datum:Temp:Feuchte:
Aussen-T/F 2576 22-04-2019 11:10:17 20.6 C 20 %
2577 22-04-2019 11:22:17 20.1 C 20 %
2578 22-04-2019 11:34:17 19.3 C 20 %
2579 22-04-2019 11:46:17 19.5 C 20 %
2580 22-04-2019 11:58:17 20 C 20 %
2581 22-04-2019 12:10:17 20.6 C 20 %
2582 22-04-2019 12:22:17 20.9 C 20 %
2583 22-04-2019 12:34:17 21.5 C 20 %
2584 22-04-2019 12:46:17 21.6 C 20 %
2585 22-04-2019 12:58:17 21.9 C 20 %
2586 22-04-2019 13:10:17 22.1 C 20 %
2587 22-04-2019 13:22:17 22.2 C 20 %
2588 22-04-2019 13:34:18 22.5 C 20 %
2589 22-04-2019 13:46:17 22.8 C 20 %
2590 22-04-2019 13:58:17 23.3 C 20 %
2591 22-04-2019 14:10:17 23.4 C 20 %
2592 22-04-2019 14:22:18 23.2 C 20 %
2593 22-04-2019 14:34:17 23.8 C 20 %
2594 22-04-2019 14:46:17 24.2 C 20 %
2595 22-04-2019 14:58:17 24.5 C 20 %
2596 22-04-2019 15:10:17 24.4 C 20 %
2597 22-04-2019 15:22:17 24.5 C 20 %
2598 22-04-2019 15:34:17 25.1 C 20 %
2599 22-04-2019 15:46:17 25.3 C 20 %
2600 22-04-2019 15:58:18 25.7 C 20 %
Sensor: Nr:Datum:Temp:Feuchte:
Aussen-T/F 2601 22-04-2019 16:10:17 25.7 C 20 %
2602 22-04-2019 16:22:17 25.4 C 20 %
2603 22-04-2019 16:34:18 25.7 C 20 %
2604 22-04-2019 16:46:17 25.9 C 20 %
2605 22-04-2019 16:58:17 26.2 C 20 %
2606 22-04-2019 17:10:17 26.1 C 20 %
2607 22-04-2019 17:22:17 26.4 C 20 %
2608 22-04-2019 17:34:17 26.4 C 20 %
2609 22-04-2019 17:46:17 25 C 20 %
2610 22-04-2019 17:58:17 25.4 C 20 %
2611 22-04-2019 18:10:17 25.4 C 20 %
2612 22-04-2019 18:22:18 24.8 C 20 %
2613 22-04-2019 18:34:17 23.9 C 20 %
2614 22-04-2019 18:46:18 23.3 C 20 %
2615 22-04-2019 18:58:18 22 C 20 %
2616 22-04-2019 19:10:17 21.3 C 20 %
2617 22-04-2019 19:22:17 20.5 C 20 %
2618 22-04-2019 19:34:17 20.9 C 20 %
2619 22-04-2019 19:46:17 20.5 C 20 %
2620 22-04-2019 19:58:17 20 C 20 %
2621 22-04-2019 20:10:17 19.2 C 20 %
2622 22-04-2019 20:22:17 19.5 C 20 %
2623 22-04-2019 20:34:17 19 C 20 %
2624 22-04-2019 20:46:17 18.3 C 20 %
2625 22-04-2019 20:58:17 17.9 C 20 %
Sensor: Nr:Datum:Temp:Feuchte:
Aussen-T/F 2626 22-04-2019 21:10:17 17.6 C 20 %
2627 22-04-2019 21:22:17 16.2 C 20 %
2628 22-04-2019 21:34:18 15.7 C 20 %
2629 22-04-2019 21:46:17 14.9 C 20 %
2630 22-04-2019 21:58:17 15.5 C 20 %
2631 22-04-2019 22:10:17 14.7 C 20 %
2632 22-04-2019 22:22:17 14.4 C 20 %
2633 22-04-2019 22:34:17 14.4 C 20 %
2634 22-04-2019 22:46:17 14.8 C 20 %
2635 22-04-2019 22:58:17 14.7 C 20 %
2636 22-04-2019 23:10:17 15.4 C 20 %
2637 22-04-2019 23:22:17 15.1 C 20 %
2638 22-04-2019 23:34:17 15.1 C 20 %
2639 22-04-2019 23:46:17 13.8 C 20 %
2640 22-04-2019 23:58:17 12.9 C 20 %
2641 23-04-2019 00:10:18 13 C 20 %
2642 23-04-2019 00:22:17 12.4 C 20 %
2643 23-04-2019 00:34:17 12.2 C 20 %
2644 23-04-2019 00:46:17 12.3 C 20 %
2645 23-04-2019 00:58:17 11.3 C 20 %
2646 23-04-2019 01:10:18 10.8 C 20 %
2647 23-04-2019 01:22:17 10.3 C 20 %
2648 23-04-2019 01:34:17 10.8 C 20 %
2649 23-04-2019 01:46:17 10.2 C 20 %
2650 23-04-2019 01:58:17 10.2 C 20 %
Sensor: Nr:Datum:Temp:Feuchte:
Aussen-T/F 2651 23-04-2019 02:10:17 9.6 C 20 %
2652 23-04-2019 02:22:17 9.6 C 20 %
2653 23-04-2019 02:34:17 9.6 C 20 %
2654 23-04-2019 02:46:17 9.3 C 20 %
2655 23-04-2019 02:58:18 9.1 C 20 %
2656 23-04-2019 03:10:17 9.1 C 20 %
2657 23-04-2019 03:22:17 9 C 20 %
2658 23-04-2019 03:34:18 8.7 C 20 %
2659 23-04-2019 03:46:17 8.6 C 20 %
2660 23-04-2019 03:58:17 8.6 C 20 %
2661 23-04-2019 04:10:17 8.6 C 20 %
2662 23-04-2019 04:22:17 8.3 C 20 %
2663 23-04-2019 04:34:17 8.3 C 20 %
2664 23-04-2019 04:46:17 8.3 C 20 %
2665 23-04-2019 04:58:17 8.3 C 20 %
2666 23-04-2019 05:10:17 8.2 C 20 %
2667 23-04-2019 05:22:17 8.4 C 20 %
2668 23-04-2019 05:34:17 8.3 C 20 %
2669 23-04-2019 05:46:17 8.2 C 20 %
2670 23-04-2019 05:58:17 7.9 C 20 %
2671 23-04-2019 06:10:17 7.6 C 20 %
2672 23-04-2019 06:22:17 7.6 C 20 %
2673 23-04-2019 06:34:17 7.5 C 23 %
2674 23-04-2019 06:46:17 7.6 C 23 %
2675 23-04-2019 06:58:17 8 C 25 %
Sensor: Nr:Datum:Temp:Feuchte:
Aussen-T/F 2676 23-04-2019 07:10:17 8.2 C 21 %
2677 23-04-2019 07:22:17 8.6 C 21 %
2678 23-04-2019 07:34:17 8.9 C 20 %
2679 23-04-2019 07:46:17 9.1 C 20 %
2680 23-04-2019 07:58:17 9.6 C 20 %
2681 23-04-2019 08:10:17 10 C 20 %
2682 23-04-2019 08:22:17 10.4 C 20 %
2683 23-04-2019 08:34:18 10.6 C 20 %
2684 23-04-2019 08:46:17 11.5 C 20 %
2685 23-04-2019 08:58:17 12 C 20 %
2686 23-04-2019 09:10:17 12.4 C 20 %
2687 23-04-2019 09:22:17 12.7 C 20 %
2688 23-04-2019 09:34:17 13.2 C 20 %
2689 23-04-2019 09:46:17 13.3 C 20 %
2690 23-04-2019 09:58:17 13.7 C 20 %
2691 23-04-2019 10:10:17 14 C 20 %
2692 23-04-2019 10:22:17 14.3 C 20 %
2693 23-04-2019 10:34:17 15.1 C 20 %
2694 23-04-2019 10:46:17 15.3 C 20 %
2695 23-04-2019 10:58:17 16 C 20 %
2696 23-04-2019 11:10:17 16 C 20 %
2697 23-04-2019 11:22:17 16.2 C 20 %
2698 23-04-2019 11:34:17 16.3 C 20 %
2699 23-04-2019 11:46:17 16.4 C 20 %
2700 23-04-2019 11:58:17 16.9 C 20 %
Sensor: Nr:Datum:Temp:Feuchte:
Aussen-T/F 2701 23-04-2019 12:10:17 16.9 C 20 %
2702 23-04-2019 12:22:17 17.8 C 20 %
2703 23-04-2019 12:34:17 18.1 C 20 %
2704 23-04-2019 12:46:17 18.7 C 20 %
2705 23-04-2019 12:58:17 18.7 C 20 %
2706 23-04-2019 13:10:17 19.1 C 20 %
2707 23-04-2019 13:22:17 19.4 C 20 %
2708 23-04-2019 13:34:17 19.4 C 20 %
2709 23-04-2019 13:46:17 20.3 C 20 %
2710 23-04-2019 13:58:17 20.4 C 20 %
2711 23-04-2019 14:10:18 20.4 C 20 %
2712 23-04-2019 14:22:17 21.4 C 20 %
2713 23-04-2019 14:34:17 21.8 C 20 %
2714 23-04-2019 14:46:17 22 C 20 %
2715 23-04-2019 14:58:17 22.2 C 20 %
2716 23-04-2019 15:10:18 22 C 20 %
2717 23-04-2019 15:22:17 22.5 C 20 %
2718 23-04-2019 15:34:17 23 C 20 %
2719 23-04-2019 15:46:17 22.8 C 20 %
2720 23-04-2019 15:58:18 23.3 C 20 %
2721 23-04-2019 16:10:17 24.1 C 20 %
2722 23-04-2019 16:22:17 24.1 C 20 %
2723 23-04-2019 16:34:17 23.9 C 20 %
2724 23-04-2019 16:46:17 23.6 C 20 %
2725 23-04-2019 16:58:17 24.1 C 20 %
Sensor: Nr:Datum:Temp:Feuchte:
Aussen-T/F 2726 23-04-2019 17:10:17 24.3 C 20 %
2727 23-04-2019 17:22:17 24.2 C 20 %
2728 23-04-2019 17:34:17 23.7 C 20 %
2729 23-04-2019 17:46:17 23.2 C 20 %
2730 23-04-2019 17:58:17 22.8 C 20 %
2731 23-04-2019 18:10:18 22.3 C 20 %
2732 23-04-2019 18:22:17 22.1 C 20 %
2733 23-04-2019 18:34:17 22.1 C 20 %
2734 23-04-2019 18:46:17 22.3 C 20 %
2735 23-04-2019 18:58:17 21.7 C 20 %
2736 23-04-2019 19:10:17 21.1 C 20 %
2737 23-04-2019 19:22:17 20.4 C 20 %
2738 23-04-2019 19:34:18 19.6 C 20 %
2739 23-04-2019 19:46:17 18.7 C 20 %
2740 23-04-2019 19:58:17 18.4 C 20 %
2741 23-04-2019 20:10:17 18.1 C 20 %
2742 23-04-2019 20:22:17 18.1 C 20 %
2743 23-04-2019 20:34:17 17.1 C 20 %
2744 23-04-2019 20:46:17 16.7 C 20 %
2745 23-04-2019 20:58:17 16.2 C 20 %
2746 23-04-2019 21:10:17 15.8 C 20 %
2747 23-04-2019 21:22:17 15.5 C 20 %
2748 23-04-2019 21:34:17 15.2 C 20 %
2749 23-04-2019 21:46:17 15.3 C 20 %
2750 23-04-2019 21:58:17 15.1 C 20 %
Sensor: Nr:Datum:Temp:Feuchte:
Aussen-T/F 2751 23-04-2019 22:10:17 15.2 C 20 %
2752 23-04-2019 22:22:17 15.3 C 20 %
2753 23-04-2019 22:34:17 15.2 C 20 %
2754 23-04-2019 22:46:17 15.3 C 20 %
2755 23-04-2019 22:58:17 15.1 C 20 %
2756 23-04-2019 23:10:18 14.8 C 20 %
2757 23-04-2019 23:22:17 14.6 C 20 %
2758 23-04-2019 23:34:17 14.5 C 20 %
2759 23-04-2019 23:46:17 14.4 C 20 %
2760 23-04-2019 23:58:17 14.3 C 20 %
2761 24-04-2019 00:10:18 14.2 C 20 %
2762 24-04-2019 00:22:17 14 C 20 %
2763 24-04-2019 00:34:17 14 C 21 %
2764 24-04-2019 00:46:17 14 C 21 %
2765 24-04-2019 00:58:17 14 C 21 %
2766 24-04-2019 01:10:18 12 C 25 %
2767 24-04-2019 01:22:17 11.8 C 26 %
2768 24-04-2019 01:34:17 11.4 C 28 %
2769 24-04-2019 01:46:17 11.1 C 30 %
2770 24-04-2019 01:58:17 11.1 C 30 %
2771 24-04-2019 02:10:18 10.7 C 31 %
2772 24-04-2019 02:22:17 10.5 C 33 %
2773 24-04-2019 02:34:17 10.3 C 35 %
2774 24-04-2019 02:46:17 10.3 C 35 %
2775 24-04-2019 02:58:17 9.9 C 36 %
Sensor: Nr:Datum:Temp:Feuchte:
Aussen-T/F 2776 24-04-2019 03:10:18 9.7 C 37 %
2777 24-04-2019 03:22:17 9.5 C 38 %
2778 24-04-2019 03:34:17 9.5 C 39 %
2779 24-04-2019 03:46:17 9.4 C 39 %
2780 24-04-2019 03:58:17 9.3 C 40 %
2781 24-04-2019 04:10:18 9.1 C 40 %
2782 24-04-2019 04:22:17 9.2 C 41 %
2783 24-04-2019 04:34:17 9.2 C 41 %
2784 24-04-2019 04:46:17 9 C 42 %
2785 24-04-2019 04:58:17 8.9 C 42 %
2786 24-04-2019 05:10:17 8.7 C 42 %
2787 24-04-2019 05:22:17 8.5 C 43 %
2788 24-04-2019 05:34:18 8.4 C 44 %
2789 24-04-2019 05:46:17 8.5 C 45 %
2790 24-04-2019 05:58:17 8.6 C 45 %
2791 24-04-2019 06:10:17 8.6 C 45 %
2792 24-04-2019 06:22:18 8.5 C 45 %
2793 24-04-2019 06:34:17 8.4 C 45 %
2794 24-04-2019 06:46:17 8.2 C 45 %
2795 24-04-2019 06:58:17 8.4 C 46 %
2796 24-04-2019 07:10:17 8.9 C 47 %
2797 24-04-2019 07:22:17 9.6 C 45 %
2798 24-04-2019 07:34:18 10.5 C 40 %
2799 24-04-2019 07:46:17 10.8 C 35 %
2800 24-04-2019 07:58:17 11.3 C 31 %
Sensor: Nr:Datum:Temp:Feuchte:
Aussen-T/F 2801 24-04-2019 08:10:17 11.4 C 29 %
2802 24-04-2019 08:22:17 11.4 C 29 %
2803 24-04-2019 08:34:17 12.4 C 25 %
2804 24-04-2019 08:46:17 12.8 C 25 %
2805 24-04-2019 08:58:17 13.1 C 25 %
2806 24-04-2019 09:10:17 13.3 C 25 %
2807 24-04-2019 09:22:17 13.8 C 23 %
2808 24-04-2019 09:34:17 14.1 C 22 %
2809 24-04-2019 09:46:18 14.9 C 22 %
2810 24-04-2019 09:58:18 15.4 C 20 %
2811 24-04-2019 10:10:17 17.2 C 20 %
2812 24-04-2019 10:22:17 17.5 C 20 %
2813 24-04-2019 10:34:18 17.5 C 20 %
2814 24-04-2019 10:46:17 17.5 C 20 %
2815 24-04-2019 10:58:17 21.4 C 20 %
2816 24-04-2019 11:10:17 19.8 C 20 %
2817 24-04-2019 11:22:18 22.5 C 20 %
2818 24-04-2019 11:34:17 20.5 C 20 %
2819 24-04-2019 11:46:17 20.8 C 20 %
2820 24-04-2019 11:58:17 20.8 C 20 %
2821 24-04-2019 12:10:17 21 C 20 %
2822 24-04-2019 12:22:17 21 C 20 %
2823 24-04-2019 12:34:17 21.8 C 20 %
2824 24-04-2019 12:46:17 21.7 C 20 %
2825 24-04-2019 12:58:17 22 C 20 %
Sensor: Nr:Datum:Temp:Feuchte:
Aussen-T/F 2826 24-04-2019 13:10:18 22 C 20 %
2827 24-04-2019 13:22:17 22.2 C 20 %
2828 24-04-2019 13:34:17 22.5 C 20 %
2829 24-04-2019 13:46:17 22.6 C 20 %
2830 24-04-2019 13:58:17 23.1 C 20 %
2831 24-04-2019 14:10:17 23.6 C 20 %
2832 24-04-2019 14:22:17 23.7 C 20 %
2833 24-04-2019 14:34:18 24.3 C 20 %
2834 24-04-2019 14:46:17 24.6 C 20 %
2835 24-04-2019 14:58:17 25.1 C 20 %
2836 24-04-2019 15:10:17 25.3 C 20 %
2837 24-04-2019 15:22:17 25.8 C 20 %
2838 24-04-2019 15:34:17 25.9 C 20 %
2839 24-04-2019 15:46:17 26.3 C 20 %
2840 24-04-2019 15:58:17 26.9 C 20 %
2841 24-04-2019 16:10:17 26.5 C 20 %
2842 24-04-2019 16:22:17 26.5 C 20 %
2843 24-04-2019 16:34:17 24.8 C 20 %
2844 24-04-2019 16:46:17 25.4 C 20 %
2845 24-04-2019 16:58:17 27.9 C 20 %
2846 24-04-2019 17:10:17 27 C 20 %
2847 24-04-2019 17:22:17 26.3 C 20 %
2848 24-04-2019 17:34:17 25.8 C 20 %
2849 24-04-2019 17:46:17 25 C 20 %
2850 24-04-2019 17:58:18 24.6 C 20 %
Sensor: Nr:Datum:Temp:Feuchte:
Aussen-T/F 2851 24-04-2019 18:10:17 23.5 C 20 %
2852 24-04-2019 18:22:17 18.7 C 20 %
2853 24-04-2019 18:34:18 17.1 C 20 %
2854 24-04-2019 18:46:17 16.3 C 20 %
2855 24-04-2019 18:58:17 15.5 C 20 %
2856 24-04-2019 19:10:18 14.2 C 25 %
2857 24-04-2019 19:22:17 13.2 C 28 %
2858 24-04-2019 19:34:17 13.2 C 28 %
2859 24-04-2019 19:46:17 13.6 C 20 %
2860 24-04-2019 19:58:17 12.5 C 23 %
2861 24-04-2019 20:10:17 11.5 C 30 %
2862 24-04-2019 20:22:17 10.8 C 40 %
2863 24-04-2019 20:34:17 10.5 C 43 %
2864 24-04-2019 20:46:17 10.4 C 45 %
2865 24-04-2019 20:58:17 9.7 C 46 %
2866 24-04-2019 21:10:18 9.6 C 47 %
2867 24-04-2019 21:22:17 9.2 C 47 %
2868 24-04-2019 21:34:17 9.3 C 49 %
2869 24-04-2019 21:46:17 9.2 C 49 %
2870 24-04-2019 21:58:17 9 C 49 %
2871 24-04-2019 22:10:17 8.9 C 50 %
2872 24-04-2019 22:22:17 8.7 C 50 %
2873 24-04-2019 22:34:17 8.8 C 51 %
2874 24-04-2019 22:46:17 8.7 C 51 %
2875 24-04-2019 22:58:17 8.5 C 51 %
Sensor: Nr:Datum:Temp:Feuchte:
Aussen-T/F 2876 24-04-2019 23:10:17 8.5 C 51 %
2877 24-04-2019 23:22:17 8.9 C 53 %
2878 24-04-2019 23:34:17 8.9 C 53 %
2879 24-04-2019 23:46:17 9 C 53 %
2880 24-04-2019 23:58:17 8.9 C 54 %
2881 25-04-2019 00:10:17 8.7 C 54 %
2882 25-04-2019 00:22:17 8.5 C 54 %
2883 25-04-2019 00:34:17 8.5 C 54 %
2884 25-04-2019 00:46:17 8 C 54 %
2885 25-04-2019 00:58:17 7.8 C 53 %
2886 25-04-2019 01:10:17 7.8 C 56 %
2887 25-04-2019 01:22:18 7.8 C 56 %
2888 25-04-2019 01:34:17 7.3 C 56 %
2889 25-04-2019 01:46:17 7.2 C 58 %
2890 25-04-2019 01:58:17 6.9 C 57 %
2891 25-04-2019 02:10:17 6.9 C 58 %
2892 25-04-2019 02:22:18 6.9 C 61 %
2893 25-04-2019 02:34:17 6.7 C 61 %
2894 25-04-2019 02:46:17 6.8 C 62 %
2895 25-04-2019 02:58:17 6.6 C 61 %
2896 25-04-2019 03:10:18 6.5 C 62 %
2897 25-04-2019 03:22:17 6.5 C 63 %
2898 25-04-2019 03:34:17 6.5 C 64 %
2899 25-04-2019 03:46:17 6.3 C 64 %
2900 25-04-2019 03:58:17 6.3 C 65 %
Sensor: Nr:Datum:Temp:Feuchte:
Aussen-T/F 2901 25-04-2019 04:10:17 6.4 C 66 %
2902 25-04-2019 04:22:17 6.4 C 66 %
2903 25-04-2019 04:34:17 6.4 C 67 %
2904 25-04-2019 04:46:17 6.5 C 68 %
2905 25-04-2019 04:58:17 6.5 C 68 %
2906 25-04-2019 05:10:18 6.4 C 67 %
2907 25-04-2019 05:22:17 6.2 C 66 %
2908 25-04-2019 05:34:17 6.4 C 68 %
2909 25-04-2019 05:46:17 6.3 C 68 %
2910 25-04-2019 05:58:17 6.2 C 67 %
2911 25-04-2019 06:10:17 6.3 C 67 %
2912 25-04-2019 06:22:17 6.2 C 67 %
2913 25-04-2019 06:34:17 6.3 C 68 %
2914 25-04-2019 06:46:18 6.5 C 69 %
2915 25-04-2019 06:58:18 6.8 C 70 %
2916 25-04-2019 07:10:17 6.8 C 70 %
2917 25-04-2019 07:22:17 7.1 C 68 %
2918 25-04-2019 07:34:18 7.7 C 70 %
2919 25-04-2019 07:46:17 8.1 C 70 %
2920 25-04-2019 07:58:17 8.3 C 68 %
2921 25-04-2019 08:10:17 8.7 C 68 %
2922 25-04-2019 08:22:17 8.7 C 64 %
2923 25-04-2019 08:34:17 9.1 C 60 %
2924 25-04-2019 08:46:17 9.7 C 53 %
2925 25-04-2019 08:58:17 10.1 C 47 %
Sensor: Nr:Datum:Temp:Feuchte:
Aussen-T/F 2926 25-04-2019 09:10:17 10 C 45 %
2927 25-04-2019 09:22:17 10.1 C 45 %
2928 25-04-2019 09:34:17 11.6 C 50 %
2929 25-04-2019 09:46:17 11.6 C 48 %
2930 25-04-2019 09:58:17 11.3 C 44 %
2931 25-04-2019 10:10:18 11.1 C 40 %
2932 25-04-2019 10:22:17 11.5 C 40 %
2933 25-04-2019 10:34:17 11.6 C 40 %
2934 25-04-2019 10:46:17 11.7 C 36 %
2935 25-04-2019 10:58:17 13 C 33 %
2936 25-04-2019 11:10:17 14.8 C 26 %
2937 25-04-2019 11:22:17 15.2 C 20 %
2938 25-04-2019 11:34:17 16.3 C 20 %
2939 25-04-2019 11:46:17 17.7 C 20 %
2940 25-04-2019 11:58:17 17.6 C 20 %
2941 25-04-2019 12:10:17 17.6 C 20 %
2942 25-04-2019 12:22:17 18.2 C 20 %
2943 25-04-2019 12:34:17 18.2 C 20 %
2944 25-04-2019 12:46:17 18 C 20 %
2945 25-04-2019 12:58:17 17.7 C 20 %
2946 25-04-2019 13:10:17 18.3 C 20 %
2947 25-04-2019 13:22:17 19.3 C 20 %
2948 25-04-2019 13:34:18 19.5 C 20 %
2949 25-04-2019 13:46:17 20 C 20 %
2950 25-04-2019 13:58:17 20.1 C 20 %
Sensor: Nr:Datum:Temp:Feuchte:
Aussen-T/F 2951 25-04-2019 14:10:17 20.1 C 20 %
2952 25-04-2019 14:22:17 20.1 C 20 %
2953 25-04-2019 14:34:17 21.5 C 20 %
2954 25-04-2019 14:46:17 21.6 C 20 %
2955 25-04-2019 14:58:17 21.7 C 20 %
2956 25-04-2019 15:10:17 21.5 C 20 %
2957 25-04-2019 15:22:17 22.1 C 20 %
2958 25-04-2019 15:34:18 22.4 C 20 %
2959 25-04-2019 15:46:17 23.1 C 20 %
2960 25-04-2019 15:58:17 22.8 C 20 %
2961 25-04-2019 16:10:17 22.7 C 20 %
2962 25-04-2019 16:22:17 22.9 C 20 %
2963 25-04-2019 16:34:17 21.9 C 20 %
2964 25-04-2019 16:46:17 21.2 C 20 %
2965 25-04-2019 16:58:17 20.7 C 20 %
2966 25-04-2019 17:10:17 21.7 C 20 %
2967 25-04-2019 17:22:17 21.3 C 20 %
2968 25-04-2019 17:34:17 21.4 C 20 %
2969 25-04-2019 17:46:17 21.6 C 20 %
2970 25-04-2019 17:58:17 21.3 C 20 %
2971 25-04-2019 18:10:18 21.4 C 20 %
2972 25-04-2019 18:22:17 20.7 C 20 %
2973 25-04-2019 18:34:17 20.9 C 20 %
2974 25-04-2019 18:46:17 19.1 C 20 %
2975 25-04-2019 18:58:17 18 C 20 %
Sensor: Nr:Datum:Temp:Feuchte:
Aussen-T/F 2976 25-04-2019 19:10:17 17.4 C 20 %
2977 25-04-2019 19:22:17 16.9 C 20 %
2978 25-04-2019 19:34:18 16.4 C 20 %
2979 25-04-2019 19:46:17 16.2 C 20 %
2980 25-04-2019 19:58:17 16 C 20 %
2981 25-04-2019 20:10:17 15.5 C 20 %
2982 25-04-2019 20:22:17 15.2 C 20 %
2983 25-04-2019 20:34:18 14.6 C 20 %
2984 25-04-2019 20:46:17 14.5 C 20 %
2985 25-04-2019 20:58:17 14.2 C 20 %
2986 25-04-2019 21:10:17 14 C 20 %
2987 25-04-2019 21:22:17 13.9 C 20 %
2988 25-04-2019 21:34:17 13.6 C 20 %
2989 25-04-2019 21:46:17 13.4 C 20 %
2990 25-04-2019 21:58:17 13.3 C 20 %
2991 25-04-2019 22:10:18 12.9 C 20 %
2992 25-04-2019 22:22:17 12.9 C 20 %
2993 25-04-2019 22:34:17 12.9 C 20 %
2994 25-04-2019 22:46:17 12.8 C 20 %
2995 25-04-2019 22:58:18 12.6 C 20 %
2996 25-04-2019 23:10:17 12.3 C 20 %
2997 25-04-2019 23:22:17 12.3 C 20 %
2998 25-04-2019 23:34:17 12 C 25 %
2999 25-04-2019 23:46:18 11.8 C 26 %
3000 25-04-2019 23:58:18 11.2 C 27 %
Sensor: Nr:Datum:Temp:Feuchte:
Aussen-T/F 3001 26-04-2019 00:10:17 11 C 29 %
3002 26-04-2019 00:22:17 11 C 29 %
3003 26-04-2019 00:34:17 11 C 29 %
3004 26-04-2019 00:46:17 10.8 C 30 %
3005 26-04-2019 00:58:17 10.8 C 30 %
3006 26-04-2019 01:10:17 10.7 C 31 %
3007 26-04-2019 01:22:17 10.7 C 31 %
3008 26-04-2019 01:34:18 10.7 C 32 %
3009 26-04-2019 01:46:17 10.7 C 32 %
3010 26-04-2019 01:58:17 10.7 C 32 %
3011 26-04-2019 02:10:17 11.2 C 27 %
3012 26-04-2019 02:22:17 11.2 C 27 %
3013 26-04-2019 02:34:18 11.2 C 26 %
3014 26-04-2019 02:46:17 11.2 C 26 %
3015 26-04-2019 02:58:17 11.2 C 26 %
3016 26-04-2019 03:10:17 11.2 C 26 %
3017 26-04-2019 03:22:17 11 C 26 %
3018 26-04-2019 03:34:18 10.9 C 27 %
3019 26-04-2019 03:46:17 10.9 C 27 %
3020 26-04-2019 03:58:17 10.9 C 27 %
3021 26-04-2019 04:10:17 10.9 C 27 %
3022 26-04-2019 04:22:17 10.9 C 27 %
3023 26-04-2019 04:34:17 10.9 C 27 %
3024 26-04-2019 04:46:17 10.5 C 29 %
3025 26-04-2019 04:58:17 10.5 C 28 %
Sensor: Nr:Datum:Temp:Feuchte:
Aussen-T/F 3026 26-04-2019 05:10:17 10.6 C 28 %
3027 26-04-2019 05:22:17 10.6 C 28 %
3028 26-04-2019 05:34:17 10.6 C 28 %
3029 26-04-2019 05:46:17 9.2 C 45 %
3030 26-04-2019 05:58:17 9.1 C 45 %
3031 26-04-2019 06:10:17 9.1 C 47 %
3032 26-04-2019 06:22:17 9 C 47 %
3033 26-04-2019 06:34:18 9 C 48 %
3034 26-04-2019 06:46:18 8.9 C 49 %
3035 26-04-2019 06:58:18 9 C 50 %
3036 26-04-2019 07:10:17 9 C 50 %
3037 26-04-2019 07:22:17 8.9 C 50 %
3038 26-04-2019 07:34:17 9.1 C 50 %
3039 26-04-2019 07:46:17 9 C 49 %
3040 26-04-2019 07:58:17 9.1 C 49 %
3041 26-04-2019 08:10:17 9.1 C 49 %
3042 26-04-2019 08:22:17 9.1 C 48 %
3043 26-04-2019 08:34:17 9 C 48 %
3044 26-04-2019 08:46:17 9.1 C 49 %
3045 26-04-2019 08:58:17 9.3 C 49 %
3046 26-04-2019 09:10:18 9.5 C 48 %
3047 26-04-2019 09:22:17 9.5 C 46 %
3048 26-04-2019 09:34:17 9.6 C 45 %
3049 26-04-2019 09:46:40 9.6 C 45 %
3050 26-04-2019 09:58:40 9.7 C 45 %
Sensor: Nr:Datum:Temp:Feuchte:
Aussen-T/F 3051 26-04-2019 10:10:17 9.7 C 45 %
3052 26-04-2019 10:22:17 9.7 C 43 %
3053 26-04-2019 10:34:17 9.8 C 42 %
3054 26-04-2019 10:46:17 10 C 40 %
3055 26-04-2019 10:58:17 10.4 C 40 %
3056 26-04-2019 11:10:17 10.6 C 40 %
3057 26-04-2019 11:22:17 10.6 C 40 %
3058 26-04-2019 11:34:17 11 C 35 %
3059 26-04-2019 11:46:17 11 C 35 %
3060 26-04-2019 11:58:17 11.3 C 33 %
3061 26-04-2019 12:10:17 11.9 C 31 %
3062 26-04-2019 12:22:17 12.7 C 28 %
3063 26-04-2019 12:34:17 12.8 C 27 %
3064 26-04-2019 12:46:17 13.3 C 25 %
3065 26-04-2019 12:58:18 13.2 C 25 %
3066 26-04-2019 13:10:17 13.6 C 24 %
3067 26-04-2019 13:22:17 13.8 C 22 %
3068 26-04-2019 13:34:17 13.8 C 20 %
3069 26-04-2019 13:46:17 13.5 C 20 %
3070 26-04-2019 13:58:17 14 C 20 %
3071 26-04-2019 14:10:17 14.1 C 20 %
3072 26-04-2019 14:22:17 14.1 C 20 %
3073 26-04-2019 14:34:17 14.6 C 20 %
3074 26-04-2019 14:46:17 14.2 C 20 %
3075 26-04-2019 14:58:17 14 C 20 %
Sensor: Nr:Datum:Temp:Feuchte:
Aussen-T/F 3076 26-04-2019 15:10:17 13.7 C 20 %
3077 26-04-2019 15:22:17 13.6 C 20 %
3078 26-04-2019 15:34:17 13.8 C 20 %
3079 26-04-2019 15:46:17 14.4 C 20 %
3080 26-04-2019 15:58:17 15.2 C 20 %
3081 26-04-2019 16:10:17 15.2 C 20 %
3082 26-04-2019 16:22:17 15.7 C 20 %
3083 26-04-2019 16:34:17 16.4 C 20 %
3084 26-04-2019 16:46:17 16.3 C 20 %
3085 26-04-2019 16:58:17 15.6 C 20 %
3086 26-04-2019 17:10:17 16.4 C 20 %
3087 26-04-2019 17:22:17 16.1 C 20 %
3088 26-04-2019 17:34:17 15.4 C 20 %
3089 26-04-2019 17:46:17 17.1 C 20 %
3090 26-04-2019 17:58:17 17.5 C 20 %
3091 26-04-2019 18:10:17 18.6 C 20 %
3092 26-04-2019 18:22:17 18.3 C 20 %
3093 26-04-2019 18:34:17 16.7 C 20 %
3094 26-04-2019 18:46:17 16.2 C 20 %
3095 26-04-2019 18:58:17 16.8 C 20 %
3096 26-04-2019 19:10:17 16.8 C 20 %
3097 26-04-2019 19:22:17 16.1 C 20 %
3098 26-04-2019 19:34:18 14.8 C 23 %
3099 26-04-2019 19:46:18 14.7 C 25 %
3100 26-04-2019 19:58:18 13.5 C 27 %
Sensor: Nr:Datum:Temp:Feuchte:
Aussen-T/F 3101 26-04-2019 20:10:17 12.7 C 26 %
3102 26-04-2019 20:22:17 12.1 C 27 %
3103 26-04-2019 20:34:17 12.1 C 27 %
3104 26-04-2019 20:46:17 10.8 C 33 %
3105 26-04-2019 20:58:17 10.7 C 33 %
3106 26-04-2019 21:10:17 10.5 C 40 %
3107 26-04-2019 21:22:17 10.3 C 37 %
3108 26-04-2019 21:34:17 10.7 C 35 %
3109 26-04-2019 21:46:17 10.7 C 34 %
3110 26-04-2019 21:58:17 10.6 C 36 %
3111 26-04-2019 22:10:17 10.2 C 37 %
3112 26-04-2019 22:22:18 9.7 C 40 %
3113 26-04-2019 22:34:17 9.6 C 43 %
3114 26-04-2019 22:46:17 9.8 C 44 %
3115 26-04-2019 22:58:17 10.1 C 41 %
3116 26-04-2019 23:10:17 9.8 C 40 %
3117 26-04-2019 23:22:17 9.3 C 41 %
3118 26-04-2019 23:34:17 9.2 C 43 %
3119 26-04-2019 23:46:17 9.2 C 45 %
3120 26-04-2019 23:58:17 8.9 C 45 %
3121 27-04-2019 00:10:17 8.5 C 46 %
3122 27-04-2019 00:22:17 8.5 C 47 %
3123 27-04-2019 00:34:17 8.7 C 48 %
3124 27-04-2019 00:46:17 8.7 C 47 %
3125 27-04-2019 00:58:17 8.7 C 47 %
Sensor: Nr:Datum:Temp:Feuchte:
Aussen-T/F 3126 27-04-2019 01:10:17 9 C 47 %
3127 27-04-2019 01:22:17 8.9 C 47 %
3128 27-04-2019 01:34:17 8.7 C 46 %
3129 27-04-2019 01:46:17 8.5 C 47 %
3130 27-04-2019 01:58:17 8.4 C 47 %
3131 27-04-2019 02:10:17 8.3 C 48 %
3132 27-04-2019 02:22:17 8.1 C 48 %
3133 27-04-2019 02:34:18 8.1 C 48 %
3134 27-04-2019 02:46:17 7.6 C 49 %
3135 27-04-2019 02:58:18 7.5 C 50 %
3136 27-04-2019 03:10:18 7.4 C 50 %
3137 27-04-2019 03:22:17 7.1 C 50 %
3138 27-04-2019 03:34:17 6.9 C 51 %
3139 27-04-2019 03:46:17 6.9 C 51 %
3140 27-04-2019 03:58:17 6.8 C 51 %
3141 27-04-2019 04:10:17 6.7 C 51 %
3142 27-04-2019 04:22:17 6.3 C 51 %
3143 27-04-2019 04:34:17 6.1 C 51 %
3144 27-04-2019 04:46:17 6.3 C 52 %
3145 27-04-2019 04:58:17 6.4 C 52 %
3146 27-04-2019 05:10:18 6 C 51 %
3147 27-04-2019 05:22:17 5.8 C 52 %
3148 27-04-2019 05:34:17 5.7 C 52 %
3149 27-04-2019 05:46:17 5.6 C 52 %
3150 27-04-2019 05:58:17 5.5 C 53 %
Sensor: Nr:Datum:Temp:Feuchte:
Aussen-T/F 3151 27-04-2019 06:10:18 5.5 C 54 %
3152 27-04-2019 06:22:17 5.7 C 55 %
3153 27-04-2019 06:34:17 5.7 C 55 %
3154 27-04-2019 06:46:17 6 C 55 %
3155 27-04-2019 06:58:17 6.3 C 56 %
3156 27-04-2019 07:10:17 6.5 C 54 %
3157 27-04-2019 07:22:17 6.7 C 55 %
3158 27-04-2019 07:34:17 7.3 C 56 %
3159 27-04-2019 07:46:17 7.5 C 57 %
3160 27-04-2019 07:58:17 8 C 56 %
3161 27-04-2019 08:10:17 8.4 C 55 %
3162 27-04-2019 08:22:17 8.7 C 52 %
3163 27-04-2019 08:34:17 8.9 C 50 %
3164 27-04-2019 08:46:17 9.3 C 48 %
3165 27-04-2019 08:58:17 9.8 C 44 %
3166 27-04-2019 09:10:17 10.4 C 41 %
3167 27-04-2019 09:22:17 10.4 C 41 %
3168 27-04-2019 09:34:17 11.1 C 32 %
3169 27-04-2019 09:46:17 11.4 C 31 %
3170 27-04-2019 09:58:17 11.2 C 30 %
3171 27-04-2019 10:10:17 11.1 C 30 %
3172 27-04-2019 10:23:17 11.1 C 31 %
3173 27-04-2019 10:35:17 11.3 C 31 %
3174 27-04-2019 10:47:17 12.1 C 29 %
3175 27-04-2019 10:58:17 12.2 C 25 %
Sensor: Nr:Datum:Temp:Feuchte:
Aussen-T/F 3176 27-04-2019 11:11:17 13.4 C 20 %
3177 27-04-2019 11:23:17 13.5 C 20 %
3178 27-04-2019 11:34:17 12.8 C 20 %
3179 27-04-2019 11:46:17 12.7 C 20 %
3180 27-04-2019 11:58:17 12.6 C 20 %
3181 27-04-2019 12:11:17 11.8 C 28 %
3182 27-04-2019 12:23:17 12.2 C 27 %
3183 27-04-2019 12:34:17 12.4 C 26 %
3184 27-04-2019 12:46:17 13.1 C 25 %
3185 27-04-2019 12:58:17 13.9 C 21 %
3186 27-04-2019 13:10:17 14.4 C 21 %
3187 27-04-2019 13:22:17 14.1 C 20 %
3188 27-04-2019 13:34:17 13.7 C 20 %
3189 27-04-2019 13:46:17 11.6 C 20 %
3190 27-04-2019 13:58:17 8.6 C 33 %
3191 27-04-2019 14:10:17 8.2 C 38 %
3192 27-04-2019 14:22:18 8.7 C 40 %
3193 27-04-2019 14:35:17 8.7 C 41 %
3194 27-04-2019 14:46:18 9.8 C 35 %
3195 27-04-2019 14:58:18 9.6 C 35 %
3196 27-04-2019 15:10:18 9.6 C 40 %
3197 27-04-2019 15:23:17 9.5 C 41 %
3198 27-04-2019 15:35:17 10.8 C 37 %
3199 27-04-2019 15:47:17 10.4 C 32 %
3200 27-04-2019 15:59:17 10.8 C 32 %
Sensor: Nr:Datum:Temp:Feuchte:
Aussen-T/F 3201 27-04-2019 16:11:17 10.8 C 32 %
3202 27-04-2019 16:23:17 12.2 C 23 %
3203 27-04-2019 16:35:17 13.4 C 20 %
3204 27-04-2019 16:47:17 12.5 C 20 %
3205 27-04-2019 16:59:17 12.7 C 20 %
3206 27-04-2019 17:11:17 11.8 C 25 %
3207 27-04-2019 17:23:17 11.8 C 21 %
3208 27-04-2019 17:35:17 12.6 C 20 %
3209 27-04-2019 17:47:17 11.8 C 20 %
3210 27-04-2019 17:59:17 13.3 C 20 %
3211 27-04-2019 18:11:17 12 C 20 %
3212 27-04-2019 18:23:17 11.2 C 22 %
3213 27-04-2019 18:35:17 9.2 C 34 %
3214 27-04-2019 18:47:17 8.9 C 42 %
3215 27-04-2019 18:59:17 9 C 43 %
3216 27-04-2019 19:11:17 9.2 C 44 %
3217 27-04-2019 19:23:17 9.2 C 41 %
3218 27-04-2019 19:35:17 8.7 C 42 %
3219 27-04-2019 19:47:17 7.8 C 40 %
3220 27-04-2019 19:59:17 7.4 C 43 %
3221 27-04-2019 20:11:17 7.2 C 44 %
3222 27-04-2019 20:23:17 7.1 C 46 %
3223 27-04-2019 20:35:17 7 C 46 %
3224 27-04-2019 20:47:17 7 C 47 %
3225 27-04-2019 20:59:18 7 C 46 %
Sensor: Nr:Datum:Temp:Feuchte:
Aussen-T/F 3226 27-04-2019 21:10:18 7 C 47 %
3227 27-04-2019 21:23:17 7 C 47 %
3228 27-04-2019 21:35:17 7 C 48 %
3229 27-04-2019 21:47:17 6.8 C 49 %
3230 27-04-2019 21:59:17 6.3 C 50 %
3231 27-04-2019 22:11:17 6.2 C 51 %
3232 27-04-2019 22:23:17 6.5 C 51 %
3233 27-04-2019 22:35:17 6.5 C 49 %
3234 27-04-2019 22:47:17 6.4 C 48 %
3235 27-04-2019 22:59:17 6.6 C 49 %
3236 27-04-2019 23:11:17 6.6 C 49 %
3237 27-04-2019 23:23:18 6.6 C 46 %
3238 27-04-2019 23:35:18 6.8 C 42 %
3239 27-04-2019 23:47:17 6.8 C 40 %
3240 27-04-2019 23:59:17 6.8 C 40 %
3241 28-04-2019 00:11:17 7 C 36 %
3242 28-04-2019 00:23:17 7 C 36 %
3243 28-04-2019 00:35:17 7 C 36 %
3244 28-04-2019 00:47:17 7 C 36 %
3245 28-04-2019 00:59:17 7.1 C 35 %
3246 28-04-2019 01:11:17 6.9 C 36 %
3247 28-04-2019 01:23:17 6.9 C 36 %
3248 28-04-2019 01:35:17 6.9 C 36 %
3249 28-04-2019 01:47:17 6.9 C 36 %
3250 28-04-2019 01:59:17 6.9 C 36 %
Sensor: Nr:Datum:Temp:Feuchte:
Aussen-T/F 3251 28-04-2019 02:11:17 6.9 C 36 %
3252 28-04-2019 02:23:17 6.9 C 36 %
3253 28-04-2019 02:35:17 6.9 C 36 %
3254 28-04-2019 02:47:17 6.9 C 36 %
3255 28-04-2019 02:59:17 6.9 C 36 %
3256 28-04-2019 03:11:17 6.9 C 36 %
3257 28-04-2019 03:23:17 6.9 C 36 %
3258 28-04-2019 03:35:18 6.9 C 36 %
3259 28-04-2019 03:47:17 6.9 C 36 %
3260 28-04-2019 03:59:17 6.9 C 36 %
3261 28-04-2019 04:11:17 6.9 C 36 %
3262 28-04-2019 04:23:17 6.9 C 36 %
3263 28-04-2019 04:35:17 6.9 C 36 %
3264 28-04-2019 04:47:17 6.9 C 36 %
3265 28-04-2019 04:59:17 6.9 C 36 %
3266 28-04-2019 05:11:17 6.9 C 36 %
3267 28-04-2019 05:23:17 6.9 C 36 %
3268 28-04-2019 05:35:17 6.9 C 36 %
3269 28-04-2019 05:47:17 6.9 C 36 %
3270 28-04-2019 05:59:17 5.9 C 34 %
3271 28-04-2019 06:11:17 5.8 C 35 %
3272 28-04-2019 06:23:17 5.8 C 35 %
3273 28-04-2019 06:35:17 5.9 C 35 %
3274 28-04-2019 06:47:17 5.8 C 35 %
3275 28-04-2019 06:59:17 6 C 35 %
Sensor: Nr:Datum:Temp:Feuchte:
Aussen-T/F 3276 28-04-2019 07:11:17 6.3 C 33 %
3277 28-04-2019 07:23:17 6.7 C 32 %
3278 28-04-2019 07:35:17 7.1 C 30 %
3279 28-04-2019 07:47:17 7.3 C 30 %
3280 28-04-2019 07:59:17 7.3 C 30 %
3281 28-04-2019 08:11:18 7.4 C 30 %
3282 28-04-2019 08:23:17 7.3 C 29 %
3283 28-04-2019 08:35:17 7.4 C 30 %
3284 28-04-2019 08:47:17 7.4 C 30 %
3285 28-04-2019 08:59:17 7.5 C 30 %
3286 28-04-2019 09:11:18 7.6 C 31 %
3287 28-04-2019 09:23:17 7.8 C 30 %
3288 28-04-2019 09:35:17 7.7 C 31 %
3289 28-04-2019 09:47:17 7.6 C 33 %
3290 28-04-2019 09:59:17 8.5 C 32 %
3291 28-04-2019 10:11:17 8.4 C 30 %
3292 28-04-2019 10:23:17 9.4 C 26 %
3293 28-04-2019 10:35:17 9.6 C 25 %
3294 28-04-2019 10:47:17 10 C 21 %
3295 28-04-2019 10:59:17 10.5 C 20 %
3296 28-04-2019 11:11:17 10.9 C 20 %
3297 28-04-2019 11:23:17 11.8 C 20 %
3298 28-04-2019 11:35:17 11.4 C 20 %
3299 28-04-2019 11:47:18 10.6 C 20 %
3300 28-04-2019 11:59:18 10.9 C 20 %
Sensor: Nr:Datum:Temp:Feuchte:
Aussen-T/F 3301 28-04-2019 12:11:17 10.9 C 20 %
3302 28-04-2019 12:23:17 10.4 C 20 %
3303 28-04-2019 12:35:17 10.4 C 20 %
3304 28-04-2019 12:47:17 10.5 C 20 %
3305 28-04-2019 12:59:17 11 C 20 %
3306 28-04-2019 13:11:17 11.1 C 20 %
3307 28-04-2019 13:23:17 11.2 C 20 %
3308 28-04-2019 13:35:17 11.4 C 20 %
3309 28-04-2019 13:47:17 12.1 C 20 %
3310 28-04-2019 13:59:17 12.3 C 20 %
3311 28-04-2019 14:11:17 12.2 C 20 %
3312 28-04-2019 14:23:17 12.2 C 20 %
3313 28-04-2019 14:35:17 12.9 C 20 %
3314 28-04-2019 14:47:17 13.2 C 20 %
3315 28-04-2019 14:59:17 13.1 C 20 %
3316 28-04-2019 15:11:17 12 C 20 %
3317 28-04-2019 15:23:18 11.4 C 20 %
3318 28-04-2019 15:35:17 10.4 C 20 %
3319 28-04-2019 15:47:17 9.8 C 27 %
3320 28-04-2019 15:59:17 9.1 C 35 %
3321 28-04-2019 16:11:17 9.1 C 35 %
3322 28-04-2019 16:23:17 9.3 C 35 %
3323 28-04-2019 16:35:17 9.6 C 33 %
3324 28-04-2019 16:47:17 11.2 C 28 %
3325 28-04-2019 16:59:17 11.2 C 28 %
Sensor: Nr:Datum:Temp:Feuchte:
Aussen-T/F 3326 28-04-2019 17:11:17 11.5 C 22 %
3327 28-04-2019 17:23:17 11.5 C 25 %
3328 28-04-2019 17:35:17 11.4 C 24 %
3329 28-04-2019 17:47:17 11.1 C 25 %
3330 28-04-2019 17:59:17 11.3 C 28 %
3331 28-04-2019 18:11:17 11.1 C 26 %
3332 28-04-2019 18:23:17 11.7 C 20 %
3333 28-04-2019 18:35:17 11.7 C 20 %
3334 28-04-2019 18:47:17 11.2 C 20 %
3335 28-04-2019 18:59:17 11.1 C 20 %
3336 28-04-2019 19:11:17 10.5 C 20 %
3337 28-04-2019 19:23:17 10.4 C 20 %
3338 28-04-2019 19:35:17 10.5 C 21 %
3339 28-04-2019 19:47:17 10.8 C 20 %
3340 28-04-2019 19:59:18 10.5 C 20 %
3341 28-04-2019 20:11:18 9.6 C 25 %
3342 28-04-2019 20:23:17 8.7 C 30 %
3343 28-04-2019 20:35:17 7.9 C 36 %
3344 28-04-2019 20:47:17 8 C 35 %
3345 28-04-2019 20:59:18 7.1 C 39 %
3346 28-04-2019 21:11:18 6.6 C 41 %
3347 28-04-2019 21:23:17 6.5 C 42 %
3348 28-04-2019 21:35:17 6.2 C 42 %
3349 28-04-2019 21:47:17 6.2 C 42 %
3350 28-04-2019 21:59:17 5.7 C 46 %
Sensor: Nr:Datum:Temp:Feuchte:
Aussen-T/F 3351 28-04-2019 22:11:17 5.2 C 46 %
3352 28-04-2019 22:23:17 5.2 C 46 %
3353 28-04-2019 22:35:17 5.2 C 46 %
3354 28-04-2019 22:47:17 4.7 C 50 %
3355 28-04-2019 22:59:17 4.5 C 50 %
3356 28-04-2019 23:11:17 4.2 C 50 %
3357 28-04-2019 23:23:17 4.1 C 50 %
3358 28-04-2019 23:35:17 4 C 50 %
3359 28-04-2019 23:47:17 3.9 C 52 %
3360 28-04-2019 23:59:17 3.9 C 52 %
3361 29-04-2019 00:11:17 3.7 C 52 %
3362 29-04-2019 00:23:17 3.6 C 52 %
3363 29-04-2019 00:35:17 3.5 C 52 %
3364 29-04-2019 00:47:17 3.4 C 52 %
3365 29-04-2019 00:59:17 3.5 C 53 %
3366 29-04-2019 01:11:17 3.5 C 53 %
3367 29-04-2019 01:23:17 3.3 C 52 %
3368 29-04-2019 01:35:17 3 C 52 %
3369 29-04-2019 01:47:17 2.8 C 53 %
3370 29-04-2019 01:59:17 2.8 C 53 %
3371 29-04-2019 02:11:17 2.9 C 54 %
3372 29-04-2019 02:23:17 2.9 C 54 %
3373 29-04-2019 02:35:18 2.7 C 54 %
3374 29-04-2019 02:47:18 3.2 C 55 %
3375 29-04-2019 02:59:18 3.2 C 55 %
Sensor: Nr:Datum:Temp:Feuchte:
Aussen-T/F 3376 29-04-2019 03:11:17 3.1 C 54 %
3377 29-04-2019 03:23:17 3.4 C 56 %
3378 29-04-2019 03:35:17 3.4 C 55 %
3379 29-04-2019 03:47:17 3.3 C 55 %
3380 29-04-2019 03:59:17 3.3 C 55 %
3381 29-04-2019 04:11:17 3.3 C 55 %
3382 29-04-2019 04:23:17 3.2 C 55 %
3383 29-04-2019 04:35:17 3.2 C 55 %
3384 29-04-2019 04:47:17 3 C 53 %
3385 29-04-2019 04:59:17 3.2 C 53 %
3386 29-04-2019 05:11:17 3.3 C 53 %
3387 29-04-2019 05:23:17 3.1 C 53 %
3388 29-04-2019 05:35:17 3 C 52 %
3389 29-04-2019 05:47:17 3 C 53 %
3390 29-04-2019 05:59:17 3 C 53 %
3391 29-04-2019 06:11:17 2.8 C 53 %
3392 29-04-2019 06:23:17 2.7 C 52 %
3393 29-04-2019 06:35:17 2.7 C 51 %
3394 29-04-2019 06:47:17 2.8 C 51 %
3395 29-04-2019 06:59:17 2.9 C 51 %
3396 29-04-2019 07:11:17 2.8 C 50 %
3397 29-04-2019 07:23:17 3 C 48 %
3398 29-04-2019 07:35:17 3.1 C 47 %
3399 29-04-2019 07:47:17 3.4 C 47 %
3400 29-04-2019 07:59:17 3.6 C 46 %
Sensor: Nr:Datum:Temp:Feuchte:
Aussen-T/F 3401 29-04-2019 08:11:17 3.7 C 46 %
3402 29-04-2019 08:23:17 3.8 C 45 %
3403 29-04-2019 08:35:17 4.5 C 42 %
3404 29-04-2019 08:47:17 4.5 C 40 %
3405 29-04-2019 08:59:17 5 C 40 %
3406 29-04-2019 09:11:17 5.2 C 39 %
3407 29-04-2019 09:23:18 5.7 C 37 %
3408 29-04-2019 09:35:17 6 C 36 %
3409 29-04-2019 09:47:17 6 C 36 %
3410 29-04-2019 09:59:17 7 C 33 %
3411 29-04-2019 10:11:17 7.8 C 32 %
3412 29-04-2019 10:23:17 8.2 C 30 %
3413 29-04-2019 10:35:17 8.6 C 31 %
3414 29-04-2019 10:47:17 9.1 C 30 %
3415 29-04-2019 10:59:17 11.7 C 23 %
3416 29-04-2019 11:11:17 11.3 C 22 %
3417 29-04-2019 11:23:17 12.5 C 20 %
3418 29-04-2019 11:35:18 11.5 C 24 %
3419 29-04-2019 11:47:17 11.3 C 25 %
3420 29-04-2019 11:59:17 11.4 C 25 %
3421 29-04-2019 12:11:17 11.9 C 24 %
3422 29-04-2019 12:23:17 12.4 C 20 %
3423 29-04-2019 12:35:17 12.7 C 20 %
3424 29-04-2019 12:47:17 12.7 C 20 %
3425 29-04-2019 12:59:17 14.2 C 20 %
Sensor: Nr:Datum:Temp:Feuchte:
Aussen-T/F 3426 29-04-2019 13:11:17 14.3 C 20 %
3427 29-04-2019 13:23:17 14.3 C 20 %
3428 29-04-2019 13:35:18 14.9 C 20 %
3429 29-04-2019 13:47:18 15 C 20 %
3430 29-04-2019 13:59:18 14.6 C 20 %
3431 29-04-2019 14:11:18 15.4 C 20 %
3432 29-04-2019 14:23:17 15.5 C 20 %
3433 29-04-2019 14:35:17 15.5 C 20 %
3434 29-04-2019 14:47:17 16.7 C 20 %
3435 29-04-2019 14:59:17 15.5 C 20 %
3436 29-04-2019 15:11:17 16.5 C 20 %
3437 29-04-2019 15:23:17 15.8 C 20 %
3438 29-04-2019 15:35:17 15.8 C 20 %
3439 29-04-2019 15:47:17 16 C 20 %
3440 29-04-2019 15:59:17 15.4 C 20 %
3441 29-04-2019 16:11:17 15.8 C 20 %
3442 29-04-2019 16:23:17 15.8 C 20 %
3443 29-04-2019 16:35:17 15.4 C 20 %
3444 29-04-2019 16:47:17 15.6 C 20 %
3445 29-04-2019 16:59:17 15.8 C 20 %
3446 29-04-2019 17:11:17 15.8 C 20 %
3447 29-04-2019 17:23:17 15.6 C 20 %
3448 29-04-2019 17:35:17 15.4 C 20 %
3449 29-04-2019 17:47:17 15.4 C 20 %
3450 29-04-2019 17:59:17 15.4 C 20 %
Sensor: Nr:Datum:Temp:Feuchte:
Aussen-T/F 3451 29-04-2019 18:11:17 13.8 C 20 %
3452 29-04-2019 18:23:17 13.2 C 20 %
3453 29-04-2019 18:35:17 12.8 C 20 %
3454 29-04-2019 18:47:17 11.2 C 33 %
3455 29-04-2019 18:59:17 10.7 C 37 %
3456 29-04-2019 19:11:18 10.4 C 40 %
3457 29-04-2019 19:23:17 10.1 C 43 %
3458 29-04-2019 19:35:17 9.8 C 45 %
3459 29-04-2019 19:47:17 9.7 C 46 %
3460 29-04-2019 19:59:17 9.7 C 47 %
3461 29-04-2019 20:11:18 9.5 C 47 %
3462 29-04-2019 20:23:17 9.6 C 47 %
3463 29-04-2019 20:35:17 9.6 C 48 %
3464 29-04-2019 20:47:17 9.5 C 48 %
3465 29-04-2019 20:59:17 9.5 C 48 %
3466 29-04-2019 21:11:18 9.4 C 48 %
3467 29-04-2019 21:23:17 9.4 C 47 %
3468 29-04-2019 21:35:17 9.4 C 46 %
3469 29-04-2019 21:47:17 9.5 C 45 %
3470 29-04-2019 21:59:17 9.5 C 45 %
3471 29-04-2019 22:11:17 9.4 C 45 %
3472 29-04-2019 22:23:17 9.4 C 46 %
3473 29-04-2019 22:35:17 9.5 C 45 %
3474 29-04-2019 22:47:17 9.4 C 45 %
3475 29-04-2019 22:59:17 9.7 C 44 %
Sensor: Nr:Datum:Temp:Feuchte:
Aussen-T/F 3476 29-04-2019 23:11:17 9.7 C 43 %
3477 29-04-2019 23:23:17 9.9 C 40 %
3478 29-04-2019 23:35:17 10.1 C 39 %
3479 29-04-2019 23:47:17 10 C 40 %
3480 29-04-2019 23:59:17 10 C 40 %
<
Sensor: Nr:Datum:Temp:Feuchte:
G-T/H 1 01-04-2019 00:08:17 11.4 C 67 %
2 01-04-2019 00:20:17 11.4 C 67 %
3 01-04-2019 00:32:17 11.3 C 67 %
4 01-04-2019 00:44:17 11.3 C 67 %
5 01-04-2019 00:56:17 11.3 C 67 %
6 01-04-2019 01:08:18 11.2 C 67 %
7 01-04-2019 01:20:17 11.2 C 67 %
8 01-04-2019 01:32:17 11.3 C 67 %
9 01-04-2019 01:44:18 11.2 C 67 %
10 01-04-2019 01:56:18 11.2 C 66 %
11 01-04-2019 02:08:17 11.2 C 66 %
12 01-04-2019 02:20:17 11.2 C 66 %
13 01-04-2019 02:32:17 11.2 C 66 %
14 01-04-2019 02:44:17 11.2 C 66 %
15 01-04-2019 02:56:17 11.1 C 66 %
16 01-04-2019 03:08:18 11.1 C 66 %
17 01-04-2019 03:20:17 11.1 C 66 %
18 01-04-2019 03:32:17 11.1 C 66 %
19 01-04-2019 03:44:17 11.1 C 66 %
20 01-04-2019 03:56:17 11 C 66 %
21 01-04-2019 04:08:17 11 C 66 %
22 01-04-2019 04:20:17 11 C 66 %
23 01-04-2019 04:32:18 11 C 65 %
24 01-04-2019 04:44:18 10.9 C 66 %
25 01-04-2019 04:56:17 10.9 C 66 %
Sensor: Nr:Datum:Temp:Feuchte:
G-T/H 26 01-04-2019 05:08:17 10.8 C 65 %
27 01-04-2019 05:20:17 10.8 C 65 %
28 01-04-2019 05:32:18 10.7 C 65 %
29 01-04-2019 05:44:18 10.7 C 65 %
30 01-04-2019 05:56:17 10.7 C 64 %
31 01-04-2019 06:08:17 10.6 C 64 %
32 01-04-2019 06:20:17 10.6 C 64 %
33 01-04-2019 06:32:17 10.5 C 64 %
34 01-04-2019 06:44:17 10.5 C 64 %
35 01-04-2019 06:57:17 10.5 C 64 %
36 01-04-2019 07:08:17 10.5 C 63 %
37 01-04-2019 07:20:17 10.4 C 63 %
38 01-04-2019 07:32:17 10.4 C 63 %
39 01-04-2019 07:44:17 10.4 C 63 %
40 01-04-2019 07:56:18 10.4 C 63 %
41 01-04-2019 08:08:17 10.4 C 63 %
42 01-04-2019 08:20:17 10.3 C 63 %
43 01-04-2019 08:32:17 10.3 C 63 %
44 01-04-2019 08:44:17 10.3 C 63 %
45 01-04-2019 08:56:18 10.2 C 63 %
46 01-04-2019 09:08:17 10.2 C 63 %
47 01-04-2019 09:20:17 10.2 C 63 %
48 01-04-2019 09:44:17 10.2 C 63 %
49 01-04-2019 09:44:17 10.2 C 63 %
50 01-04-2019 09:56:17 10.2 C 63 %
Sensor: Nr:Datum:Temp:Feuchte:
G-T/H 51 01-04-2019 10:09:17 10.2 C 64 %
52 01-04-2019 10:20:17 10.2 C 64 %
53 01-04-2019 10:32:18 10.2 C 64 %
54 01-04-2019 10:44:18 10.2 C 64 %
55 01-04-2019 10:56:17 10.2 C 64 %
56 01-04-2019 11:08:18 10.1 C 64 %
57 01-04-2019 11:21:17 10.1 C 64 %
58 01-04-2019 11:32:18 10.1 C 65 %
59 01-04-2019 11:44:18 10.1 C 65 %
60 01-04-2019 11:56:17 10.1 C 64 %
61 01-04-2019 12:08:18 10.1 C 65 %
62 01-04-2019 12:21:17 10.1 C 65 %
63 01-04-2019 12:32:17 10.4 C 64 %
64 01-04-2019 12:44:17 10.6 C 63 %
65 01-04-2019 12:56:17 10.7 C 62 %
66 01-04-2019 13:09:17 10.8 C 61 %
67 01-04-2019 13:20:17 10.8 C 61 %
68 01-04-2019 13:44:17 11.1 C 59 %
69 01-04-2019 13:44:18 11.2 C 59 %
70 01-04-2019 13:56:18 11.4 C 58 %
71 01-04-2019 14:09:17 11.5 C 58 %
72 01-04-2019 14:20:17 11.7 C 57 %
73 01-04-2019 14:33:17 11.7 C 57 %
74 01-04-2019 14:45:17 11.9 C 57 %
75 01-04-2019 14:57:17 12 C 55 %
Sensor: Nr:Datum:Temp:Feuchte:
G-T/H 76 01-04-2019 15:08:17 12.2 C 55 %
77 01-04-2019 15:21:17 12.3 C 55 %
78 01-04-2019 15:44:17 12.3 C 54 %
79 01-04-2019 15:44:18 12.4 C 54 %
80 01-04-2019 15:56:18 12.7 C 54 %
81 01-04-2019 16:09:17 12.8 C 53 %
82 01-04-2019 16:20:18 12.8 C 53 %
83 01-04-2019 16:33:17 13.3 C 52 %
84 01-04-2019 16:45:17 13.5 C 52 %
85 01-04-2019 16:56:17 13.7 C 51 %
86 01-04-2019 17:09:17 13.7 C 51 %
87 01-04-2019 17:21:17 13.7 C 51 %
88 01-04-2019 17:33:17 13.8 C 51 %
89 01-04-2019 17:45:17 13.8 C 50 %
90 01-04-2019 17:56:17 13.7 C 50 %
91 01-04-2019 18:09:17 13.8 C 50 %
92 01-04-2019 18:21:17 13.8 C 50 %
93 01-04-2019 18:33:17 13.8 C 49 %
94 01-04-2019 18:45:17 13.8 C 49 %
95 01-04-2019 18:57:17 13.5 C 49 %
96 01-04-2019 19:08:17 13.1 C 50 %
97 01-04-2019 19:21:17 13.1 C 51 %
98 01-04-2019 19:33:17 12.8 C 53 %
99 01-04-2019 19:44:18 12.8 C 54 %
100 01-04-2019 19:56:18 12.7 C 54 %
Sensor: Nr:Datum:Temp:Feuchte:
G-T/H 101 01-04-2019 20:09:17 12.6 C 54 %
102 01-04-2019 20:21:17 12.5 C 55 %
103 01-04-2019 20:33:17 12.4 C 56 %
104 01-04-2019 20:45:17 12.4 C 56 %
105 01-04-2019 20:57:18 12.3 C 57 %
106 01-04-2019 21:09:17 12.3 C 57 %
107 01-04-2019 21:21:17 12.2 C 57 %
108 01-04-2019 21:33:17 12.2 C 58 %
109 01-04-2019 21:45:17 12.2 C 58 %
110 01-04-2019 21:57:17 12.1 C 58 %
111 01-04-2019 22:09:17 12.1 C 58 %
112 01-04-2019 22:21:17 12.1 C 59 %
113 01-04-2019 22:33:17 12 C 59 %
114 01-04-2019 22:45:17 12 C 59 %
115 01-04-2019 22:57:17 12 C 59 %
116 01-04-2019 23:09:17 12 C 59 %
117 01-04-2019 23:21:17 12 C 60 %
118 01-04-2019 23:33:17 11.9 C 60 %
119 01-04-2019 23:45:17 11.9 C 61 %
120 01-04-2019 23:57:17 11.9 C 61 %
121 02-04-2019 00:09:17 11.8 C 61 %
122 02-04-2019 00:21:17 11.9 C 61 %
123 02-04-2019 00:33:17 11.8 C 61 %
124 02-04-2019 00:45:17 11.8 C 61 %
125 02-04-2019 00:57:17 11.7 C 61 %
Sensor: Nr:Datum:Temp:Feuchte:
G-T/H 126 02-04-2019 01:09:17 11.8 C 61 %
127 02-04-2019 01:21:17 11.7 C 61 %
128 02-04-2019 01:33:18 11.7 C 61 %
129 02-04-2019 01:45:17 11.7 C 61 %
130 02-04-2019 01:57:17 11.6 C 61 %
131 02-04-2019 02:09:17 11.6 C 61 %
132 02-04-2019 02:21:17 11.6 C 61 %
133 02-04-2019 02:33:17 11.6 C 61 %
134 02-04-2019 02:45:17 11.6 C 61 %
135 02-04-2019 02:57:17 11.5 C 61 %
136 02-04-2019 03:09:17 11.5 C 61 %
137 02-04-2019 03:21:17 11.5 C 61 %
138 02-04-2019 03:33:17 11.5 C 61 %
139 02-04-2019 03:45:17 11.4 C 61 %
140 02-04-2019 03:57:17 11.4 C 61 %
141 02-04-2019 04:09:17 11.4 C 61 %
142 02-04-2019 04:21:17 11.3 C 61 %
143 02-04-2019 04:33:17 11.3 C 61 %
144 02-04-2019 04:45:18 11.2 C 61 %
145 02-04-2019 04:57:18 11.2 C 61 %
146 02-04-2019 05:09:17 11.1 C 61 %
147 02-04-2019 05:21:17 11.1 C 60 %
148 02-04-2019 05:33:17 11.1 C 60 %
149 02-04-2019 05:45:17 11 C 60 %
150 02-04-2019 05:57:17 11 C 60 %
Sensor: Nr:Datum:Temp:Feuchte:
G-T/H 151 02-04-2019 06:09:17 11 C 60 %
152 02-04-2019 06:21:17 11 C 60 %
153 02-04-2019 06:33:17 11 C 60 %
154 02-04-2019 06:45:17 11 C 60 %
155 02-04-2019 06:57:17 11 C 60 %
156 02-04-2019 07:09:17 10.9 C 61 %
157 02-04-2019 07:21:17 10.9 C 61 %
158 02-04-2019 07:33:17 10.9 C 62 %
159 02-04-2019 07:45:17 10.9 C 62 %
160 02-04-2019 07:57:17 10.8 C 62 %
161 02-04-2019 08:09:18 10.8 C 62 %
162 02-04-2019 08:21:17 10.8 C 62 %
163 02-04-2019 08:33:17 10.8 C 62 %
164 02-04-2019 08:45:18 10.8 C 62 %
165 02-04-2019 08:57:18 10.8 C 62 %
166 02-04-2019 09:09:17 10.8 C 63 %
167 02-04-2019 09:21:17 10.7 C 63 %
168 02-04-2019 09:33:17 10.7 C 63 %
169 02-04-2019 09:45:17 10.7 C 63 %
170 02-04-2019 09:57:17 10.7 C 63 %
171 02-04-2019 10:09:17 10.7 C 63 %
172 02-04-2019 10:21:18 10.7 C 63 %
173 02-04-2019 10:33:17 10.7 C 63 %
174 02-04-2019 10:45:17 10.7 C 63 %
175 02-04-2019 10:57:17 10.7 C 63 %
Sensor: Nr:Datum:Temp:Feuchte:
G-T/H 176 02-04-2019 11:09:18 10.7 C 63 %
177 02-04-2019 11:21:17 10.7 C 64 %
178 02-04-2019 11:33:18 10.7 C 64 %
179 02-04-2019 11:45:17 10.7 C 64 %
180 02-04-2019 11:57:17 10.8 C 64 %
181 02-04-2019 12:09:18 10.8 C 64 %
182 02-04-2019 12:21:17 10.8 C 64 %
183 02-04-2019 12:33:17 10.8 C 64 %
184 02-04-2019 12:45:17 10.8 C 64 %
185 02-04-2019 12:57:17 10.8 C 64 %
186 02-04-2019 13:09:17 10.9 C 65 %
187 02-04-2019 13:21:17 11 C 64 %
188 02-04-2019 13:33:17 10.9 C 65 %
189 02-04-2019 13:45:17 10.9 C 65 %
190 02-04-2019 13:57:17 11 C 64 %
191 02-04-2019 14:09:18 11.1 C 64 %
192 02-04-2019 14:21:17 11.1 C 64 %
193 02-04-2019 14:33:17 11.1 C 65 %
194 02-04-2019 14:45:18 11.1 C 65 %
195 02-04-2019 14:57:18 11.1 C 65 %
196 02-04-2019 15:09:17 11.2 C 65 %
197 02-04-2019 15:21:17 11.2 C 65 %
198 02-04-2019 15:33:17 11.2 C 65 %
199 02-04-2019 15:45:17 11.3 C 65 %
200 02-04-2019 15:57:17 11.3 C 65 %
Sensor: Nr:Datum:Temp:Feuchte:
G-T/H 201 02-04-2019 16:09:17 11.3 C 65 %
202 02-04-2019 16:21:17 11.3 C 65 %
203 02-04-2019 16:33:17 11.4 C 65 %
204 02-04-2019 16:45:17 11.4 C 65 %
205 02-04-2019 16:57:17 11.4 C 65 %
206 02-04-2019 17:09:17 11.4 C 66 %
207 02-04-2019 17:21:17 11.5 C 66 %
208 02-04-2019 17:33:17 11.5 C 66 %
209 02-04-2019 17:45:17 11.5 C 66 %
210 02-04-2019 17:57:17 11.5 C 66 %
211 02-04-2019 18:09:17 11.6 C 66 %
212 02-04-2019 18:21:17 11.6 C 66 %
213 02-04-2019 18:33:17 11.5 C 66 %
214 02-04-2019 18:45:17 11.6 C 66 %
215 02-04-2019 18:57:17 11.6 C 66 %
216 02-04-2019 19:09:17 11.6 C 66 %
217 02-04-2019 19:21:17 11.6 C 66 %
218 02-04-2019 19:33:17 11.7 C 66 %
219 02-04-2019 19:45:17 11.7 C 66 %
220 02-04-2019 19:57:17 11.7 C 66 %
221 02-04-2019 20:09:17 11.7 C 66 %
222 02-04-2019 20:21:17 11.7 C 66 %
223 02-04-2019 20:33:17 11.7 C 66 %
224 02-04-2019 20:45:17 11.7 C 67 %
225 02-04-2019 20:57:17 11.7 C 67 %
Sensor: Nr:Datum:Temp:Feuchte:
G-T/H 226 02-04-2019 21:09:17 11.7 C 67 %
227 02-04-2019 21:21:17 11.7 C 67 %
228 02-04-2019 21:33:17 11.7 C 67 %
229 02-04-2019 21:45:17 11.8 C 67 %
230 02-04-2019 21:57:17 11.8 C 67 %
231 02-04-2019 22:09:17 11.8 C 67 %
232 02-04-2019 22:21:17 11.8 C 67 %
233 02-04-2019 22:33:17 11.8 C 67 %
234 02-04-2019 22:45:17 11.8 C 67 %
235 02-04-2019 22:57:17 11.8 C 67 %
236 02-04-2019 23:09:17 11.8 C 67 %
237 02-04-2019 23:21:17 11.8 C 67 %
238 02-04-2019 23:33:17 11.8 C 67 %
239 02-04-2019 23:45:17 11.8 C 67 %
240 02-04-2019 23:57:17 11.8 C 67 %
241 03-04-2019 00:09:17 11.8 C 67 %
242 03-04-2019 00:21:17 11.8 C 67 %
243 03-04-2019 00:33:17 11.8 C 67 %
244 03-04-2019 00:45:18 11.8 C 67 %
245 03-04-2019 00:57:18 11.8 C 67 %
246 03-04-2019 01:09:17 11.8 C 67 %
247 03-04-2019 01:21:18 11.8 C 67 %
248 03-04-2019 01:33:17 11.8 C 67 %
249 03-04-2019 01:45:17 11.8 C 67 %
250 03-04-2019 01:57:17 11.8 C 67 %
Sensor: Nr:Datum:Temp:Feuchte:
G-T/H 251 03-04-2019 02:09:17 11.8 C 67 %
252 03-04-2019 02:21:17 11.8 C 67 %
253 03-04-2019 02:33:17 11.8 C 67 %
254 03-04-2019 02:45:18 11.7 C 67 %
255 03-04-2019 02:57:18 11.8 C 67 %
256 03-04-2019 03:09:17 11.8 C 67 %
257 03-04-2019 03:21:17 11.7 C 67 %
258 03-04-2019 03:33:17 11.8 C 67 %
259 03-04-2019 03:45:18 11.7 C 67 %
260 03-04-2019 03:57:18 11.7 C 67 %
261 03-04-2019 04:09:17 11.7 C 67 %
262 03-04-2019 04:21:17 11.7 C 67 %
263 03-04-2019 04:33:17 11.7 C 67 %
264 03-04-2019 04:45:17 11.7 C 67 %
265 03-04-2019 04:57:17 11.7 C 67 %
266 03-04-2019 05:09:18 11.7 C 67 %
267 03-04-2019 05:21:17 11.7 C 67 %
268 03-04-2019 05:33:17 11.7 C 67 %
269 03-04-2019 05:45:17 11.7 C 67 %
270 03-04-2019 05:57:17 11.7 C 67 %
271 03-04-2019 06:09:18 11.7 C 67 %
272 03-04-2019 06:21:17 11.6 C 67 %
273 03-04-2019 06:33:17 11.6 C 67 %
274 03-04-2019 06:45:18 11.6 C 67 %
275 03-04-2019 06:57:18 11.6 C 67 %
Sensor: Nr:Datum:Temp:Feuchte:
G-T/H 276 03-04-2019 07:09:17 11.6 C 67 %
277 03-04-2019 07:21:17 11.6 C 67 %
278 03-04-2019 07:33:17 11.6 C 67 %
279 03-04-2019 07:45:18 11.6 C 67 %
280 03-04-2019 07:57:18 11.6 C 67 %
281 03-04-2019 08:09:17 11.6 C 67 %
282 03-04-2019 08:21:17 11.6 C 67 %
283 03-04-2019 08:33:18 11.5 C 67 %
284 03-04-2019 08:45:17 11.6 C 67 %
285 03-04-2019 08:57:17 11.5 C 67 %
286 03-04-2019 09:09:18 11.5 C 67 %
287 03-04-2019 09:21:17 11.5 C 67 %
288 03-04-2019 09:33:18 11.5 C 67 %
289 03-04-2019 09:45:17 11.5 C 67 %
290 03-04-2019 09:57:17 11.5 C 67 %
291 03-04-2019 10:09:18 11.5 C 67 %
292 03-04-2019 10:21:17 11.5 C 67 %
293 03-04-2019 10:33:17 11.4 C 67 %
294 03-04-2019 10:45:17 11.5 C 67 %
295 03-04-2019 10:57:17 11.4 C 67 %
296 03-04-2019 11:09:17 11.4 C 67 %
297 03-04-2019 11:21:17 11.4 C 67 %
298 03-04-2019 11:33:18 11.4 C 67 %
299 03-04-2019 11:45:17 11.4 C 67 %
300 03-04-2019 11:57:17 11.4 C 67 %
Sensor: Nr:Datum:Temp:Feuchte:
G-T/H 301 03-04-2019 12:09:18 11.4 C 67 %
302 03-04-2019 12:21:17 11.4 C 67 %
303 03-04-2019 12:33:18 11.4 C 67 %
304 03-04-2019 12:45:17 11.4 C 67 %
305 03-04-2019 12:57:17 11.4 C 67 %
306 03-04-2019 13:09:18 11.4 C 67 %
307 03-04-2019 13:21:17 11.4 C 67 %
308 03-04-2019 13:33:17 11.4 C 67 %
309 03-04-2019 13:45:17 11.4 C 67 %
310 03-04-2019 13:57:17 11.4 C 67 %
311 03-04-2019 14:09:17 11.4 C 67 %
312 03-04-2019 14:21:18 11.4 C 67 %
313 03-04-2019 14:33:17 11.4 C 67 %
314 03-04-2019 14:45:17 11.4 C 67 %
315 03-04-2019 14:57:17 11.4 C 67 %
316 03-04-2019 15:09:17 11.4 C 67 %
317 03-04-2019 15:21:17 11.4 C 67 %
318 03-04-2019 15:33:17 11.4 C 67 %
319 03-04-2019 15:45:17 11.4 C 67 %
320 03-04-2019 15:57:17 11.4 C 67 %
321 03-04-2019 16:09:17 11.4 C 67 %
322 03-04-2019 16:21:17 11.4 C 67 %
323 03-04-2019 16:33:17 11.4 C 67 %
324 03-04-2019 16:45:17 11.4 C 67 %
325 03-04-2019 16:57:17 11.4 C 67 %
Sensor: Nr:Datum:Temp:Feuchte:
G-T/H 326 03-04-2019 17:09:18 11.4 C 67 %
327 03-04-2019 17:21:17 11.4 C 67 %
328 03-04-2019 17:33:18 11.4 C 67 %
329 03-04-2019 17:45:17 11.4 C 67 %
330 03-04-2019 17:57:17 11.4 C 67 %
331 03-04-2019 18:09:18 11.4 C 67 %
332 03-04-2019 18:21:17 11.4 C 67 %
333 03-04-2019 18:33:17 11.4 C 67 %
334 03-04-2019 18:45:17 11.4 C 67 %
335 03-04-2019 18:57:17 11.4 C 67 %
336 03-04-2019 19:09:17 11.4 C 67 %
337 03-04-2019 19:21:17 11.4 C 67 %
338 03-04-2019 19:33:17 11.4 C 67 %
339 03-04-2019 19:45:17 11.4 C 67 %
340 03-04-2019 19:57:17 11.4 C 67 %
341 03-04-2019 20:09:17 11.4 C 67 %
342 03-04-2019 20:21:17 11.4 C 67 %
343 03-04-2019 20:33:17 11.4 C 67 %
344 03-04-2019 20:45:18 11.3 C 67 %
345 03-04-2019 20:57:18 11.3 C 67 %
346 03-04-2019 21:09:17 11.3 C 67 %
347 03-04-2019 21:21:17 11.3 C 67 %
348 03-04-2019 21:33:18 11.3 C 67 %
349 03-04-2019 21:45:17 11.3 C 67 %
350 03-04-2019 21:57:17 11.3 C 67 %
Sensor: Nr:Datum:Temp:Feuchte:
G-T/H 351 03-04-2019 22:09:17 11.3 C 67 %
352 03-04-2019 22:21:18 11.3 C 67 %
353 03-04-2019 22:33:17 11.2 C 67 %
354 03-04-2019 22:45:17 11.2 C 67 %
355 03-04-2019 22:57:17 11.2 C 67 %
356 03-04-2019 23:09:17 11.2 C 67 %
357 03-04-2019 23:21:17 11.2 C 67 %
358 03-04-2019 23:33:18 11.2 C 67 %
359 03-04-2019 23:45:17 11.2 C 67 %
360 03-04-2019 23:57:17 11.2 C 67 %
361 04-04-2019 00:09:18 11.1 C 67 %
362 04-04-2019 00:21:17 11.1 C 67 %
363 04-04-2019 00:33:18 11.1 C 67 %
364 04-04-2019 00:45:18 11.1 C 67 %
365 04-04-2019 00:57:18 11.1 C 67 %
366 04-04-2019 01:09:17 11.1 C 67 %
367 04-04-2019 01:21:18 11.1 C 67 %
368 04-04-2019 01:33:17 11 C 67 %
369 04-04-2019 01:45:17 11 C 67 %
370 04-04-2019 01:57:17 11 C 67 %
371 04-04-2019 02:09:17 11 C 67 %
372 04-04-2019 02:21:18 11 C 67 %
373 04-04-2019 02:33:17 11 C 67 %
374 04-04-2019 02:45:17 11 C 67 %
375 04-04-2019 02:57:17 10.9 C 68 %
Sensor: Nr:Datum:Temp:Feuchte:
G-T/H 376 04-04-2019 03:09:17 10.9 C 68 %
377 04-04-2019 03:21:18 10.9 C 68 %
378 04-04-2019 03:33:17 10.9 C 68 %
379 04-04-2019 03:45:17 10.8 C 68 %
380 04-04-2019 03:57:17 10.8 C 68 %
381 04-04-2019 04:09:18 10.8 C 68 %
382 04-04-2019 04:21:17 10.8 C 68 %
383 04-04-2019 04:33:18 10.8 C 68 %
384 04-04-2019 04:45:17 10.8 C 68 %
385 04-04-2019 04:57:18 10.8 C 68 %
386 04-04-2019 05:09:17 10.7 C 68 %
387 04-04-2019 05:21:17 10.7 C 68 %
388 04-04-2019 05:33:17 10.7 C 68 %
389 04-04-2019 05:45:17 10.7 C 68 %
390 04-04-2019 05:57:17 10.7 C 68 %
391 04-04-2019 06:09:18 10.7 C 68 %
392 04-04-2019 06:21:18 10.7 C 68 %
393 04-04-2019 06:33:17 10.7 C 68 %
394 04-04-2019 06:45:17 10.7 C 68 %
395 04-04-2019 06:57:17 10.7 C 68 %
396 04-04-2019 07:09:17 10.7 C 68 %
397 04-04-2019 07:21:17 10.6 C 68 %
398 04-04-2019 07:33:18 10.6 C 68 %
399 04-04-2019 07:45:17 10.6 C 68 %
400 04-04-2019 07:57:17 10.6 C 68 %
Sensor: Nr:Datum:Temp:Feuchte:
G-T/H 401 04-04-2019 08:09:18 10.6 C 68 %
402 04-04-2019 08:21:17 10.5 C 68 %
403 04-04-2019 08:33:17 10.5 C 68 %
404 04-04-2019 08:45:17 10.5 C 68 %
405 04-04-2019 08:57:17 10.5 C 68 %
406 04-04-2019 09:09:17 10.5 C 68 %
407 04-04-2019 09:21:17 10.5 C 68 %
408 04-04-2019 09:33:17 10.5 C 68 %
409 04-04-2019 09:45:18 10.5 C 68 %
410 04-04-2019 09:57:18 10.5 C 68 %
411 04-04-2019 10:09:17 10.5 C 68 %
412 04-04-2019 10:21:17 10.5 C 68 %
413 04-04-2019 10:33:18 10.5 C 68 %
414 04-04-2019 10:45:17 10.5 C 68 %
415 04-04-2019 10:57:17 10.5 C 68 %
416 04-04-2019 11:09:18 10.5 C 68 %
417 04-04-2019 11:21:17 10.4 C 68 %
418 04-04-2019 11:33:17 10.5 C 68 %
419 04-04-2019 11:45:17 10.5 C 68 %
420 04-04-2019 11:57:17 10.4 C 68 %
421 04-04-2019 12:09:17 10.4 C 68 %
422 04-04-2019 12:21:17 10.4 C 68 %
423 04-04-2019 12:33:17 10.4 C 68 %
424 04-04-2019 12:45:17 10.4 C 68 %
425 04-04-2019 12:57:18 10.4 C 68 %
Sensor: Nr:Datum:Temp:Feuchte:
G-T/H 426 04-04-2019 13:09:17 10.4 C 68 %
427 04-04-2019 13:21:17 10.4 C 68 %
428 04-04-2019 13:33:17 10.4 C 68 %
429 04-04-2019 13:45:18 10.4 C 68 %
430 04-04-2019 13:57:18 10.4 C 68 %
431 04-04-2019 14:09:17 10.4 C 68 %
432 04-04-2019 14:21:17 10.4 C 68 %
433 04-04-2019 14:33:17 10.4 C 68 %
434 04-04-2019 14:45:17 10.4 C 68 %
435 04-04-2019 14:57:18 10.4 C 68 %
436 04-04-2019 15:09:17 10.4 C 68 %
437 04-04-2019 15:21:17 10.4 C 68 %
438 04-04-2019 15:33:18 10.4 C 68 %
439 04-04-2019 15:45:18 10.4 C 68 %
440 04-04-2019 15:57:18 10.4 C 68 %
441 04-04-2019 16:09:17 10.4 C 68 %
442 04-04-2019 16:21:17 10.4 C 68 %
443 04-04-2019 16:33:17 10.4 C 68 %
444 04-04-2019 16:45:17 10.4 C 68 %
445 04-04-2019 16:57:17 10.4 C 68 %
446 04-04-2019 17:09:17 10.4 C 68 %
447 04-04-2019 17:21:17 10.4 C 68 %
448 04-04-2019 17:33:17 10.4 C 68 %
449 04-04-2019 17:45:17 10.4 C 68 %
450 04-04-2019 17:57:17 10.5 C 68 %
Sensor: Nr:Datum:Temp:Feuchte:
G-T/H 451 04-04-2019 18:09:17 10.4 C 68 %
452 04-04-2019 18:21:17 10.5 C 68 %
453 04-04-2019 18:33:17 10.5 C 68 %
454 04-04-2019 18:45:17 10.5 C 68 %
455 04-04-2019 18:57:17 10.5 C 68 %
456 04-04-2019 19:09:18 10.4 C 68 %
457 04-04-2019 19:21:17 10.4 C 68 %
458 04-04-2019 19:33:17 10.5 C 68 %
459 04-04-2019 19:45:18 10.5 C 68 %
460 04-04-2019 19:57:18 10.4 C 68 %
461 04-04-2019 20:09:17 10.4 C 68 %
462 04-04-2019 20:21:17 10.4 C 68 %
463 04-04-2019 20:33:17 10.4 C 68 %
464 04-04-2019 20:45:17 10.4 C 68 %
465 04-04-2019 20:57:17 10.4 C 68 %
466 04-04-2019 21:09:17 10.4 C 68 %
467 04-04-2019 21:21:17 10.4 C 68 %
468 04-04-2019 21:33:17 10.4 C 68 %
469 04-04-2019 21:45:17 10.4 C 68 %
470 04-04-2019 21:57:18 10.4 C 68 %
471 04-04-2019 22:09:17 10.3 C 68 %
472 04-04-2019 22:21:17 10.3 C 68 %
473 04-04-2019 22:33:17 10.4 C 68 %
474 04-04-2019 22:45:17 10.3 C 68 %
475 04-04-2019 22:57:17 10.3 C 68 %
Sensor: Nr:Datum:Temp:Feuchte:
G-T/H 476 04-04-2019 23:09:17 10.3 C 68 %
477 04-04-2019 23:21:18 10.3 C 68 %
478 04-04-2019 23:33:17 10.3 C 68 %
479 04-04-2019 23:45:18 10.3 C 68 %
480 04-04-2019 23:57:18 10.2 C 68 %
481 05-04-2019 00:09:17 10.2 C 68 %
482 05-04-2019 00:21:18 10.2 C 68 %
483 05-04-2019 00:33:17 10.1 C 68 %
484 05-04-2019 00:45:17 10.1 C 68 %
485 05-04-2019 00:57:17 10.1 C 68 %
486 05-04-2019 01:09:17 10 C 67 %
487 05-04-2019 01:21:17 10.1 C 67 %
488 05-04-2019 01:33:18 10 C 67 %
489 05-04-2019 01:45:17 10 C 67 %
490 05-04-2019 01:57:17 10 C 67 %
491 05-04-2019 02:09:17 10 C 67 %
492 05-04-2019 02:21:17 10 C 67 %
493 05-04-2019 02:33:18 9.9 C 68 %
494 05-04-2019 02:45:17 9.9 C 68 %
495 05-04-2019 02:57:18 9.9 C 68 %
496 05-04-2019 03:09:17 9.8 C 67 %
497 05-04-2019 03:21:17 9.8 C 67 %
498 05-04-2019 03:33:18 9.8 C 67 %
499 05-04-2019 03:45:18 9.8 C 67 %
500 05-04-2019 03:57:18 9.8 C 67 %
Sensor: Nr:Datum:Temp:Feuchte:
G-T/H 501 05-04-2019 04:09:17 9.8 C 67 %
502 05-04-2019 04:21:17 9.8 C 67 %
503 05-04-2019 04:33:17 9.8 C 67 %
504 05-04-2019 04:45:17 9.8 C 67 %
505 05-04-2019 04:57:17 9.8 C 68 %
506 05-04-2019 05:09:17 9.8 C 68 %
507 05-04-2019 05:21:18 9.8 C 68 %
508 05-04-2019 05:33:17 9.8 C 68 %
509 05-04-2019 05:45:17 9.8 C 68 %
510 05-04-2019 05:57:17 9.8 C 68 %
511 05-04-2019 06:09:18 9.8 C 68 %
512 05-04-2019 06:21:17 9.8 C 68 %
513 05-04-2019 06:33:17 9.7 C 68 %
514 05-04-2019 06:45:17 9.7 C 68 %
515 05-04-2019 06:57:17 9.7 C 68 %
516 05-04-2019 07:09:17 9.7 C 68 %
517 05-04-2019 07:21:17 9.7 C 68 %
518 05-04-2019 07:33:17 9.7 C 68 %
519 05-04-2019 07:45:17 9.7 C 68 %
520 05-04-2019 07:57:17 9.7 C 68 %
521 05-04-2019 08:09:17 9.7 C 68 %
522 05-04-2019 08:21:17 9.7 C 68 %
523 05-04-2019 08:33:17 9.7 C 68 %
524 05-04-2019 08:45:17 9.6 C 68 %
525 05-04-2019 08:57:17 9.7 C 68 %
Sensor: Nr:Datum:Temp:Feuchte:
G-T/H 526 05-04-2019 09:09:18 9.7 C 68 %
527 05-04-2019 09:21:17 9.7 C 69 %
528 05-04-2019 09:33:18 9.7 C 69 %
529 05-04-2019 09:45:17 9.7 C 69 %
530 05-04-2019 09:57:17 9.6 C 69 %
531 05-04-2019 10:09:17 9.6 C 69 %
532 05-04-2019 10:21:18 9.7 C 69 %
533 05-04-2019 10:33:17 9.6 C 69 %
534 05-04-2019 10:45:18 9.7 C 69 %
535 05-04-2019 10:57:18 9.7 C 69 %
536 05-04-2019 11:09:17 9.7 C 69 %
537 05-04-2019 11:21:17 9.7 C 69 %
538 05-04-2019 11:33:18 9.7 C 69 %
539 05-04-2019 11:45:17 9.7 C 69 %
540 05-04-2019 11:57:17 9.7 C 69 %
541 05-04-2019 12:09:17 9.7 C 69 %
542 05-04-2019 12:21:17 9.7 C 69 %
543 05-04-2019 12:33:17 9.7 C 69 %
544 05-04-2019 12:45:17 9.7 C 69 %
545 05-04-2019 12:57:17 9.7 C 69 %
546 05-04-2019 13:09:17 9.7 C 69 %
547 05-04-2019 13:21:17 9.7 C 69 %
548 05-04-2019 13:33:17 9.7 C 69 %
549 05-04-2019 13:45:17 9.7 C 69 %
550 05-04-2019 13:57:17 9.7 C 69 %
Sensor: Nr:Datum:Temp:Feuchte:
G-T/H 551 05-04-2019 14:09:17 9.8 C 69 %
552 05-04-2019 14:21:17 9.8 C 69 %
553 05-04-2019 14:33:17 9.8 C 69 %
554 05-04-2019 14:45:17 9.8 C 69 %
555 05-04-2019 14:57:17 9.8 C 69 %
556 05-04-2019 15:09:18 9.8 C 69 %
557 05-04-2019 15:21:17 9.8 C 69 %
558 05-04-2019 15:33:17 9.8 C 69 %
559 05-04-2019 15:45:17 9.9 C 69 %
560 05-04-2019 15:57:17 9.9 C 69 %
561 05-04-2019 16:09:17 9.9 C 69 %
562 05-04-2019 16:21:17 9.9 C 69 %
563 05-04-2019 16:33:17 9.9 C 69 %
564 05-04-2019 16:45:17 9.9 C 69 %
565 05-04-2019 16:57:17 9.9 C 69 %
566 05-04-2019 17:09:17 9.9 C 70 %
567 05-04-2019 17:21:17 9.9 C 70 %
568 05-04-2019 17:33:17 9.9 C 70 %
569 05-04-2019 17:45:18 10 C 69 %
570 05-04-2019 17:57:18 10 C 69 %
571 05-04-2019 18:09:17 10 C 69 %
572 05-04-2019 18:21:17 10 C 69 %
573 05-04-2019 18:33:17 10 C 69 %
574 05-04-2019 18:45:17 10 C 69 %
575 05-04-2019 18:57:17 10 C 69 %
Sensor: Nr:Datum:Temp:Feuchte:
G-T/H 576 05-04-2019 19:09:17 10 C 69 %
577 05-04-2019 19:21:17 10 C 69 %
578 05-04-2019 19:33:17 10.1 C 69 %
579 05-04-2019 19:45:17 10 C 69 %
580 05-04-2019 19:57:17 10 C 69 %
581 05-04-2019 20:09:17 10.1 C 69 %
582 05-04-2019 20:21:17 10.1 C 69 %
583 05-04-2019 20:33:18 10.1 C 69 %
584 05-04-2019 20:45:17 10.1 C 69 %
585 05-04-2019 20:57:17 10.1 C 69 %
586 05-04-2019 21:09:17 10.1 C 69 %
587 05-04-2019 21:21:17 10.1 C 69 %
588 05-04-2019 21:33:17 10.1 C 69 %
589 05-04-2019 21:45:17 10.1 C 69 %
590 05-04-2019 21:57:17 10.1 C 69 %
591 05-04-2019 22:09:17 10.1 C 69 %
592 05-04-2019 22:21:17 10.1 C 69 %
593 05-04-2019 22:33:18 10.1 C 69 %
594 05-04-2019 22:45:18 10.1 C 69 %
595 05-04-2019 22:57:18 10.1 C 69 %
596 05-04-2019 23:09:17 10.1 C 69 %
597 05-04-2019 23:21:17 10.1 C 70 %
598 05-04-2019 23:33:17 10.1 C 70 %
599 05-04-2019 23:45:17 10.1 C 70 %
600 05-04-2019 23:57:17 10.1 C 70 %
Sensor: Nr:Datum:Temp:Feuchte:
G-T/H 601 06-04-2019 00:09:17 10.1 C 70 %
602 06-04-2019 00:21:17 10.1 C 70 %
603 06-04-2019 00:33:17 10.1 C 70 %
604 06-04-2019 00:45:17 10.1 C 70 %
605 06-04-2019 00:57:17 10.1 C 70 %
606 06-04-2019 01:09:18 10.1 C 70 %
607 06-04-2019 01:21:17 10.1 C 70 %
608 06-04-2019 01:33:17 10.1 C 70 %
609 06-04-2019 01:45:17 10.1 C 70 %
610 06-04-2019 01:57:17 10.1 C 70 %
611 06-04-2019 02:09:17 10.1 C 70 %
612 06-04-2019 02:21:17 10.1 C 70 %
613 06-04-2019 02:33:17 10.1 C 70 %
614 06-04-2019 02:45:17 10.1 C 70 %
615 06-04-2019 02:57:17 10.1 C 70 %
616 06-04-2019 03:09:17 10.1 C 70 %
617 06-04-2019 03:21:17 10.1 C 70 %
618 06-04-2019 03:33:18 10.1 C 70 %
619 06-04-2019 03:45:18 10.1 C 70 %
620 06-04-2019 03:57:18 10 C 70 %
621 06-04-2019 04:09:17 10.1 C 70 %
622 06-04-2019 04:21:17 10 C 70 %
623 06-04-2019 04:33:17 10.1 C 70 %
624 06-04-2019 04:45:17 10 C 70 %
625 06-04-2019 04:57:17 10 C 70 %
Sensor: Nr:Datum:Temp:Feuchte:
G-T/H 626 06-04-2019 05:09:17 10 C 70 %
627 06-04-2019 05:21:17 10 C 70 %
628 06-04-2019 05:33:17 10 C 70 %
629 06-04-2019 05:45:17 10 C 70 %
630 06-04-2019 05:57:17 10 C 70 %
631 06-04-2019 06:09:17 10 C 70 %
632 06-04-2019 06:21:17 10 C 70 %
633 06-04-2019 06:33:17 10 C 70 %
634 06-04-2019 06:45:17 9.9 C 71 %
635 06-04-2019 06:57:17 9.9 C 71 %
636 06-04-2019 07:09:17 9.9 C 71 %
637 06-04-2019 07:21:17 9.9 C 71 %
638 06-04-2019 07:33:17 9.9 C 71 %
639 06-04-2019 07:45:17 9.9 C 71 %
640 06-04-2019 07:57:17 9.9 C 71 %
641 06-04-2019 08:09:17 9.9 C 71 %
642 06-04-2019 08:21:17 9.9 C 71 %
643 06-04-2019 08:33:18 9.9 C 71 %
644 06-04-2019 08:45:18 9.9 C 71 %
645 06-04-2019 08:57:18 9.9 C 71 %
646 06-04-2019 09:09:17 9.9 C 71 %
647 06-04-2019 09:21:17 9.9 C 71 %
648 06-04-2019 09:33:17 9.8 C 71 %
649 06-04-2019 09:45:17 9.8 C 71 %
650 06-04-2019 09:57:17 9.8 C 71 %
Sensor: Nr:Datum:Temp:Feuchte:
G-T/H 651 06-04-2019 10:09:17 9.8 C 71 %
652 06-04-2019 10:21:18 9.8 C 71 %
653 06-04-2019 10:33:17 9.8 C 71 %
654 06-04-2019 10:45:17 9.8 C 71 %
655 06-04-2019 10:57:17 9.8 C 71 %
656 06-04-2019 11:09:17 9.8 C 71 %
657 06-04-2019 11:21:17 9.9 C 71 %
658 06-04-2019 11:33:17 9.9 C 71 %
659 06-04-2019 11:45:17 9.9 C 71 %
660 06-04-2019 11:57:17 10 C 70 %
661 06-04-2019 12:09:17 10.1 C 70 %
662 06-04-2019 12:21:17 10.1 C 70 %
663 06-04-2019 12:33:17 10.2 C 70 %
664 06-04-2019 12:45:17 10.2 C 70 %
665 06-04-2019 12:57:17 10.2 C 70 %
666 06-04-2019 13:09:17 10.2 C 70 %
667 06-04-2019 13:21:18 10.2 C 70 %
668 06-04-2019 13:33:18 10.2 C 70 %
669 06-04-2019 13:45:17 10.3 C 70 %
670 06-04-2019 13:57:18 10.3 C 70 %
671 06-04-2019 14:09:17 10.4 C 70 %
672 06-04-2019 14:21:17 10.4 C 70 %
673 06-04-2019 14:33:18 10.4 C 70 %
674 06-04-2019 14:45:18 10.4 C 70 %
675 06-04-2019 14:57:18 10.5 C 70 %
Sensor: Nr:Datum:Temp:Feuchte:
G-T/H 676 06-04-2019 15:09:17 10.5 C 70 %
677 06-04-2019 15:21:17 10.5 C 70 %
678 06-04-2019 15:33:17 11.2 C 69 %
679 06-04-2019 15:45:17 11.6 C 67 %
680 06-04-2019 15:57:17 11.9 C 66 %
681 06-04-2019 16:09:17 12 C 64 %
682 06-04-2019 16:21:17 12.1 C 64 %
683 06-04-2019 16:33:18 12.2 C 63 %
684 06-04-2019 16:45:17 12.5 C 63 %
685 06-04-2019 16:57:18 12.5 C 63 %
686 06-04-2019 17:09:17 12.5 C 64 %
687 06-04-2019 17:21:17 12.4 C 64 %
688 06-04-2019 17:33:18 12.4 C 64 %
689 06-04-2019 17:45:17 12.3 C 65 %
690 06-04-2019 17:57:18 12.3 C 65 %
691 06-04-2019 18:09:18 12.2 C 65 %
692 06-04-2019 18:21:17 12.2 C 65 %
693 06-04-2019 18:33:17 12.2 C 66 %
694 06-04-2019 18:45:17 12.2 C 66 %
695 06-04-2019 18:57:17 12.2 C 66 %
696 06-04-2019 19:09:17 12.1 C 66 %
697 06-04-2019 19:21:17 12.1 C 66 %
698 06-04-2019 19:33:17 12.1 C 66 %
699 06-04-2019 19:45:17 12.1 C 67 %
700 06-04-2019 19:57:17 12.1 C 67 %
Sensor: Nr:Datum:Temp:Feuchte:
G-T/H 701 06-04-2019 20:09:17 12.1 C 67 %
702 06-04-2019 20:21:17 12 C 67 %
703 06-04-2019 20:33:17 12 C 67 %
704 06-04-2019 20:45:17 12 C 67 %
705 06-04-2019 20:57:17 12 C 68 %
706 06-04-2019 21:09:17 12 C 68 %
707 06-04-2019 21:21:17 12 C 68 %
708 06-04-2019 21:33:17 12 C 68 %
709 06-04-2019 21:45:17 11.9 C 69 %
710 06-04-2019 21:57:17 11.9 C 69 %
711 06-04-2019 22:09:17 11.9 C 69 %
712 06-04-2019 22:21:18 11.9 C 69 %
713 06-04-2019 22:33:17 11.9 C 69 %
714 06-04-2019 22:45:17 11.9 C 69 %
715 06-04-2019 22:57:17 11.9 C 69 %
716 06-04-2019 23:09:17 11.9 C 69 %
717 06-04-2019 23:21:17 11.8 C 69 %
718 06-04-2019 23:33:17 11.8 C 69 %
719 06-04-2019 23:45:17 11.8 C 69 %
720 06-04-2019 23:57:17 11.8 C 69 %
721 07-04-2019 00:09:18 11.8 C 69 %
722 07-04-2019 00:21:17 11.8 C 69 %
723 07-04-2019 00:33:17 11.8 C 69 %
724 07-04-2019 00:45:17 11.8 C 69 %
725 07-04-2019 00:57:17 11.8 C 69 %
Sensor: Nr:Datum:Temp:Feuchte:
G-T/H 726 07-04-2019 01:09:17 11.8 C 69 %
727 07-04-2019 01:21:17 11.7 C 69 %
728 07-04-2019 01:33:17 11.7 C 69 %
729 07-04-2019 01:45:17 11.7 C 69 %
730 07-04-2019 01:57:17 11.7 C 69 %
731 07-04-2019 02:09:17 11.7 C 69 %
732 07-04-2019 02:21:17 11.7 C 69 %
733 07-04-2019 02:33:17 11.7 C 69 %
734 07-04-2019 02:45:17 11.6 C 69 %
735 07-04-2019 02:57:17 11.6 C 69 %
736 07-04-2019 03:09:17 11.6 C 69 %
737 07-04-2019 03:21:17 11.6 C 69 %
738 07-04-2019 03:33:18 11.6 C 69 %
739 07-04-2019 03:45:18 11.5 C 69 %
740 07-04-2019 03:57:18 11.6 C 69 %
741 07-04-2019 04:09:17 11.5 C 69 %
742 07-04-2019 04:21:17 11.5 C 69 %
743 07-04-2019 04:33:17 11.5 C 69 %
744 07-04-2019 04:45:17 11.5 C 69 %
745 07-04-2019 04:57:17 11.4 C 69 %
746 07-04-2019 05:09:17 11.5 C 69 %
747 07-04-2019 05:21:17 11.4 C 69 %
748 07-04-2019 05:33:17 11.4 C 69 %
749 07-04-2019 05:45:17 11.4 C 69 %
750 07-04-2019 05:57:17 11.4 C 68 %
Sensor: Nr:Datum:Temp:Feuchte:
G-T/H 751 07-04-2019 06:09:17 11.3 C 68 %
752 07-04-2019 06:21:17 11.2 C 68 %
753 07-04-2019 06:33:18 11.3 C 68 %
754 07-04-2019 06:45:17 11.2 C 68 %
755 07-04-2019 06:57:17 11.2 C 68 %
756 07-04-2019 07:09:17 11.2 C 68 %
757 07-04-2019 07:21:17 11.2 C 68 %
758 07-04-2019 07:33:17 11.1 C 68 %
759 07-04-2019 07:45:17 11.1 C 68 %
760 07-04-2019 07:57:17 11 C 67 %
761 07-04-2019 08:09:17 11 C 67 %
762 07-04-2019 08:21:17 11 C 67 %
763 07-04-2019 08:33:17 11 C 67 %
764 07-04-2019 08:45:17 11 C 67 %
765 07-04-2019 08:57:17 11 C 67 %
766 07-04-2019 09:09:17 11 C 67 %
767 07-04-2019 09:21:17 11 C 67 %
768 07-04-2019 09:33:17 11 C 68 %
769 07-04-2019 09:45:17 11 C 68 %
770 07-04-2019 09:57:17 11 C 68 %
771 07-04-2019 10:09:17 10.9 C 68 %
772 07-04-2019 10:21:17 10.9 C 69 %
773 07-04-2019 10:33:18 10.9 C 69 %
774 07-04-2019 10:45:17 10.9 C 69 %
775 07-04-2019 10:57:17 10.9 C 69 %
Sensor: Nr:Datum:Temp:Feuchte:
G-T/H 776 07-04-2019 11:09:17 10.9 C 69 %
777 07-04-2019 11:21:17 11 C 68 %
778 07-04-2019 11:33:17 11 C 68 %
779 07-04-2019 11:45:17 11 C 68 %
780 07-04-2019 11:57:17 11 C 68 %
781 07-04-2019 12:09:17 11 C 68 %
782 07-04-2019 12:21:17 11 C 68 %
783 07-04-2019 12:33:17 11.1 C 68 %
784 07-04-2019 12:45:17 11 C 68 %
785 07-04-2019 12:57:17 11.1 C 69 %
786 07-04-2019 13:09:17 11.1 C 69 %
787 07-04-2019 13:21:18 11.1 C 69 %
788 07-04-2019 13:33:18 11.1 C 69 %
789 07-04-2019 13:45:17 11.2 C 69 %
790 07-04-2019 13:57:17 11.8 C 66 %
791 07-04-2019 14:09:17 11.5 C 66 %
792 07-04-2019 14:21:17 11.5 C 66 %
793 07-04-2019 14:33:17 11.4 C 66 %
794 07-04-2019 14:45:17 11.4 C 66 %
795 07-04-2019 14:57:17 11.4 C 66 %
796 07-04-2019 15:09:18 11.4 C 66 %
797 07-04-2019 15:21:17 11.4 C 67 %
798 07-04-2019 15:33:18 11.5 C 67 %
799 07-04-2019 15:45:18 11.5 C 67 %
800 07-04-2019 15:57:18 11.5 C 67 %
Sensor: Nr:Datum:Temp:Feuchte:
G-T/H 801 07-04-2019 16:09:17 11.5 C 67 %
802 07-04-2019 16:21:17 11.5 C 67 %
803 07-04-2019 16:33:17 11.6 C 67 %
804 07-04-2019 16:45:17 11.5 C 67 %
805 07-04-2019 16:57:17 11.6 C 67 %
806 07-04-2019 17:09:17 11.6 C 67 %
807 07-04-2019 17:21:17 11.7 C 67 %
808 07-04-2019 17:33:17 11.7 C 67 %
809 07-04-2019 17:45:17 11.7 C 68 %
810 07-04-2019 17:57:17 11.7 C 68 %
811 07-04-2019 18:09:17 11.7 C 68 %
812 07-04-2019 18:21:17 11.7 C 68 %
813 07-04-2019 18:33:17 11.8 C 68 %
814 07-04-2019 18:45:17 11.8 C 68 %
815 07-04-2019 18:57:17 11.8 C 68 %
816 07-04-2019 19:09:18 11.8 C 68 %
817 07-04-2019 19:21:17 11.8 C 68 %
818 07-04-2019 19:33:17 11.8 C 68 %
819 07-04-2019 19:45:17 11.8 C 68 %
820 07-04-2019 19:57:17 11.8 C 68 %
821 07-04-2019 20:09:17 11.8 C 68 %
822 07-04-2019 20:21:17 11.9 C 68 %
823 07-04-2019 20:33:18 11.9 C 68 %
824 07-04-2019 20:45:18 11.9 C 68 %
825 07-04-2019 20:57:18 11.9 C 69 %
Sensor: Nr:Datum:Temp:Feuchte:
G-T/H 826 07-04-2019 21:09:17 12 C 68 %
827 07-04-2019 21:21:17 12 C 68 %
828 07-04-2019 21:33:17 11.9 C 69 %
829 07-04-2019 21:45:17 12 C 68 %
830 07-04-2019 21:57:17 12 C 68 %
831 07-04-2019 22:09:18 12 C 68 %
832 07-04-2019 22:21:17 12 C 68 %
833 07-04-2019 22:33:17 12 C 68 %
834 07-04-2019 22:45:17 12 C 68 %
835 07-04-2019 22:57:17 12 C 68 %
836 07-04-2019 23:09:18 12 C 68 %
837 07-04-2019 23:21:17 12.1 C 68 %
838 07-04-2019 23:33:17 12.1 C 68 %
839 07-04-2019 23:45:17 12.1 C 68 %
840 07-04-2019 23:57:18 12.1 C 69 %
841 08-04-2019 00:09:17 12.1 C 69 %
842 08-04-2019 00:21:17 12.1 C 69 %
843 08-04-2019 00:33:17 12.1 C 69 %
844 08-04-2019 00:45:17 12.1 C 69 %
845 08-04-2019 00:57:17 12.1 C 69 %
846 08-04-2019 01:09:17 12.1 C 69 %
847 08-04-2019 01:21:17 12.1 C 69 %
848 08-04-2019 01:33:17 12.1 C 69 %
849 08-04-2019 01:45:17 12.1 C 69 %
850 08-04-2019 01:57:17 12.1 C 69 %
Sensor: Nr:Datum:Temp:Feuchte:
G-T/H 851 08-04-2019 02:09:17 12.1 C 69 %
852 08-04-2019 02:21:17 12.1 C 69 %
853 08-04-2019 02:33:17 12.1 C 69 %
854 08-04-2019 02:45:17 12.1 C 69 %
855 08-04-2019 02:57:18 12.1 C 69 %
856 08-04-2019 03:09:17 12.1 C 69 %
857 08-04-2019 03:21:17 12.1 C 69 %
858 08-04-2019 03:33:17 12.1 C 69 %
859 08-04-2019 03:45:17 12.1 C 69 %
860 08-04-2019 03:57:17 12.1 C 69 %
861 08-04-2019 04:09:17 12.1 C 69 %
862 08-04-2019 04:21:18 12.1 C 69 %
863 08-04-2019 04:33:18 12.1 C 69 %
864 08-04-2019 04:45:18 12.1 C 69 %
865 08-04-2019 04:57:18 12.1 C 69 %
866 08-04-2019 05:09:18 12.1 C 69 %
867 08-04-2019 05:21:17 12.1 C 69 %
868 08-04-2019 05:33:17 12.1 C 69 %
869 08-04-2019 05:45:17 12.1 C 69 %
870 08-04-2019 05:57:17 12.1 C 69 %
871 08-04-2019 06:09:18 12.1 C 69 %
872 08-04-2019 06:21:17 12.1 C 69 %
873 08-04-2019 06:33:18 12.1 C 69 %
874 08-04-2019 06:45:17 12.1 C 69 %
875 08-04-2019 06:57:17 12.1 C 69 %
Sensor: Nr:Datum:Temp:Feuchte:
G-T/H 876 08-04-2019 07:09:17 12.1 C 69 %
877 08-04-2019 07:21:17 12.1 C 69 %
878 08-04-2019 07:33:17 12 C 69 %
879 08-04-2019 07:45:18 12.1 C 69 %
880 08-04-2019 07:57:18 12.1 C 69 %
881 08-04-2019 08:09:17 12.1 C 69 %
882 08-04-2019 08:21:17 12 C 69 %
883 08-04-2019 08:33:17 12.1 C 69 %
884 08-04-2019 08:45:18 12 C 69 %
885 08-04-2019 08:57:18 12 C 69 %
886 08-04-2019 09:09:17 12 C 69 %
887 08-04-2019 09:21:17 12 C 69 %
888 08-04-2019 09:33:17 12.1 C 70 %
889 08-04-2019 09:45:17 12 C 70 %
890 08-04-2019 09:57:17 12.1 C 70 %
891 08-04-2019 10:09:17 12.1 C 70 %
892 08-04-2019 10:21:17 12.1 C 70 %
893 08-04-2019 10:33:17 12.1 C 70 %
894 08-04-2019 10:45:17 12.1 C 70 %
895 08-04-2019 10:57:17 12.1 C 70 %
896 08-04-2019 11:09:17 12.1 C 70 %
897 08-04-2019 11:21:17 12.1 C 70 %
898 08-04-2019 11:33:17 12.1 C 70 %
899 08-04-2019 11:45:17 12.1 C 70 %
900 08-04-2019 11:57:17 12.1 C 70 %
Sensor: Nr:Datum:Temp:Feuchte:
G-T/H 901 08-04-2019 12:09:17 12.1 C 70 %
902 08-04-2019 12:21:18 12.1 C 70 %
903 08-04-2019 12:33:18 12.1 C 70 %
904 08-04-2019 12:45:17 12.1 C 70 %
905 08-04-2019 12:57:17 12.1 C 70 %
906 08-04-2019 13:09:17 12.1 C 70 %
907 08-04-2019 13:21:17 12.1 C 70 %
908 08-04-2019 13:33:17 12.1 C 70 %
909 08-04-2019 13:45:17 12.1 C 70 %
910 08-04-2019 13:57:17 12.1 C 70 %
911 08-04-2019 14:09:17 12.2 C 70 %
912 08-04-2019 14:21:17 12.2 C 70 %
913 08-04-2019 14:33:17 12.2 C 70 %
914 08-04-2019 14:45:17 12.2 C 70 %
915 08-04-2019 14:57:17 12.2 C 70 %
916 08-04-2019 15:09:17 12.2 C 70 %
917 08-04-2019 15:21:17 12.3 C 70 %
918 08-04-2019 15:33:18 12.3 C 70 %
919 08-04-2019 15:45:18 12.3 C 70 %
920 08-04-2019 15:57:18 12.3 C 70 %
921 08-04-2019 16:09:17 12.3 C 70 %
922 08-04-2019 16:21:17 12.3 C 70 %
923 08-04-2019 16:33:17 12.4 C 70 %
924 08-04-2019 16:45:17 12.4 C 70 %
925 08-04-2019 16:57:17 13.1 C 69 %
Sensor: Nr:Datum:Temp:Feuchte:
G-T/H 926 08-04-2019 17:09:17 13.1 C 70 %
927 08-04-2019 17:21:17 13.1 C 70 %
928 08-04-2019 17:33:18 13.1 C 72 %
929 08-04-2019 17:45:17 13.1 C 72 %
930 08-04-2019 17:57:17 13.1 C 73 %
931 08-04-2019 18:09:17 13.2 C 74 %
932 08-04-2019 18:21:17 13.3 C 74 %
933 08-04-2019 18:33:17 13.3 C 74 %
934 08-04-2019 18:45:17 13.3 C 74 %
935 08-04-2019 18:57:17 13.4 C 74 %
936 08-04-2019 19:09:18 13.4 C 74 %
937 08-04-2019 19:21:17 13.3 C 74 %
938 08-04-2019 19:33:17 13.2 C 73 %
939 08-04-2019 19:45:17 13.1 C 73 %
940 08-04-2019 19:57:17 13.1 C 73 %
941 08-04-2019 20:09:17 13.1 C 73 %
942 08-04-2019 20:21:17 13 C 73 %
943 08-04-2019 20:33:17 13 C 73 %
944 08-04-2019 20:45:17 13 C 73 %
945 08-04-2019 20:57:17 12.8 C 74 %
946 08-04-2019 21:09:17 12.6 C 74 %
947 08-04-2019 21:21:17 12.4 C 74 %
948 08-04-2019 21:33:18 12.4 C 74 %
949 08-04-2019 21:45:18 12.3 C 74 %
950 08-04-2019 21:57:18 12.3 C 74 %
Sensor: Nr:Datum:Temp:Feuchte:
G-T/H 951 08-04-2019 22:09:18 12.2 C 75 %
952 08-04-2019 22:21:17 12.2 C 75 %
953 08-04-2019 22:33:17 12.1 C 75 %
954 08-04-2019 22:45:17 12.1 C 75 %
955 08-04-2019 22:57:17 12.1 C 75 %
956 08-04-2019 23:09:17 12.1 C 75 %
957 08-04-2019 23:21:17 12 C 75 %
958 08-04-2019 23:33:17 12.1 C 75 %
959 08-04-2019 23:45:17 12 C 75 %
960 08-04-2019 23:57:17 12 C 75 %
961 09-04-2019 00:09:17 11.8 C 76 %
962 09-04-2019 00:21:17 11.8 C 75 %
963 09-04-2019 00:33:17 11.8 C 75 %
964 09-04-2019 00:45:18 11.7 C 75 %
965 09-04-2019 00:57:18 11.6 C 75 %
966 09-04-2019 01:09:18 11.6 C 75 %
967 09-04-2019 01:21:17 11.6 C 75 %
968 09-04-2019 01:33:17 11.6 C 75 %
969 09-04-2019 01:45:17 11.6 C 75 %
970 09-04-2019 01:57:17 11.6 C 75 %
971 09-04-2019 02:09:17 11.6 C 76 %
972 09-04-2019 02:21:17 11.6 C 76 %
973 09-04-2019 02:33:17 11.6 C 76 %
974 09-04-2019 02:45:17 11.6 C 76 %
975 09-04-2019 02:57:17 11.6 C 77 %
Sensor: Nr:Datum:Temp:Feuchte:
G-T/H 976 09-04-2019 03:09:17 11.6 C 77 %
977 09-04-2019 03:21:17 11.5 C 77 %
978 09-04-2019 03:33:17 11.5 C 77 %
979 09-04-2019 03:45:17 11.4 C 77 %
980 09-04-2019 03:57:17 11.3 C 77 %
981 09-04-2019 04:09:18 11.4 C 77 %
982 09-04-2019 04:21:17 11.3 C 77 %
983 09-04-2019 04:33:17 11.2 C 77 %
984 09-04-2019 04:45:17 11.1 C 76 %
985 09-04-2019 04:57:17 11 C 76 %
986 09-04-2019 05:09:17 10.9 C 77 %
987 09-04-2019 05:21:17 10.8 C 76 %
988 09-04-2019 05:33:18 10.8 C 76 %
989 09-04-2019 05:45:18 10.8 C 76 %
990 09-04-2019 05:57:18 10.8 C 76 %
991 09-04-2019 06:09:18 10.8 C 76 %
992 09-04-2019 06:21:18 10.7 C 76 %
993 09-04-2019 06:33:18 10.7 C 76 %
994 09-04-2019 06:45:18 10.7 C 76 %
995 09-04-2019 06:57:18 10.7 C 76 %
996 09-04-2019 07:09:17 10.7 C 76 %
997 09-04-2019 07:21:17 10.7 C 77 %
998 09-04-2019 07:33:18 10.7 C 77 %
999 09-04-2019 07:45:18 10.8 C 77 %
1000 09-04-2019 07:57:18 10.9 C 77 %
Sensor: Nr:Datum:Temp:Feuchte:
G-T/H 1001 09-04-2019 08:09:17 10.9 C 77 %
1002 09-04-2019 08:21:17 10.8 C 77 %
1003 09-04-2019 08:33:17 11 C 76 %
1004 09-04-2019 08:45:17 11 C 76 %
1005 09-04-2019 08:57:17 11.1 C 76 %
1006 09-04-2019 09:09:17 11.2 C 76 %
1007 09-04-2019 09:21:17 11.3 C 76 %
1008 09-04-2019 09:33:17 11.4 C 76 %
1009 09-04-2019 09:45:17 11.4 C 76 %
1010 09-04-2019 09:57:17 11.4 C 76 %
1011 09-04-2019 10:09:17 11.5 C 76 %
1012 09-04-2019 10:21:17 11.6 C 76 %
1013 09-04-2019 10:33:17 11.6 C 76 %
1014 09-04-2019 10:45:17 11.7 C 76 %
1015 09-04-2019 10:57:17 11.7 C 76 %
1016 09-04-2019 11:09:17 11.7 C 76 %
1017 09-04-2019 11:21:17 11.9 C 76 %
1018 09-04-2019 11:33:18 11.9 C 77 %
1019 09-04-2019 11:45:17 12 C 76 %
1020 09-04-2019 11:57:17 12 C 76 %
1021 09-04-2019 12:09:17 12 C 76 %
1022 09-04-2019 12:21:17 12.1 C 76 %
1023 09-04-2019 12:33:17 12.2 C 76 %
1024 09-04-2019 12:45:17 12.4 C 76 %
1025 09-04-2019 12:57:17 12.4 C 76 %
Sensor: Nr:Datum:Temp:Feuchte:
G-T/H 1026 09-04-2019 13:09:17 12.5 C 76 %
1027 09-04-2019 13:21:17 12.6 C 76 %
1028 09-04-2019 13:33:17 12.8 C 76 %
1029 09-04-2019 13:45:17 12.9 C 76 %
1030 09-04-2019 13:57:17 13.1 C 75 %
1031 09-04-2019 14:09:17 13.2 C 75 %
1032 09-04-2019 14:21:17 13.4 C 74 %
1033 09-04-2019 14:33:17 13.5 C 74 %
1034 09-04-2019 14:45:17 13.7 C 74 %
1035 09-04-2019 14:57:17 13.8 C 73 %
1036 09-04-2019 15:09:17 13.8 C 73 %
1037 09-04-2019 15:21:18 13.8 C 73 %
1038 09-04-2019 15:33:17 13.8 C 73 %
1039 09-04-2019 15:45:17 13.8 C 73 %
1040 09-04-2019 15:57:17 13.8 C 73 %
1041 09-04-2019 16:09:17 13.8 C 73 %
1042 09-04-2019 16:21:17 13.8 C 73 %
1043 09-04-2019 16:33:17 13.9 C 73 %
1044 09-04-2019 16:45:17 14 C 72 %
1045 09-04-2019 16:57:17 14 C 72 %
1046 09-04-2019 17:09:17 14 C 72 %
1047 09-04-2019 17:21:17 14 C 72 %
1048 09-04-2019 17:33:17 14 C 72 %
1049 09-04-2019 17:45:17 14 C 72 %
1050 09-04-2019 17:57:18 13.7 C 72 %
Sensor: Nr:Datum:Temp:Feuchte:
G-T/H 1051 09-04-2019 18:09:17 13.6 C 72 %
1052 09-04-2019 18:21:17 13.5 C 73 %
1053 09-04-2019 18:33:17 13.4 C 73 %
1054 09-04-2019 18:45:17 13.4 C 73 %
1055 09-04-2019 18:57:17 13.4 C 73 %
1056 09-04-2019 19:09:17 13.3 C 73 %
1057 09-04-2019 19:21:17 13.3 C 73 %
1058 09-04-2019 19:33:18 13.3 C 73 %
1059 09-04-2019 19:45:17 13.2 C 73 %
1060 09-04-2019 19:57:17 13.2 C 73 %
1061 09-04-2019 20:09:17 13.2 C 73 %
1062 09-04-2019 20:21:17 13.2 C 73 %
1063 09-04-2019 20:33:17 13.2 C 73 %
1064 09-04-2019 20:45:17 13.1 C 73 %
1065 09-04-2019 20:57:17 13.1 C 73 %
1066 09-04-2019 21:09:17 13.1 C 73 %
1067 09-04-2019 21:21:17 13.1 C 73 %
1068 09-04-2019 21:33:17 13.1 C 73 %
1069 09-04-2019 21:45:17 13.1 C 73 %
1070 09-04-2019 21:57:17 13.1 C 73 %
1071 09-04-2019 22:09:17 13.1 C 73 %
1072 09-04-2019 22:21:18 13.1 C 73 %
1073 09-04-2019 22:33:18 13.1 C 73 %
1074 09-04-2019 22:45:18 13 C 73 %
1075 09-04-2019 22:57:18 13 C 73 %
Sensor: Nr:Datum:Temp:Feuchte:
G-T/H 1076 09-04-2019 23:09:18 13 C 73 %
1077 09-04-2019 23:21:17 13 C 72 %
1078 09-04-2019 23:33:17 13 C 72 %
1079 09-04-2019 23:45:17 13 C 71 %
1080 09-04-2019 23:57:17 12.9 C 71 %
1081 10-04-2019 00:09:17 12.9 C 70 %
1082 10-04-2019 00:21:17 12.9 C 69 %
1083 10-04-2019 00:33:18 12.9 C 69 %
1084 10-04-2019 00:45:17 12.8 C 68 %
1085 10-04-2019 00:57:17 12.8 C 68 %
1086 10-04-2019 01:09:17 12.8 C 68 %
1087 10-04-2019 01:21:17 12.8 C 67 %
1088 10-04-2019 01:33:17 12.8 C 67 %
1089 10-04-2019 01:45:17 12.7 C 66 %
1090 10-04-2019 01:57:17 12.7 C 66 %
1091 10-04-2019 02:09:17 12.7 C 66 %
1092 10-04-2019 02:21:17 12.7 C 66 %
1093 10-04-2019 02:33:18 12.7 C 66 %
1094 10-04-2019 02:45:17 12.6 C 66 %
1095 10-04-2019 02:57:17 12.6 C 65 %
1096 10-04-2019 03:09:17 12.6 C 65 %
1097 10-04-2019 03:21:17 12.6 C 65 %
1098 10-04-2019 03:33:17 12.6 C 65 %
1099 10-04-2019 03:45:17 12.5 C 64 %
1100 10-04-2019 03:57:17 12.6 C 64 %
Sensor: Nr:Datum:Temp:Feuchte:
G-T/H 1101 10-04-2019 04:09:17 12.5 C 64 %
1102 10-04-2019 04:21:17 12.5 C 64 %
1103 10-04-2019 04:33:17 12.5 C 65 %
1104 10-04-2019 04:45:17 12.5 C 65 %
1105 10-04-2019 04:57:17 12.6 C 66 %
1106 10-04-2019 05:09:17 12.5 C 66 %
1107 10-04-2019 05:21:17 12.5 C 66 %
1108 10-04-2019 05:33:17 12.5 C 66 %
1109 10-04-2019 05:45:17 12.5 C 66 %
1110 10-04-2019 05:57:17 12.4 C 66 %
1111 10-04-2019 06:09:18 12.4 C 66 %
1112 10-04-2019 06:21:17 12.4 C 66 %
1113 10-04-2019 06:33:17 12.3 C 65 %
1114 10-04-2019 06:45:17 12.3 C 65 %
1115 10-04-2019 06:57:17 12.2 C 65 %
1116 10-04-2019 07:09:17 12.2 C 64 %
1117 10-04-2019 07:21:17 12.1 C 64 %
1118 10-04-2019 07:33:17 11.8 C 63 %
1119 10-04-2019 07:45:17 11.4 C 61 %
1120 10-04-2019 07:57:17 10.4 C 60 %
1121 10-04-2019 08:09:17 10.3 C 60 %
1122 10-04-2019 08:21:17 10.3 C 59 %
1123 10-04-2019 08:33:18 10.3 C 58 %
1124 10-04-2019 08:45:17 10.3 C 57 %
1125 10-04-2019 08:57:18 10.3 C 56 %
Sensor: Nr:Datum:Temp:Feuchte:
G-T/H 1126 10-04-2019 09:09:18 10.2 C 56 %
1127 10-04-2019 09:21:17 10.2 C 56 %
1128 10-04-2019 09:33:17 10.3 C 55 %
1129 10-04-2019 09:45:17 10.3 C 55 %
1130 10-04-2019 09:57:17 10.4 C 55 %
1131 10-04-2019 10:09:17 10.4 C 55 %
1132 10-04-2019 10:21:17 10.6 C 55 %
1133 10-04-2019 10:33:17 10.7 C 55 %
1134 10-04-2019 10:45:17 10.7 C 55 %
1135 10-04-2019 10:57:17 11 C 54 %
1136 10-04-2019 11:09:17 11.1 C 54 %
1137 10-04-2019 11:21:17 11.2 C 53 %
1138 10-04-2019 11:33:18 11.3 C 53 %
1139 10-04-2019 11:45:18 11.5 C 53 %
1140 10-04-2019 11:57:18 11.6 C 53 %
1141 10-04-2019 12:09:17 11.7 C 52 %
1142 10-04-2019 12:21:17 11.7 C 52 %
1143 10-04-2019 12:33:17 11.8 C 52 %
1144 10-04-2019 12:45:17 11.8 C 52 %
1145 10-04-2019 12:57:17 12 C 51 %
1146 10-04-2019 13:09:17 12.1 C 51 %
1147 10-04-2019 13:21:17 12.1 C 51 %
1148 10-04-2019 13:33:18 12.3 C 51 %
1149 10-04-2019 13:45:17 12.5 C 51 %
1150 10-04-2019 13:57:17 12.5 C 51 %
Sensor: Nr:Datum:Temp:Feuchte:
G-T/H 1151 10-04-2019 14:09:17 12.6 C 51 %
1152 10-04-2019 14:21:17 12.6 C 50 %
1153 10-04-2019 14:33:17 12.7 C 50 %
1154 10-04-2019 14:45:17 12.7 C 50 %
1155 10-04-2019 14:57:17 12.8 C 50 %
1156 10-04-2019 15:09:17 12.9 C 49 %
1157 10-04-2019 15:21:17 12.9 C 49 %
1158 10-04-2019 15:33:17 13 C 47 %
1159 10-04-2019 15:45:17 13.1 C 47 %
1160 10-04-2019 15:57:17 13.2 C 46 %
1161 10-04-2019 16:09:17 13.2 C 46 %
1162 10-04-2019 16:21:17 13.3 C 46 %
1163 10-04-2019 16:33:17 13.3 C 46 %
1164 10-04-2019 16:45:17 13.7 C 44 %
1165 10-04-2019 16:57:17 13.8 C 43 %
1166 10-04-2019 17:09:18 13.7 C 44 %
1167 10-04-2019 17:21:17 13.5 C 45 %
1168 10-04-2019 17:33:17 13.4 C 46 %
1169 10-04-2019 17:45:17 13.4 C 46 %
1170 10-04-2019 17:57:17 13.3 C 48 %
1171 10-04-2019 18:09:17 13.3 C 49 %
1172 10-04-2019 18:21:17 13.2 C 50 %
1173 10-04-2019 18:33:17 13.2 C 50 %
1174 10-04-2019 18:45:17 13.2 C 51 %
1175 10-04-2019 18:57:18 13.2 C 52 %
Sensor: Nr:Datum:Temp:Feuchte:
G-T/H 1176 10-04-2019 19:09:17 13.2 C 53 %
1177 10-04-2019 19:21:17 13.1 C 53 %
1178 10-04-2019 19:33:17 13.1 C 53 %
1179 10-04-2019 19:45:17 13.1 C 54 %
1180 10-04-2019 19:57:17 13.1 C 54 %